[[{"header":{"parameterUnit":"m.s-1","parameterCategory":1,"la1":30.6,"la2":28.766,"lo1":-90.7593,"lo2":-88.6598,"dy":0.0162,"dx":0.0183,"nx":116,"ny":114,"refTime":"2023-04-27T12:00:00:Z","depth":0,"parameterNumber":2,"parameterNumberName":"U-component_of_WINDS"},"data":[0.0,0.0,0.0,0.0,0.0,0.0,0.0,0.0,0.0,0.0,0.0,0.0,0.0,0.0,0.0,0.0,0.0,0.0,0.0,0.0,0.0,0.0,0.0,0.0,0.0,0.0,0.0,0.0,0.0,0.0,0.0,0.0,0.0,0.0,0.0,0.0,0.0,0.0,0.0,0.0,0.0,0.0,0.0,0.0,0.0,0.0,0.0,0.0,0.0,0.0,0.0,0.0,0.0,0.0,0.0,0.0,0.0,0.0,0.0,0.0,0.0,0.0,0.0,0.0,0.0,0.0,0.0,0.0,0.0,0.0,0.0,0.0,0.0,0.0,0.0,0.0,0.0,0.0,0.0,0.0,0.0,0.0,0.0,0.0,0.0,0.0,0.0,0.0,0.0,0.0,0.0,0.0,0.0,0.0,0.0,0.0,0.0,0.0,0.0,0.0,0.0,0.0,0.0,0.0,0.0,0.0,0.0,0.0,0.0,0.0,0.0,0.0,0.0,0.0,0.0,0.0,0.0,0.0,0.0,0.0,0.0,0.0,0.0,0.0,0.0,0.0,0.0,0.0,0.0,0.0,0.0,0.0,0.0,0.0,0.0,0.0,0.0,0.0,0.0,0.0,0.0,0.0,0.0,0.0,0.0,0.0,0.0,0.0,0.0,0.0,0.0,0.0,0.0,0.0,0.0,0.0,0.0,0.0,0.0,0.0,0.0,0.0,0.0,0.0,0.0,0.0,0.0,0.0,0.0,0.0,0.0,0.0,0.0,0.0,0.0,0.0,0.0,0.0,0.0,0.0,0.0,0.0,0.0,0.0,0.0,0.0,0.0,0.0,0.0,0.0,0.0,0.0,0.0,0.0,0.0,0.0,0.0,0.0,0.0,0.0,0.0,0.0,0.0,0.0,0.0,0.0,0.0,0.0,0.0,0.0,0.0,0.0,0.0,0.0,0.0,0.0,0.0,0.0,0.0,0.0,0.0,0.0,0.0,0.0,0.0,0.0,0.0,0.0,0.0,0.0,0.0,0.0,0.0,0.0,0.0,0.0,0.0,0.0,0.0,0.0,0.0,0.0,0.0,0.0,0.0,0.0,0.0,0.0,0.0,0.0,0.0,0.0,0.0,0.0,0.0,0.0,0.0,0.0,0.0,0.0,0.0,0.0,0.0,0.0,0.0,0.0,0.0,0.0,0.0,0.0,0.0,0.0,0.0,0.0,0.0,0.0,0.0,0.0,0.0,0.0,0.0,0.0,0.0,0.0,0.0,0.0,0.0,0.0,0.0,0.0,0.0,0.0,0.0,0.0,0.0,0.0,0.0,0.0,0.0,0.0,0.0,0.0,0.0,0.0,0.0,0.0,0.0,0.0,0.0,0.0,0.0,0.0,0.0,0.0,0.0,0.0,0.0,0.0,0.0,0.0,0.0,0.0,0.0,0.0,0.0,0.0,0.0,0.0,0.0,0.0,0.0,0.0,0.0,0.0,0.0,0.0,0.0,0.0,0.0,0.0,0.0,0.0,0.0,0.0,0.0,0.0,0.0,0.0,0.0,0.0,0.0,0.0,0.0,0.0,0.0,0.0,0.0,0.0,0.0,0.0,0.0,0.0,0.0,0.0,0.0,0.0,0.0,0.0,0.0,0.0,0.0,0.0,0.0,0.0,0.0,0.0,0.0,0.0,0.0,0.0,0.0,0.0,0.0,0.0,0.0,0.0,0.0,0.0,0.0,0.0,0.0,0.0,0.0,0.0,0.0,0.0,0.0,0.0,0.0,0.0,0.0,0.0,0.0,0.0,0.0,0.0,0.0,0.0,0.0,0.0,0.0,0.0,0.0,0.0,0.0,0.0,0.0,0.0,0.0,0.0,0.0,0.0,0.0,0.0,0.0,0.0,0.0,0.0,0.0,0.0,0.0,0.0,0.0,0.0,0.0,0.0,0.0,0.0,0.0,0.0,0.0,0.0,0.0,0.0,0.0,0.0,0.0,0.0,0.0,0.0,0.0,0.0,0.0,0.0,0.0,0.0,0.0,0.0,0.0,0.0,0.0,0.0,0.0,0.0,0.0,0.0,0.0,0.0,0.0,0.0,0.0,0.0,0.0,0.0,0.0,0.0,0.0,0.0,0.0,0.0,0.0,0.0,0.0,0.0,0.0,0.0,0.0,0.0,0.0,0.0,0.0,0.0,0.0,0.0,0.0,0.0,0.0,0.0,0.0,0.0,0.0,0.0,0.0,0.0,0.0,0.0,0.0,0.0,0.0,0.0,0.0,0.0,0.0,0.0,0.0,0.0,0.0,0.0,0.0,0.0,0.0,0.0,0.0,0.0,0.0,0.0,0.0,0.0,0.0,0.0,0.0,0.0,0.0,0.0,0.0,0.0,0.0,0.0,0.0,0.0,0.0,0.0,0.0,0.0,0.0,0.0,0.0,0.0,0.0,0.0,0.0,0.0,0.0,0.0,0.0,0.0,0.0,0.0,0.0,0.0,0.0,0.0,0.0,0.0,0.0,0.0,0.0,0.0,0.0,0.0,0.0,0.0,0.0,0.0,0.0,0.0,0.0,0.0,0.0,0.0,0.0,0.0,0.0,0.0,0.0,0.0,0.0,0.0,0.0,0.0,0.0,0.0,0.0,0.0,0.0,0.0,0.0,0.0,0.0,0.0,0.0,0.0,0.0,0.0,0.0,0.0,0.0,0.0,0.0,0.0,0.0,0.0,0.0,0.0,0.0,0.0,0.0,0.0,0.0,0.0,0.0,0.0,0.0,0.0,0.0,0.0,0.0,0.0,0.0,0.0,0.0,0.0,0.0,0.0,0.0,0.0,0.0,0.0,0.0,0.0,0.0,0.0,0.0,0.0,0.0,0.0,0.0,0.0,0.0,0.0,0.0,0.0,0.0,0.0,0.0,0.0,0.0,0.0,0.0,0.0,0.0,0.0,0.0,0.0,0.0,0.0,0.0,0.0,0.0,0.0,0.0,0.0,0.0,0.0,0.0,0.0,0.0,0.0,0.0,0.0,0.0,0.0,0.0,0.0,0.0,0.0,0.0,0.0,0.0,0.0,0.0,0.0,0.0,0.0,0.0,0.0,0.0,0.0,0.0,0.0,0.0,0.0,0.0,0.0,0.0,0.0,0.0,0.0,0.0,0.0,0.0,0.0,0.0,0.0,0.0,0.0,0.0,0.0,0.0,0.0,0.0,0.0,0.0,0.0,0.0,0.0,0.0,0.0,0.0,0.0,0.0,0.0,0.0,0.0,0.0,0.0,0.0,0.0,0.0,0.0,0.0,0.0,0.0,0.0,0.0,0.0,0.0,0.0,0.0,0.0,0.0,0.0,0.0,0.0,0.0,0.0,0.0,0.0,0.0,0.0,0.0,0.0,0.0,0.0,0.0,0.0,0.0,0.0,0.0,0.0,0.0,0.0,0.0,0.0,0.0,0.0,0.0,0.0,0.0,0.0,0.0,0.0,0.0,0.0,0.0,0.0,0.0,0.0,0.0,0.0,0.0,0.0,0.0,0.0,0.0,0.0,0.0,0.0,0.0,0.0,0.0,0.0,0.0,0.0,0.0,0.0,0.0,0.0,0.0,0.0,0.0,0.0,0.0,0.0,0.0,0.0,0.0,0.0,0.0,0.0,0.0,0.0,0.0,0.0,0.0,0.0,0.0,0.0,0.0,0.0,0.0,0.0,0.0,0.0,0.0,0.0,0.0,0.0,0.0,0.0,0.0,0.0,0.0,0.0,0.0,0.0,0.0,0.0,0.0,0.0,0.0,0.0,0.0,0.0,0.0,0.0,0.0,0.0,0.0,0.0,0.0,0.0,0.0,0.0,0.0,0.0,0.0,0.0,0.0,0.0,0.0,0.0,0.0,0.0,0.0,0.0,0.0,0.0,0.0,0.0,0.0,0.0,0.0,0.0,0.0,0.0,0.0,0.0,0.0,0.0,0.0,0.0,0.0,0.0,0.0,0.0,0.0,0.0,0.0,0.0,0.0,0.0,0.0,0.0,0.0,0.0,0.0,0.0,0.0,0.0,0.0,0.0,0.0,0.0,0.0,0.0,0.0,0.0,0.0,0.0,0.0,0.0,0.0,0.0,0.0,0.0,0.0,0.0,0.0,0.0,0.0,0.0,0.0,0.0,0.0,0.0,0.0,0.0,0.0,0.0,0.0,0.0,0.0,0.0,0.0,0.0,0.0,0.0,0.0,0.0,0.0,0.0,0.0,0.0,0.0,0.0,0.0,0.0,0.0,0.0,0.0,0.0,0.0,0.0,0.0,0.0,0.0,0.0,0.0,0.0,0.0,0.0,0.0,0.0,0.0,0.0,0.0,0.0,0.0,0.0,0.0,0.0,0.0,0.0,0.0,0.0,0.0,0.0,0.0,0.0,0.0,0.0,0.0,0.0,0.0,0.0,0.0,0.0,0.0,0.0,0.0,0.0,0.0,0.0,0.0,0.0,0.0,0.0,0.0,0.0,0.0,0.0,0.0,0.0,0.0,0.0,0.0,0.0,0.0,0.0,0.0,0.0,0.0,0.0,0.0,0.0,0.0,0.0,0.0,0.0,0.0,0.0,0.0,0.0,0.0,0.0,0.0,0.0,0.0,0.0,0.0,0.0,0.0,0.0,0.0,0.0,0.0,0.0,0.0,0.0,0.0,0.0,0.0,0.0,0.0,0.0,0.0,0.0,0.0,0.0,0.0,0.0,0.0,0.0,0.0,0.0,0.0,0.0,0.0,0.0,0.0,0.0,0.0,0.0,0.0,0.0,0.0,0.0,0.0,0.0,0.0,0.0,0.0,0.0,0.0,0.0,0.0,0.0,0.0,0.0,0.0,0.0,0.0,0.0,0.0,0.0,0.0,0.0,0.0,0.0,0.0,0.0,0.0,0.0,0.0,0.0,0.0,0.0,0.0,0.0,0.0,0.0,0.0,0.0,0.0,0.0,0.0,0.0,0.0,0.0,0.0,0.0,0.0,0.0,0.0,0.0,0.0,0.0,0.0,0.0,0.0,0.0,0.0,0.0,0.0,0.0,0.0,0.0,0.0,0.0,0.0,0.0,0.0,0.0,0.0,0.0,0.0,0.0,0.0,0.0,0.0,0.0,0.0,0.0,0.0,0.0,0.0,0.0,0.0,0.0,0.0,0.0,0.0,0.0,0.0,0.0,0.0,0.0,0.0,0.0,0.0,0.0,0.0,0.0,0.0,0.0,0.0,0.0,0.0,0.0,0.0,0.0,0.0,0.0,0.0,0.0,0.0,0.0,0.0,0.0,0.0,0.0,0.0,0.0,0.0,0.0,0.0,0.0,0.0,0.0,0.0,0.0,0.0,0.0,0.0,0.0,0.0,0.0,0.0,0.0,0.0,0.0,0.0,0.0,0.0,0.0,0.0,0.0,0.0,0.0,0.0,0.0,0.0,0.0,0.0,0.0,0.0,0.0,0.0,0.0,0.0,0.0,0.0,0.0,0.0,0.0,0.0,0.0,0.0,0.0,0.0,0.0,0.0,0.0,0.0,0.0,0.0,0.0,0.0,0.0,0.0,0.0,0.0,0.0,0.0,0.0,0.0,0.0,0.0,0.0,0.0,0.0,0.0,0.0,0.0,0.0,0.0,0.0,0.0,0.0,0.0,0.0,0.0,0.0,0.0,0.0,0.0,0.0,0.0,0.0,0.0,0.0,0.0,0.0,0.0,0.0,0.0,0.0,0.0,0.0,0.0,0.0,0.0,0.0,0.0,0.0,0.0,0.0,0.0,0.0,0.0,0.0,0.0,0.0,0.0,0.0,0.0,0.0,0.0,0.0,0.0,0.0,0.0,0.0,0.0,0.0,0.0,0.0,0.0,0.0,0.0,0.0,0.0,0.0,0.0,0.0,0.0,0.0,0.0,0.0,0.0,0.0,0.0,0.0,0.0,0.0,0.0,0.0,0.0,0.0,0.0,0.0,0.0,0.0,0.0,0.0,0.0,0.0,0.0,0.0,0.0,0.0,0.0,0.0,0.0,0.0,0.0,0.0,0.0,0.0,0.0,0.0,0.0,0.0,0.0,0.0,0.0,0.0,0.0,0.0,0.0,0.0,0.0,0.0,0.0,0.0,0.0,0.0,0.0,0.0,-3.5975,0.0,0.0,0.0,0.0,0.0,0.0,0.0,0.0,0.0,0.0,0.0,0.0,0.0,0.0,0.0,0.0,0.0,0.0,0.0,0.0,0.0,0.0,0.0,0.0,0.0,0.0,0.0,0.0,0.0,0.0,0.0,0.0,0.0,0.0,0.0,0.0,0.0,0.0,0.0,0.0,0.0,0.0,0.0,0.0,0.0,0.0,0.0,0.0,0.0,0.0,0.0,0.0,0.0,0.0,0.0,0.0,0.0,0.0,0.0,0.0,0.0,0.0,0.0,0.0,0.0,0.0,0.0,0.0,0.0,0.0,0.0,0.0,0.0,0.0,0.0,0.0,0.0,0.0,0.0,0.0,0.0,0.0,0.0,0.0,0.0,0.0,0.0,0.0,0.0,0.0,0.0,0.0,0.0,0.0,0.0,0.0,0.0,0.0,0.0,0.0,0.0,0.0,0.0,0.0,0.0,0.0,0.0,0.0,0.0,0.0,0.0,0.0,0.0,0.0,0.0,0.0,-3.6618,0.0,0.0,0.0,0.0,0.0,0.0,0.0,0.0,0.0,0.0,0.0,0.0,0.0,0.0,0.0,0.0,0.0,0.0,0.0,0.0,0.0,0.0,0.0,0.0,0.0,0.0,0.0,0.0,0.0,0.0,0.0,0.0,0.0,0.0,0.0,0.0,0.0,0.0,0.0,0.0,0.0,0.0,0.0,0.0,0.0,0.0,0.0,0.0,0.0,0.0,0.0,0.0,0.0,0.0,0.0,0.0,0.0,0.0,0.0,0.0,0.0,0.0,0.0,0.0,0.0,0.0,0.0,0.0,0.0,0.0,0.0,0.0,0.0,0.0,0.0,0.0,0.0,0.0,0.0,0.0,0.0,0.0,0.0,0.0,0.0,0.0,0.0,0.0,0.0,0.0,0.0,0.0,0.0,0.0,0.0,0.0,0.0,0.0,0.0,0.0,0.0,0.0,0.0,0.0,0.0,0.0,0.0,0.0,-3.8877,-3.8877,-3.8877,-3.8877,-3.9036,-3.9264,-3.8923,-3.8562,-3.8167,-3.7838,0.0,0.0,0.0,0.0,0.0,0.0,0.0,0.0,0.0,0.0,0.0,0.0,0.0,0.0,0.0,0.0,0.0,0.0,0.0,0.0,0.0,0.0,0.0,0.0,0.0,0.0,0.0,0.0,0.0,0.0,0.0,0.0,0.0,0.0,0.0,0.0,0.0,0.0,-3.0311,-3.0314,-3.0375,-3.0519,0.0,0.0,0.0,0.0,0.0,0.0,0.0,0.0,0.0,0.0,0.0,0.0,0.0,0.0,0.0,0.0,0.0,0.0,0.0,0.0,0.0,0.0,0.0,0.0,0.0,0.0,0.0,0.0,0.0,0.0,0.0,0.0,0.0,0.0,0.0,0.0,0.0,0.0,0.0,0.0,0.0,0.0,0.0,0.0,-3.6658,-3.6601,0.0,0.0,0.0,0.0,0.0,0.0,0.0,0.0,0.0,0.0,0.0,0.0,0.0,-4.0709,-4.0541,-4.1131,-4.1336,-4.1156,-4.1156,-4.1156,-4.1156,-4.1156,-4.1178,-4.12,-4.0822,0.0,-3.8167,-3.7838,0.0,0.0,0.0,0.0,0.0,0.0,0.0,0.0,0.0,0.0,0.0,0.0,0.0,0.0,0.0,0.0,0.0,0.0,0.0,0.0,0.0,0.0,0.0,0.0,0.0,0.0,0.0,0.0,0.0,0.0,0.0,0.0,0.0,0.0,0.0,0.0,-3.0411,-3.0328,-3.0305,-3.0305,-3.0348,-3.0452,-3.0536,-3.0672,-3.0795,-3.0804,0.0,0.0,0.0,0.0,0.0,0.0,0.0,0.0,0.0,0.0,0.0,0.0,0.0,0.0,0.0,0.0,0.0,0.0,0.0,0.0,0.0,0.0,0.0,0.0,0.0,0.0,0.0,0.0,0.0,0.0,0.0,0.0,0.0,0.0,0.0,0.0,0.0,0.0,0.0,-3.656,-3.7143,-3.7494,-3.7941,-3.8123,0.0,0.0,0.0,0.0,0.0,0.0,0.0,0.0,0.0,-4.1096,-4.1533,-4.1729,-4.1647,-4.18,-4.187,-4.1762,-4.1653,-4.1604,-4.1604,-4.1604,-4.1604,-4.1582,-4.1163,-4.041,-3.9419,-3.9275,-3.9105,-3.8949,0.0,0.0,0.0,0.0,-3.8328,-3.8328,0.0,0.0,0.0,0.0,0.0,0.0,0.0,0.0,0.0,0.0,0.0,0.0,0.0,0.0,0.0,0.0,0.0,0.0,0.0,0.0,0.0,0.0,0.0,0.0,0.0,0.0,0.0,0.0,0.0,-3.033,-3.0331,-3.0305,-3.0342,-3.0439,-3.0481,-3.0591,-3.0747,-3.0792,-3.0792,0.0,0.0,0.0,0.0,0.0,0.0,0.0,0.0,0.0,0.0,0.0,0.0,0.0,0.0,0.0,0.0,0.0,0.0,0.0,0.0,0.0,0.0,0.0,0.0,0.0,0.0,0.0,0.0,0.0,0.0,0.0,0.0,0.0,0.0,0.0,0.0,0.0,0.0,-3.7176,-3.7611,-3.8408,-3.8517,-3.8572,0.0,0.0,0.0,0.0,0.0,0.0,-4.1038,-4.1227,-4.1581,-4.2187,-4.2267,-4.2267,-4.2205,-4.2061,-4.1956,-4.1827,-4.1653,-4.1604,-4.1604,-4.1604,-4.1604,-4.1582,-4.1163,-4.089,-4.0683,-4.0392,-4.0195,-4.0095,-3.9841,-3.9746,-3.972,-3.9405,-3.9299,-3.9299,0.0,0.0,0.0,0.0,0.0,0.0,0.0,0.0,0.0,0.0,0.0,0.0,0.0,0.0,0.0,0.0,0.0,0.0,0.0,0.0,0.0,0.0,0.0,0.0,0.0,0.0,0.0,0.0,0.0,0.0,0.0,0.0,-3.0373,-3.0507,-3.0497,-3.0538,-3.063,-3.0758,-3.0804,-3.0793,0.0,0.0,0.0,0.0,0.0,0.0,0.0,0.0,0.0,0.0,0.0,0.0,0.0,0.0,0.0,0.0,0.0,0.0,0.0,0.0,0.0,0.0,0.0,0.0,0.0,0.0,0.0,0.0,0.0,0.0,0.0,0.0,0.0,0.0,0.0,0.0,0.0,0.0,0.0,-3.9242,-3.9333,0.0,0.0,0.0,0.0,-4.0237,-4.0711,-4.102,-4.1092,-4.1582,-4.1881,-4.1917,-4.2184,-4.2166,-4.1917,-4.2145,-4.2058,-4.1604,-4.1604,-4.1604,-4.1604,-4.1604,-4.1604,-4.1582,-4.1163,-4.1226,-4.1453,-4.037,-3.9703,-3.9352,-3.9325,-3.9325,-3.9325,-3.9299,-3.9299,-3.9299,0.0,0.0,0.0,0.0,0.0,0.0,0.0,0.0,0.0,0.0,0.0,0.0,0.0,0.0,0.0,0.0,0.0,0.0,0.0,0.0,0.0,0.0,0.0,0.0,0.0,0.0,0.0,0.0,0.0,0.0,0.0,0.0,0.0,0.0,0.0,0.0,0.0,-3.077,-3.0801,-3.0804,-3.0806,-3.0791,0.0,0.0,0.0,0.0,0.0,0.0,0.0,0.0,0.0,0.0,0.0,0.0,0.0,0.0,0.0,0.0,0.0,0.0,0.0,0.0,0.0,0.0,0.0,0.0,0.0,0.0,0.0,0.0,0.0,0.0,0.0,0.0,0.0,0.0,0.0,0.0,0.0,-3.9569,-3.9908,0.0,-4.042,-4.0438,-4.0655,-4.116,-4.1375,-4.1697,-4.2221,-4.2431,-4.2536,-4.2536,-4.3136,-4.3406,-4.3326,-4.3807,-4.387,-4.3527,-4.3395,-4.3238,-4.3079,-4.3079,-4.3079,-4.3056,-4.2647,-4.2274,-4.1934,-4.1285,-4.092,-4.0724,-4.0195,-4.0011,-3.9961,-3.9468,-3.9299,-3.9299,0.0,0.0,0.0,0.0,0.0,0.0,0.0,0.0,0.0,0.0,0.0,0.0,0.0,0.0,0.0,0.0,0.0,0.0,0.0,0.0,0.0,0.0,0.0,0.0,0.0,0.0,0.0,0.0,0.0,0.0,0.0,0.0,0.0,0.0,0.0,0.0,0.0,0.0,0.0,0.0,0.0,0.0,-3.0795,0.0,0.0,0.0,0.0,0.0,0.0,0.0,0.0,0.0,0.0,0.0,0.0,0.0,0.0,0.0,0.0,0.0,0.0,0.0,0.0,0.0,0.0,0.0,0.0,0.0,0.0,0.0,0.0,0.0,0.0,0.0,0.0,0.0,0.0,0.0,-4.0341,-4.0616,-4.0878,-4.1142,-4.1414,-4.1361,-4.1542,-4.2067,-4.2375,-4.27,-4.3185,-4.3456,-4.3581,-4.352,-4.3987,-4.4275,-4.4295,-4.4674,-4.4796,-4.4624,-4.4405,-4.4203,-4.4043,-4.395,-4.3904,-4.3904,-4.3609,-4.3234,-4.274,-4.25,-4.2374,-4.2216,-4.0793,-4.0237,-4.0162,-3.9547,-3.9299,-3.9299,0.0,0.0,0.0,0.0,0.0,0.0,0.0,0.0,0.0,0.0,0.0,0.0,0.0,0.0,0.0,0.0,0.0,0.0,0.0,0.0,0.0,0.0,0.0,0.0,0.0,0.0,0.0,0.0,0.0,0.0,0.0,0.0,0.0,0.0,0.0,0.0,0.0,0.0,0.0,0.0,0.0,0.0,-3.0798,0.0,0.0,0.0,0.0,0.0,0.0,0.0,0.0,0.0,0.0,0.0,0.0,0.0,0.0,0.0,0.0,0.0,0.0,0.0,0.0,0.0,0.0,0.0,0.0,0.0,0.0,0.0,0.0,0.0,0.0,0.0,0.0,0.0,-4.0244,-4.084,-4.1653,-4.2416,-4.2299,-4.2442,-4.323,-4.3087,-4.2955,-4.2955,-4.3679,-4.4053,-4.3852,-4.4592,-4.492,-4.4725,-4.4682,-4.4682,-4.4761,-4.4718,-4.4735,-4.4775,-4.4516,-4.4404,-4.4364,-4.4114,-4.3997,-4.3974,-4.3974,-4.3957,-4.3939,-4.3939,-4.3921,-4.3652,-4.1008,-3.9986,-3.9934,-3.9484,-3.9325,-3.9325,0.0,0.0,0.0,0.0,0.0,0.0,0.0,0.0,0.0,0.0,0.0,0.0,0.0,0.0,0.0,0.0,0.0,0.0,0.0,0.0,0.0,0.0,0.0,0.0,0.0,0.0,0.0,0.0,0.0,0.0,0.0,0.0,0.0,0.0,0.0,0.0,0.0,0.0,0.0,0.0,0.0,0.0,-3.0796,0.0,0.0,0.0,0.0,0.0,0.0,0.0,0.0,0.0,0.0,0.0,0.0,0.0,0.0,0.0,0.0,0.0,0.0,0.0,0.0,0.0,0.0,0.0,0.0,0.0,0.0,0.0,0.0,0.0,0.0,0.0,0.0,-4.2504,-4.1603,-4.2042,-4.2534,-4.2757,-4.2897,-4.3065,-4.3284,-4.3577,-4.3769,-4.3769,-4.4512,-4.4963,-4.4885,-4.5102,-4.519,-4.5147,-4.5668,-4.5975,-4.6013,-4.657,-4.6755,-4.6585,-4.652,-4.6302,-4.5976,-4.5906,-4.574,-4.5565,-4.5565,-4.5273,-4.4764,-4.4764,-4.4431,-4.3752,-4.2189,-4.1567,-4.1449,-4.0449,-3.9952,-3.9694,0.0,0.0,0.0,0.0,0.0,0.0,0.0,0.0,0.0,0.0,0.0,0.0,0.0,0.0,0.0,0.0,0.0,0.0,0.0,0.0,0.0,0.0,0.0,0.0,0.0,0.0,0.0,0.0,0.0,0.0,0.0,0.0,0.0,0.0,0.0,0.0,0.0,0.0,0.0,0.0,0.0,0.0,-3.0846,-3.083,-3.0834,-3.0857,-3.0897,-3.0897,-3.1073,-3.2245,0.0,0.0,0.0,0.0,0.0,0.0,0.0,0.0,0.0,0.0,0.0,0.0,0.0,0.0,0.0,0.0,0.0,0.0,0.0,0.0,0.0,0.0,0.0,0.0,-4.3392,-4.351,-4.3175,-4.3381,-4.3571,-4.3571,-4.3908,-4.4143,-4.4143,-4.4547,-4.4797,-4.4797,-4.5424,-4.5798,-4.5798,-4.6124,-4.6305,-4.6305,-4.6654,-4.7051,-4.7518,-4.7864,-4.8179,-4.8482,-4.8241,-4.7834,-4.7252,-4.7037,-4.6667,-4.6196,-4.6196,-4.5951,-4.5572,-4.5572,-4.5291,0.0,0.0,0.0,0.0,0.0,-4.0408,-4.0034,0.0,0.0,0.0,0.0,0.0,0.0,0.0,0.0,0.0,0.0,0.0,0.0,0.0,0.0,0.0,0.0,0.0,0.0,0.0,0.0,0.0,0.0,0.0,0.0,0.0,0.0,0.0,0.0,0.0,0.0,0.0,0.0,0.0,0.0,0.0,0.0,0.0,0.0,0.0,0.0,0.0,0.0,-3.0888,-3.089,-3.0896,-3.0898,-3.0898,-3.0898,-3.1132,-3.2812,0.0,0.0,0.0,0.0,0.0,0.0,0.0,0.0,0.0,0.0,0.0,0.0,0.0,0.0,0.0,0.0,0.0,0.0,0.0,0.0,0.0,0.0,0.0,0.0,-4.3953,-4.4167,-4.4808,-4.4783,-4.4674,-4.4646,-4.5122,-4.545,-4.545,-4.5765,-4.5975,-4.5975,-4.6418,-4.6692,-4.6692,0.0,0.0,0.0,0.0,-4.8063,-4.9018,-4.8802,-4.9167,-5.0071,-4.9618,-4.9031,-4.8347,-4.7787,-4.7111,-4.6369,-4.6281,-4.6221,-4.6196,-4.6196,-4.6196,-4.6032,-4.4209,-4.3437,-4.3207,-4.1742,-4.0963,-4.0562,0.0,0.0,0.0,0.0,0.0,0.0,0.0,0.0,0.0,0.0,0.0,0.0,0.0,0.0,0.0,0.0,0.0,0.0,0.0,0.0,0.0,0.0,0.0,0.0,0.0,0.0,0.0,0.0,0.0,0.0,0.0,0.0,0.0,0.0,0.0,0.0,0.0,0.0,0.0,0.0,0.0,0.0,-3.0741,-3.0851,-3.0897,-3.0897,-3.0831,-3.0827,-3.1078,-3.2752,-3.3314,-3.3614,-3.5352,0.0,0.0,0.0,0.0,0.0,0.0,0.0,0.0,0.0,0.0,0.0,0.0,0.0,0.0,0.0,0.0,0.0,0.0,0.0,0.0,-4.4895,-4.4922,-4.5129,-4.5957,-4.5969,-4.5783,-4.55,-4.5978,-4.6342,-4.6342,-4.6786,-4.7093,-4.7093,-4.7533,-4.7778,-4.7778,-4.8333,-4.8656,-4.8656,-4.9249,-4.9647,-4.9854,-4.981,-4.9905,-5.0112,0.0,0.0,-4.939,-4.8634,-4.8003,-4.7444,-4.6784,-4.6398,-4.6196,-4.6196,-4.6196,-4.6109,-4.5124,-4.4371,-4.368,-4.2714,-4.2303,-4.2129,0.0,0.0,0.0,0.0,0.0,0.0,0.0,0.0,0.0,0.0,0.0,0.0,0.0,0.0,0.0,0.0,0.0,0.0,0.0,0.0,0.0,0.0,0.0,0.0,0.0,0.0,0.0,0.0,0.0,0.0,0.0,0.0,0.0,0.0,0.0,0.0,0.0,0.0,0.0,0.0,0.0,0.0,-3.065,-3.0755,-3.0794,-3.0795,-3.0764,-3.103,-3.1592,-3.2879,-3.357,-3.4135,-3.5476,-3.5916,-3.5947,0.0,0.0,0.0,0.0,0.0,0.0,0.0,0.0,0.0,0.0,0.0,0.0,0.0,0.0,-4.3498,0.0,0.0,-4.4949,-4.5251,-4.5579,-4.5932,-4.6332,-4.6992,-4.7167,-4.6516,-4.7078,-4.7481,-4.7404,-4.7895,-4.8207,-4.8207,-4.8661,-4.8894,-4.8718,-4.938,-4.9668,-4.951,-4.9872,-5.0293,-5.0709,-5.0709,-5.0909,-5.1285,-5.1171,-5.0821,-5.0291,-4.9597,-4.8752,-4.7765,-4.723,-4.6713,-4.6196,-4.6196,-4.6196,-4.6161,-4.5775,-4.5292,-4.4652,-4.3896,-4.346,-4.3132,0.0,0.0,0.0,0.0,0.0,0.0,0.0,0.0,0.0,0.0,0.0,0.0,0.0,0.0,0.0,0.0,0.0,0.0,0.0,0.0,0.0,0.0,0.0,0.0,0.0,0.0,0.0,0.0,0.0,0.0,0.0,0.0,0.0,0.0,0.0,0.0,0.0,0.0,0.0,0.0,0.0,0.0,-3.0611,-3.0656,-3.0681,-3.0709,-3.0704,-3.1264,-3.2135,-3.2992,-3.3832,-3.4672,-3.5618,-3.5908,-3.5898,-3.5903,-3.5908,0.0,0.0,0.0,0.0,0.0,0.0,0.0,0.0,0.0,-4.25,-4.268,-4.3749,-4.4647,-4.4672,-4.5189,-4.5589,-4.557,-4.6133,-4.6634,-4.6893,-4.7953,-4.8465,-4.784,-4.8273,-4.8587,-4.8499,-4.8998,-4.9336,-4.9336,-4.9821,-5.0009,-4.974,-5.0428,-5.072,-5.0439,-5.0514,-5.0891,-5.152,-5.152,-5.1846,-5.2498,-5.2269,-5.1856,-5.1189,-5.0597,-4.9539,-4.814,-4.7498,-4.6875,-4.627,-4.6221,-4.6196,-4.6196,-4.6196,-4.6005,-4.564,-4.4964,-4.4475,-4.4077,0.0,0.0,0.0,0.0,0.0,0.0,0.0,0.0,0.0,0.0,0.0,0.0,0.0,0.0,0.0,0.0,0.0,0.0,0.0,0.0,0.0,0.0,0.0,0.0,0.0,0.0,0.0,0.0,0.0,0.0,0.0,0.0,0.0,0.0,0.0,0.0,0.0,0.0,0.0,0.0,0.0,0.0,-3.0592,-3.0601,-3.0648,-3.0706,-3.0698,-3.1254,-3.2123,-3.295,-3.3812,-3.4734,-3.5613,-3.5905,-3.5906,-3.5908,0.0,-3.6281,-3.8024,-3.9625,-4.0852,-4.1046,-4.1636,-4.2159,0.0,0.0,-4.3578,-4.4345,-4.4651,-4.4968,-4.5609,-4.5796,-4.6,-4.6474,-4.6618,-4.7173,-4.8594,-4.8942,-4.9227,-4.9721,-4.9547,-4.9416,-4.9531,-5.0134,-5.0509,-5.0509,-5.1011,-5.1283,-5.1248,-5.1514,-5.1645,-5.1603,-5.2009,-5.2263,-5.2353,-5.2371,-5.2408,-5.2498,-5.2475,-5.2397,-5.2271,-5.1519,-5.0551,-4.9362,-4.7506,-4.6655,-4.6542,-4.6295,-4.6196,-4.6196,-4.6196,-4.6172,-4.608,-4.5648,-4.5442,-4.5338,0.0,0.0,0.0,0.0,0.0,0.0,0.0,0.0,0.0,0.0,0.0,0.0,0.0,0.0,0.0,0.0,0.0,0.0,0.0,-2.6295,0.0,0.0,0.0,0.0,0.0,0.0,0.0,0.0,0.0,0.0,0.0,0.0,0.0,0.0,0.0,0.0,0.0,0.0,0.0,0.0,0.0,0.0,-3.0602,-3.0606,-3.0626,-3.0642,-3.0644,-3.1534,0.0,0.0,-3.4195,-3.5418,-3.5788,-3.59,-3.6006,-3.6512,-3.6668,0.0,-3.8772,-4.0162,0.0,0.0,-4.2059,-4.2412,-4.2893,-4.3649,-4.436,-4.4715,-4.5161,-4.5587,-4.5861,-4.59,-4.6097,0.0,-4.7236,-4.7952,-4.9053,-4.9543,-4.9905,-5.0174,-4.9925,-4.9721,-4.9692,-5.0312,-5.0707,-5.0707,-5.1811,-5.2406,-5.2211,-5.2716,-5.2927,-5.2745,-5.2776,-5.2779,-5.2779,-5.2595,-5.2498,-5.2498,-5.2498,-5.2498,-5.2462,-5.1509,-5.0237,-4.8685,-4.7234,-4.659,-4.659,-4.6319,-4.6196,-4.6196,-4.6196,-4.6196,-4.6172,-4.6023,-4.5955,-4.593,0.0,0.0,0.0,0.0,0.0,0.0,0.0,0.0,0.0,0.0,0.0,0.0,0.0,0.0,0.0,0.0,0.0,0.0,0.0,-2.695,-2.7444,0.0,0.0,0.0,0.0,0.0,0.0,0.0,0.0,0.0,0.0,0.0,0.0,0.0,0.0,0.0,0.0,0.0,0.0,0.0,0.0,0.0,-3.0601,-3.0593,-3.0614,-3.0626,-3.0638,-3.1752,0.0,0.0,-3.4474,-3.5901,-3.5903,-3.6064,-3.6376,-3.7019,-3.7701,-3.8558,-3.9831,0.0,0.0,-4.2543,-4.2851,-4.3177,-4.3752,-4.4526,-4.5122,-4.5122,-4.5594,-4.598,-4.5937,-4.5918,-4.6235,-4.7167,-4.784,-4.8582,-4.9548,-5.0114,-5.0404,-5.0363,-5.0156,-5.0049,-5.017,-5.0723,-5.1168,-5.1365,-5.2736,-5.3423,-5.3194,-5.3627,-5.3795,-5.3546,-5.3261,-5.3112,-5.3112,-5.2802,-5.264,-5.264,-5.2526,-5.2498,-5.2462,-5.1228,-4.9819,-4.8266,-4.7232,-4.6783,-4.676,-4.6518,-4.6368,-4.6319,-4.6319,-4.627,-4.6196,-4.6196,-4.6196,-4.6196,0.0,0.0,0.0,0.0,0.0,0.0,0.0,0.0,0.0,0.0,0.0,0.0,0.0,0.0,0.0,0.0,0.0,0.0,0.0,-2.6422,-2.7132,-2.8685,0.0,0.0,0.0,0.0,0.0,0.0,0.0,0.0,0.0,0.0,0.0,0.0,0.0,0.0,0.0,0.0,0.0,0.0,0.0,0.0,-3.0602,-3.0606,-3.0634,-3.0694,-3.0707,0.0,0.0,0.0,-3.4506,-3.5908,-3.5908,-3.6473,0.0,-3.7194,-3.9006,0.0,0.0,0.0,-4.3548,-4.3648,-4.4238,-4.4838,-4.4846,-4.5437,-4.5963,-4.5963,-4.5982,-4.6002,-4.5997,-4.5997,-4.6507,-4.8088,-4.8384,-4.8921,-5.0443,-5.0677,-5.0633,-5.0517,-5.0383,-5.0562,0.0,-5.1774,-5.235,-5.3071,-5.3883,-5.4371,-5.4354,-5.4054,-5.3907,-5.3889,-5.3565,-5.3387,-5.3387,-5.3112,-5.2999,-5.2977,-5.2663,-5.2498,-5.2444,-5.085,-4.9651,-4.8815,-4.7727,-4.728,-4.7258,-4.707,-4.6819,-4.659,-4.659,-4.6423,-4.6196,-4.6196,-4.6196,-4.6196,0.0,0.0,0.0,0.0,0.0,0.0,0.0,0.0,0.0,0.0,0.0,0.0,0.0,0.0,0.0,0.0,0.0,0.0,0.0,-2.8579,-2.9079,-2.957,-2.9642,0.0,0.0,0.0,0.0,0.0,0.0,0.0,0.0,0.0,0.0,0.0,0.0,0.0,0.0,0.0,0.0,0.0,0.0,0.0,-3.0591,-3.0648,-3.0675,-3.071,0.0,0.0,0.0,0.0,-3.4508,-3.5908,-3.5908,0.0,0.0,-3.9279,-4.0824,-4.2084,0.0,0.0,-4.3819,-4.4419,-4.4723,-4.5056,-4.5638,-4.5919,-4.608,-4.608,-4.6032,-4.6002,-4.6002,-4.6002,-4.6554,-4.8268,-4.8534,-4.9097,-5.067,-5.0906,-5.0819,-5.0642,-5.0499,0.0,0.0,0.0,0.0,-5.3273,-5.4006,-5.4409,-5.4409,-5.4285,-5.4233,-5.4233,-5.3907,-5.3738,-5.3738,-5.3425,-5.3178,-5.298,-5.2118,-5.1411,-5.0873,-4.98,-4.8858,-4.8076,-4.7533,-4.7302,-4.7258,-4.6893,-4.6684,-4.659,-4.6398,-4.627,-4.6196,-4.6196,-4.6196,-4.6196,0.0,0.0,0.0,0.0,0.0,0.0,0.0,0.0,0.0,0.0,0.0,0.0,0.0,0.0,0.0,0.0,0.0,0.0,0.0,0.0,-2.9895,-3.0122,-3.0162,-3.0202,0.0,0.0,0.0,0.0,0.0,0.0,0.0,0.0,0.0,0.0,0.0,0.0,0.0,0.0,0.0,0.0,0.0,0.0,-3.0637,-3.0685,-3.0709,0.0,0.0,0.0,0.0,0.0,0.0,-3.595,-3.6267,-3.7397,-3.8917,-4.0619,-4.2145,-4.334,-4.3568,-4.4126,-4.4764,-4.5315,-4.5401,-4.5508,-4.6074,-4.6171,-4.6131,-4.6105,-4.608,-4.6027,-4.6007,-4.6002,-4.6565,-4.8327,-4.8599,-4.9178,-5.0843,-5.1069,-5.1007,-5.0827,-5.0726,0.0,0.0,0.0,0.0,-5.3289,-5.3988,-5.4409,-5.4409,-5.4409,-5.4409,-5.4409,-5.4198,-5.409,-5.409,-5.3757,-5.3237,-5.256,-5.1832,-5.0838,-4.9655,-4.9148,-4.8456,-4.7678,-4.7511,-4.7428,-4.7407,-4.712,-4.6893,-4.6749,-4.656,-4.6368,-4.6196,-4.6196,-4.6196,-4.6196,0.0,0.0,0.0,0.0,0.0,0.0,0.0,0.0,0.0,0.0,0.0,0.0,0.0,0.0,0.0,0.0,0.0,0.0,0.0,0.0,0.0,-3.0369,-3.034,-3.0372,-3.0494,0.0,0.0,0.0,0.0,0.0,0.0,0.0,0.0,0.0,0.0,0.0,0.0,0.0,0.0,0.0,0.0,0.0,-3.0703,-3.0703,0.0,0.0,0.0,0.0,0.0,0.0,0.0,0.0,0.0,-3.899,-4.1061,-4.1189,-4.2939,-4.4694,-4.4016,-4.5035,-4.6308,-4.6298,-4.6242,-4.6211,-4.6211,-4.6205,-4.6175,-4.6118,-4.6102,-4.6076,0.0,0.0,-4.6565,-4.825,-4.8561,-4.9182,-5.0891,-5.1163,-5.1146,0.0,0.0,0.0,0.0,0.0,0.0,-5.315,0.0,-5.4407,-5.4407,-5.439,-5.4409,-5.4409,-5.4409,-5.4409,-5.4409,-5.4035,-5.3159,-5.1836,-5.1763,-5.0712,-4.8934,-4.8876,-4.8442,-4.7717,-4.7717,-4.7717,-4.7717,-4.7696,-4.7421,-4.7002,-4.7002,-4.6678,-4.6221,-4.6221,-4.6196,-4.6196,0.0,0.0,0.0,0.0,0.0,0.0,0.0,0.0,0.0,0.0,0.0,0.0,0.0,0.0,0.0,0.0,0.0,0.0,0.0,0.0,0.0,0.0,0.0,0.0,0.0,0.0,0.0,0.0,0.0,0.0,0.0,0.0,0.0,0.0,0.0,0.0,0.0,0.0,0.0,0.0,0.0,0.0,-3.0703,0.0,0.0,0.0,0.0,0.0,0.0,0.0,0.0,0.0,0.0,-3.8984,-4.0506,-4.2478,-4.35,-4.4248,-4.5347,-4.5959,-4.6298,-4.63,-4.6287,-4.6273,-4.6273,-4.6249,-4.6205,-4.6177,-4.6137,-4.6076,0.0,0.0,0.0,-4.7453,-4.8172,0.0,-5.0076,-5.0794,0.0,-5.1146,0.0,-5.1006,-5.1026,-5.1655,0.0,0.0,-5.3924,-5.4552,-5.4552,-5.4439,-5.4409,-5.4409,-5.4409,-5.4409,-5.4409,-5.3456,-5.2828,-5.2456,-5.1006,-4.9922,-4.9179,-4.8577,-4.8091,-4.7717,-4.7717,-4.7717,-4.7678,-4.749,-4.732,-4.7209,-4.7048,-4.6795,-4.6495,-4.6495,-4.6374,-4.6196,0.0,0.0,0.0,0.0,0.0,0.0,0.0,0.0,0.0,0.0,0.0,0.0,0.0,0.0,0.0,0.0,0.0,0.0,0.0,0.0,0.0,0.0,0.0,0.0,0.0,0.0,0.0,0.0,0.0,0.0,0.0,0.0,0.0,0.0,0.0,0.0,0.0,0.0,0.0,0.0,0.0,0.0,0.0,0.0,0.0,0.0,0.0,0.0,0.0,0.0,0.0,-3.7834,-3.8252,-3.9555,-4.122,-4.2709,0.0,-4.4489,-4.5451,-4.6003,-4.63,-4.63,-4.63,-4.63,-4.63,-4.6276,-4.6249,-4.6213,-4.6165,0.0,0.0,0.0,0.0,0.0,0.0,0.0,-4.9712,-5.0309,-5.0775,0.0,-5.1134,0.0,-5.0923,-5.1565,-5.2135,0.0,-5.3588,-5.4394,-5.4712,-5.4565,-5.4455,-5.439,-5.4409,-5.4221,-5.3883,-5.2849,-5.2094,-5.1579,-5.0507,-4.964,-4.8969,-4.8374,-4.8034,-4.787,0.0,-4.7717,-4.7678,-4.7533,-4.7407,-4.728,-4.7165,-4.6916,-4.659,-4.659,-4.6229,-4.5705,0.0,0.0,0.0,0.0,0.0,0.0,0.0,0.0,0.0,0.0,0.0,0.0,0.0,0.0,0.0,0.0,0.0,0.0,0.0,0.0,0.0,0.0,0.0,0.0,0.0,0.0,0.0,0.0,0.0,0.0,0.0,0.0,0.0,0.0,0.0,0.0,0.0,0.0,0.0,0.0,0.0,0.0,0.0,0.0,0.0,0.0,0.0,0.0,0.0,0.0,-3.7022,-3.8497,-3.8493,-4.0212,-4.2266,-4.249,-4.3638,-4.4883,-4.5106,-4.5714,-4.63,-4.63,-4.63,-4.63,-4.63,-4.63,-4.6278,-4.6201,0.0,-4.6158,-4.6036,0.0,-4.6249,-4.7007,0.0,-4.7822,-4.9343,-4.9751,-5.0178,-5.095,-5.1125,-5.1202,-5.1202,-5.1735,-5.2116,-5.2213,-5.3063,-5.3925,-5.4705,-5.4561,-5.4398,-5.4257,-5.4127,-5.3733,-5.3036,-5.2175,-5.1235,-5.0269,-5.0176,-4.9593,-4.8641,-4.8364,-4.8212,-4.8153,-4.787,0.0,-4.7762,-4.7699,-4.7554,-4.7363,-4.7363,-4.7026,-4.6524,-4.6501,-4.5876,-4.5005,0.0,0.0,0.0,0.0,0.0,0.0,0.0,0.0,0.0,0.0,-3.072,-3.0701,0.0,0.0,0.0,0.0,0.0,0.0,0.0,0.0,0.0,0.0,0.0,0.0,0.0,0.0,0.0,0.0,0.0,0.0,0.0,0.0,0.0,0.0,0.0,0.0,0.0,0.0,0.0,0.0,0.0,0.0,0.0,0.0,0.0,0.0,0.0,0.0,0.0,0.0,-3.7097,-3.8493,-3.8436,-3.9767,-4.1614,-4.304,-4.3684,-4.4249,-4.5675,-4.6183,-4.63,-4.63,-4.63,-4.63,-4.63,-4.63,0.0,0.0,0.0,-4.6189,-4.6098,-4.6041,0.0,-4.6191,0.0,0.0,0.0,0.0,-4.9965,0.0,0.0,0.0,0.0,0.0,0.0,0.0,0.0,-5.2923,-5.3943,-5.3803,-5.3606,-5.3412,-5.27,-5.2268,-5.2137,-5.1311,-5.0807,-5.0625,-4.9934,-4.9377,-4.8923,-4.8872,-4.8713,-4.8495,-4.8173,0.0,-4.7995,-4.7785,-4.7678,-4.7636,-4.7636,-4.7032,-4.6161,-4.5985,-4.5298,-4.4405,0.0,0.0,0.0,0.0,0.0,0.0,0.0,-3.0797,-3.08,-3.0797,-3.0771,-3.0761,-3.0807,-3.0801,0.0,0.0,0.0,0.0,0.0,0.0,0.0,0.0,0.0,0.0,0.0,0.0,0.0,0.0,0.0,0.0,0.0,0.0,0.0,0.0,0.0,0.0,0.0,0.0,0.0,0.0,0.0,0.0,0.0,0.0,0.0,0.0,0.0,0.0,0.0,0.0,-3.6834,-3.7956,-3.837,-3.9706,-4.1441,-4.3198,-4.3705,-4.4076,-4.5831,-4.63,-4.63,-4.63,-4.63,-4.63,-4.63,0.0,0.0,0.0,-4.6209,-4.6174,-4.6099,0.0,0.0,0.0,0.0,0.0,0.0,0.0,0.0,0.0,0.0,0.0,0.0,0.0,0.0,0.0,0.0,-5.2189,-5.3464,-5.3142,-5.2843,-5.2639,-5.1753,-5.1273,-5.1273,-5.0485,-5.0072,-5.0072,-4.9678,-4.9427,-4.9262,-4.9077,-4.8923,-4.8784,-4.8495,0.0,-4.8094,-4.7953,-4.7572,-4.7083,-4.7083,-4.6413,-4.5465,-4.5358,-4.47,-4.3801,0.0,0.0,0.0,0.0,0.0,0.0,0.0,-3.0789,-3.0779,-3.08,-3.08,-3.08,-3.0809,-3.0801,-3.0792,0.0,0.0,0.0,0.0,0.0,0.0,0.0,0.0,0.0,0.0,0.0,0.0,0.0,0.0,0.0,0.0,0.0,0.0,0.0,0.0,0.0,0.0,0.0,0.0,0.0,0.0,0.0,0.0,0.0,0.0,0.0,0.0,0.0,0.0,0.0,-3.6584,-3.7458,-3.8337,-3.9626,-4.1168,-4.2903,-4.3548,-4.4036,-4.5597,-4.6163,-4.63,-4.63,-4.63,-4.63,-4.63,-4.63,0.0,0.0,-4.6211,-4.6189,-4.6138,0.0,0.0,0.0,0.0,0.0,0.0,0.0,0.0,0.0,0.0,0.0,0.0,0.0,0.0,0.0,0.0,0.0,-5.2921,-5.244,-5.2054,-5.1899,-5.0951,-5.0429,-5.0429,-4.9809,-4.9509,-4.9509,-4.9509,-4.9509,-4.949,-4.923,-4.9094,-4.9094,-4.8802,0.0,0.0,-4.7932,-4.7296,-4.6486,-4.6305,-4.5624,-4.4718,-4.4677,-4.4068,-4.3221,0.0,0.0,0.0,0.0,0.0,0.0,0.0,-3.0713,-3.0732,-3.0782,-3.0793,-3.0798,-3.0799,-3.08,-3.08,0.0,0.0,0.0,0.0,0.0,0.0,0.0,0.0,0.0,0.0,0.0,0.0,0.0,0.0,0.0,0.0,0.0,0.0,0.0,0.0,0.0,0.0,0.0,0.0,0.0,0.0,0.0,0.0,0.0,0.0,0.0,0.0,0.0,0.0,0.0,0.0,-3.7458,-3.8337,-3.9216,-4.0268,-4.2006,0.0,0.0,-4.4855,-4.5695,-4.63,-4.63,-4.63,-4.63,-4.63,0.0,0.0,-4.6285,-4.6245,-4.6191,-4.6191,-4.6134,-4.6098,0.0,0.0,0.0,0.0,0.0,0.0,0.0,0.0,0.0,0.0,0.0,0.0,0.0,0.0,0.0,-5.1999,-5.1517,-5.1207,-5.118,-5.0157,-4.9602,-4.9602,-4.9546,-4.9509,-4.9509,-4.9509,-4.9509,-4.9509,-4.9459,-4.9459,-4.9443,-4.9113,0.0,0.0,-4.7443,-4.6805,-4.6432,-4.5707,-4.4891,-4.4145,-4.3964,-4.338,-4.2658,0.0,0.0,0.0,0.0,0.0,0.0,-3.0689,-3.0737,-3.0771,-3.0806,-3.0801,-3.0803,-3.0804,-3.0795,-3.0793,0.0,0.0,0.0,0.0,0.0,0.0,0.0,0.0,0.0,0.0,0.0,0.0,0.0,0.0,0.0,0.0,0.0,0.0,0.0,0.0,0.0,0.0,0.0,0.0,0.0,0.0,0.0,0.0,0.0,0.0,0.0,0.0,0.0,0.0,0.0,0.0,0.0,-3.8162,-3.8825,0.0,0.0,-4.265,-4.3216,-4.4621,-4.5246,-4.5636,-4.6163,-4.63,-4.63,-4.63,0.0,-4.63,-4.63,-4.6272,-4.6244,-4.6211,-4.6186,-4.614,0.0,0.0,0.0,0.0,0.0,0.0,0.0,0.0,0.0,0.0,0.0,0.0,0.0,0.0,0.0,-5.148,-5.1086,-5.0823,-5.073,-5.0047,-4.9679,-4.9679,-4.9563,-4.9509,-4.9509,-4.9509,-4.9509,-4.9509,-4.9509,-4.9509,-4.949,-4.9361,0.0,0.0,-4.7443,-4.6452,-4.5235,-4.4771,-4.4077,-4.3371,-4.3275,-4.3057,-4.2767,0.0,0.0,0.0,0.0,0.0,-3.0622,-3.0686,-3.0743,-3.078,-3.078,-3.0781,-3.0806,-3.0798,-3.0794,-3.0801,-3.08,0.0,0.0,0.0,0.0,0.0,0.0,0.0,0.0,0.0,0.0,0.0,0.0,0.0,0.0,0.0,0.0,0.0,0.0,0.0,0.0,0.0,0.0,0.0,0.0,0.0,0.0,0.0,0.0,0.0,0.0,0.0,0.0,0.0,0.0,0.0,0.0,0.0,0.0,0.0,0.0,-4.2201,-4.2669,-4.3897,-4.4426,-4.4816,-4.5695,-4.5929,-4.5987,0.0,0.0,-4.5929,-4.5929,-4.5714,-4.5605,-4.5816,-4.5839,-4.5876,0.0,0.0,0.0,0.0,0.0,0.0,0.0,0.0,0.0,0.0,0.0,0.0,0.0,0.0,0.0,-5.1202,-5.0954,-5.0741,-5.0558,-5.0068,-4.983,-4.987,-4.9615,-4.9521,-4.9567,-4.9521,-4.9509,-4.9509,-4.9509,-4.9509,-4.949,-4.9227,0.0,0.0,-4.7058,-4.5878,-4.4455,-4.4015,-4.3465,-4.2901,-4.2901,-4.2901,-4.2901,0.0,0.0,0.0,0.0,0.0,0.0,0.0,-3.0704,-3.0703,-3.0703,-3.0752,-3.0798,-3.0798,-3.0792,-3.08,-3.0801,0.0,0.0,0.0,0.0,0.0,0.0,0.0,0.0,0.0,0.0,0.0,0.0,0.0,0.0,0.0,0.0,0.0,0.0,0.0,0.0,0.0,0.0,0.0,0.0,0.0,0.0,0.0,0.0,0.0,0.0,0.0,0.0,0.0,0.0,0.0,0.0,0.0,0.0,0.0,0.0,-4.1713,-4.2396,-4.2415,-4.306,-4.3918,-4.4797,-4.501,-4.5246,0.0,0.0,-4.501,-4.501,-4.4328,-4.3997,-4.4855,-4.4955,-4.5195,-4.6055,0.0,0.0,0.0,0.0,0.0,0.0,0.0,0.0,0.0,0.0,0.0,0.0,0.0,0.0,-5.1202,-5.1133,-5.0976,-5.0705,-5.0102,-4.987,-5.0,-4.9673,-4.9567,-4.9692,-4.9567,-4.9509,-4.9509,-4.9509,-4.9509,0.0,0.0,0.0,0.0,-4.6012,-4.4998,-4.4419,-4.3614,-4.3142,-4.2901,-4.2901,-4.2901,-4.2901,0.0,0.0,0.0,0.0,0.0,0.0,0.0,-3.0731,-3.0777,-3.0776,-3.0781,-3.0795,-3.0795,-3.0798,-3.08,-3.08,0.0,0.0,0.0,0.0,0.0,0.0,0.0,0.0,0.0,0.0,0.0,0.0,0.0,0.0,0.0,0.0,0.0,0.0,0.0,0.0,0.0,0.0,0.0,0.0,0.0,0.0,0.0,0.0,0.0,0.0,0.0,0.0,0.0,0.0,0.0,0.0,0.0,0.0,0.0,0.0,0.0,0.0,-4.224,-4.2591,-4.3021,-4.3899,-4.4114,-4.4172,-4.4465,0.0,-4.4114,-4.4114,-4.3899,-4.3977,-4.4836,-4.498,-4.5246,-4.6074,-4.619,0.0,0.0,0.0,0.0,0.0,0.0,0.0,0.0,0.0,0.0,0.0,0.0,0.0,-5.1202,-5.1133,-5.1063,-5.0971,-5.0615,-5.042,-5.041,-5.0,-4.98,-4.9822,-4.9604,-4.9509,-4.9509,-4.9509,-4.9171,0.0,0.0,0.0,0.0,-4.5587,-4.4891,-4.4161,-4.3534,-4.3249,-4.3142,-4.2976,-4.3244,-4.3715,0.0,0.0,0.0,0.0,0.0,0.0,0.0,-3.0751,-3.0755,-3.0752,-3.078,-3.0794,-3.0794,-3.0798,-3.08,-3.08,0.0,0.0,0.0,0.0,0.0,0.0,0.0,0.0,0.0,0.0,0.0,0.0,0.0,0.0,0.0,0.0,0.0,0.0,0.0,0.0,0.0,0.0,0.0,0.0,0.0,0.0,-3.1383,0.0,0.0,0.0,0.0,0.0,0.0,0.0,0.0,0.0,0.0,0.0,0.0,0.0,-3.9057,0.0,0.0,-4.1654,-4.2123,-4.2982,-4.3216,0.0,0.0,0.0,-4.3216,-4.3216,-4.2942,-4.3099,-4.4289,-4.4504,-4.4881,-4.6049,-4.6246,0.0,0.0,0.0,0.0,0.0,0.0,0.0,0.0,0.0,0.0,0.0,0.0,0.0,-5.1202,-5.1165,-5.114,-5.1101,-5.0844,-5.0696,-5.0678,-5.0248,-5.0038,-4.9968,-4.9736,-4.9405,-4.9002,-4.9002,-4.8551,0.0,0.0,0.0,0.0,-4.52,-4.4632,-4.4097,-4.4077,-4.3935,-4.3761,-4.3943,-4.4229,-4.4548,0.0,0.0,0.0,0.0,0.0,0.0,0.0,0.0,-3.0703,-3.0709,-3.0754,-3.0799,-3.0799,-3.0794,-3.08,-3.08,0.0,0.0,0.0,0.0,0.0,0.0,0.0,0.0,0.0,0.0,0.0,-3.0798,-3.0798,-3.0799,-3.08,0.0,0.0,0.0,0.0,0.0,0.0,-3.0801,-3.0836,-3.0894,-3.089,-3.1402,0.0,0.0,0.0,0.0,0.0,0.0,0.0,0.0,0.0,0.0,0.0,0.0,0.0,0.0,0.0,0.0,0.0,0.0,0.0,0.0,0.0,0.0,0.0,0.0,0.0,-4.2318,-4.1654,-4.1636,-4.3374,-4.3705,-4.427,-4.6027,-4.63,0.0,0.0,0.0,0.0,0.0,0.0,0.0,0.0,0.0,0.0,0.0,0.0,0.0,-5.1202,-5.1202,-5.1165,-5.1101,-5.0856,-5.0767,-5.0819,-5.048,-5.0248,-5.0045,-4.9822,-4.9155,-4.8145,-4.8116,-4.7669,0.0,0.0,0.0,0.0,-4.4871,-4.4443,-4.4289,-4.5078,-4.507,-4.4711,-4.5517,-4.562,-4.5399,0.0,0.0,0.0,0.0,0.0,0.0,0.0,0.0,0.0,0.0,-3.0792,-3.0803,-3.0795,-3.0799,-3.08,0.0,0.0,0.0,0.0,0.0,0.0,0.0,0.0,0.0,0.0,0.0,0.0,-3.0724,-3.0724,-3.0758,-3.08,-3.08,0.0,0.0,0.0,-3.08,-3.0803,-3.0801,-3.1188,-3.1794,-3.1789,-3.2324,0.0,0.0,0.0,0.0,-3.5693,-3.5958,0.0,0.0,0.0,0.0,0.0,0.0,0.0,0.0,-3.691,-3.763,-3.7828,0.0,-4.0151,-4.0366,-4.0912,0.0,0.0,0.0,0.0,0.0,0.0,0.0,0.0,-4.3705,-4.427,-4.6027,-4.63,0.0,0.0,0.0,0.0,0.0,0.0,0.0,0.0,0.0,0.0,0.0,0.0,-5.1196,-5.1208,-5.1202,-5.1165,-5.1101,-5.1082,-5.1063,-5.103,-5.0753,-5.0285,-4.9622,-4.9129,-4.8421,-4.7572,-4.7386,-4.6824,0.0,0.0,0.0,-4.482,-4.5247,-4.5387,-4.539,-4.6047,-4.6057,-4.5732,-4.5773,-4.5985,-4.6214,0.0,0.0,0.0,0.0,0.0,0.0,0.0,0.0,0.0,0.0,0.0,0.0,0.0,0.0,0.0,0.0,0.0,0.0,0.0,0.0,0.0,0.0,0.0,0.0,0.0,0.0,0.0,0.0,0.0,-3.0699,0.0,0.0,0.0,0.0,-3.1211,-3.1407,-3.1427,-3.1815,-3.2265,-3.2693,-3.2698,0.0,0.0,0.0,0.0,0.0,-3.583,-3.5955,0.0,-3.5979,-3.6007,-3.5995,0.0,0.0,0.0,0.0,-3.6339,-3.6707,-3.6693,-3.7946,-3.9331,-3.9702,-4.0151,-4.06,0.0,0.0,0.0,0.0,0.0,0.0,0.0,0.0,0.0,0.0,-4.63,0.0,0.0,0.0,0.0,0.0,0.0,0.0,0.0,0.0,0.0,0.0,0.0,-5.0049,-5.0053,-5.0026,-4.9992,-4.9955,-4.9986,-5.0175,-5.0494,-5.0356,-4.9811,-4.8902,-4.8538,-4.7827,-4.6809,-4.666,-4.6257,0.0,0.0,0.0,-4.5683,-4.6129,-4.6298,-4.6377,-4.7064,-4.7059,-4.6687,-4.6967,-4.7068,-4.7065,0.0,0.0,0.0,0.0,0.0,0.0,0.0,0.0,0.0,0.0,0.0,0.0,0.0,0.0,0.0,0.0,0.0,0.0,0.0,0.0,0.0,0.0,0.0,0.0,0.0,0.0,0.0,0.0,0.0,0.0,0.0,0.0,-3.1122,0.0,-3.1973,-3.2304,-3.2345,-3.308,-3.3476,-3.3593,-3.3607,0.0,0.0,0.0,0.0,0.0,0.0,0.0,0.0,-3.5975,-3.5984,-3.6007,-3.6006,0.0,0.0,0.0,0.0,0.0,-3.6006,-3.7085,-3.8396,-3.9214,-3.9605,-3.9995,0.0,0.0,0.0,0.0,0.0,0.0,0.0,0.0,0.0,0.0,0.0,0.0,0.0,0.0,0.0,0.0,0.0,0.0,0.0,0.0,0.0,0.0,0.0,-4.8707,-4.8705,-4.8652,-4.8616,-4.8599,-4.8599,-4.886,-4.9413,-4.9549,-4.9078,-4.8052,-4.7968,-4.7319,-4.6222,-4.6174,-4.6101,-4.5951,0.0,0.0,-4.7012,-4.7143,-4.7181,-4.7256,-4.8082,-4.8047,-4.7644,-4.8401,-4.8268,-4.7762,0.0,0.0,0.0,0.0,0.0,0.0,0.0,0.0,0.0,0.0,0.0,0.0,0.0,0.0,0.0,0.0,0.0,0.0,0.0,0.0,0.0,0.0,0.0,0.0,0.0,0.0,0.0,0.0,0.0,0.0,-3.2905,-3.2905,-3.2931,-3.3006,-3.3143,-3.3201,-3.3202,-3.3334,-3.3826,-3.451,-3.4508,0.0,0.0,0.0,0.0,0.0,0.0,0.0,0.0,-3.5907,-3.5958,-3.6007,-3.5999,0.0,0.0,0.0,0.0,0.0,-3.6001,-3.6202,-3.6617,-3.7477,-3.8746,-3.9839,0.0,0.0,0.0,0.0,0.0,0.0,0.0,0.0,0.0,0.0,0.0,0.0,0.0,0.0,0.0,0.0,0.0,0.0,0.0,0.0,0.0,0.0,0.0,0.0,-4.869,-4.869,-4.8651,-4.8605,-4.8599,-4.8308,-4.7695,-4.8419,-4.833,-4.7433,-4.72,-4.6989,-4.6777,-4.6541,-4.6687,-4.7132,0.0,-4.7097,-4.7049,-4.7725,-4.8007,-4.8101,-4.8964,-4.9057,-4.8756,-4.8903,-4.8569,-4.8014,0.0,0.0,0.0,0.0,0.0,0.0,0.0,0.0,0.0,0.0,0.0,0.0,0.0,0.0,0.0,0.0,0.0,0.0,0.0,0.0,0.0,0.0,0.0,0.0,0.0,0.0,0.0,0.0,0.0,-3.3005,-3.3142,-3.3242,-3.3324,-3.3368,-3.3877,-3.41,-3.4139,-3.4615,-3.5027,-3.5359,0.0,0.0,0.0,0.0,0.0,0.0,0.0,0.0,0.0,0.0,-3.5936,-3.6007,-3.5997,0.0,0.0,0.0,0.0,0.0,-3.5999,-3.6006,-3.6207,-3.7087,-3.8238,-3.939,0.0,0.0,0.0,0.0,0.0,0.0,0.0,0.0,0.0,0.0,0.0,0.0,0.0,0.0,0.0,0.0,0.0,0.0,0.0,0.0,0.0,0.0,0.0,0.0,-4.7357,-4.7306,-4.7288,-4.7246,-4.7213,-4.7007,-4.6599,-4.6987,-4.6987,-4.6599,-4.6958,-4.704,-4.692,-4.7264,-4.766,-4.8042,0.0,-4.8148,-4.8382,-4.8758,-4.8908,-4.8945,-4.934,-4.9295,-4.8974,-4.8837,-4.8495,-4.8094,0.0,0.0,0.0,0.0,0.0,0.0,0.0,0.0,0.0,0.0,0.0,0.0,0.0,0.0,0.0,0.0,0.0,0.0,0.0,0.0,0.0,0.0,0.0,0.0,0.0,0.0,-3.418,-3.3506,-3.3506,-3.353,-3.3615,-3.3778,-3.3882,-3.3938,-3.4661,-3.4991,-3.5057,-3.5719,-3.5973,-3.5914,0.0,0.0,0.0,0.0,0.0,0.0,0.0,0.0,0.0,0.0,0.0,0.0,0.0,0.0,0.0,-3.5994,-3.599,-3.5984,-3.5972,-3.5981,-3.6243,-3.7315,0.0,0.0,0.0,0.0,0.0,0.0,0.0,0.0,0.0,0.0,0.0,0.0,0.0,0.0,0.0,0.0,0.0,0.0,0.0,0.0,0.0,0.0,0.0,0.0,0.0,0.0,-4.6191,-4.6145,-4.6114,-4.6102,-4.6059,-4.6027,-4.6002,-4.6002,-4.6002,-4.6021,-4.6888,-4.7307,-4.7342,-4.8176,-4.8758,-4.909,-4.9074,-4.9276,-4.9589,-4.9574,-4.9548,-4.9509,-4.9509,-4.9345,-4.9077,-4.8802,-4.8532,-4.8289,0.0,0.0,0.0,0.0,0.0,0.0,0.0,0.0,0.0,0.0,0.0,0.0,0.0,0.0,0.0,0.0,0.0,0.0,0.0,0.0,0.0,0.0,0.0,0.0,0.0,-3.5404,-3.5385,-3.5308,-3.5308,-3.5342,-3.5414,-3.5489,-3.5592,-3.5713,-3.5777,-3.5843,-3.5914,-3.5973,-3.5992,-3.5994,-3.5987,0.0,0.0,0.0,0.0,0.0,0.0,0.0,0.0,0.0,0.0,0.0,0.0,0.0,-3.5912,-3.5984,-3.596,-3.5912,-3.5912,-3.5947,-3.6389,-3.802,-3.85,0.0,0.0,0.0,0.0,0.0,0.0,0.0,0.0,0.0,0.0,0.0,0.0,0.0,0.0,0.0,0.0,0.0,0.0,0.0,0.0,0.0,0.0,0.0,0.0,0.0,-4.6191,-4.6191,-4.6157,-4.6105,-4.6095,-4.6056,-4.6002,-4.6002,-4.6002,-4.6021,-4.6885,-4.7714,-4.8505,-4.9323,-4.9998,-5.0559,-5.048,-5.0235,-4.9857,-4.9803,-4.9665,-4.9509,-4.9509,-4.9493,-4.9427,-4.9094,-4.8957,-4.8906,0.0,0.0,0.0,0.0,0.0,0.0,0.0,0.0,0.0,0.0,0.0,0.0,0.0,0.0,0.0,0.0,0.0,0.0,0.0,0.0,0.0,0.0,0.0,-3.4276,-3.5462,-3.55,-3.55,-3.55,-3.55,-3.5508,-3.5547,-3.5645,0.0,0.0,-3.5907,-3.5981,-3.5992,-3.5992,-3.5986,-3.5939,-3.5946,-3.5938,0.0,0.0,0.0,0.0,0.0,0.0,0.0,0.0,-3.5963,-3.5962,0.0,-3.5984,-3.5979,-3.5988,-3.5986,-3.5965,-3.5966,-3.5974,-3.6417,-3.8133,0.0,0.0,0.0,0.0,0.0,0.0,0.0,0.0,0.0,0.0,0.0,0.0,0.0,0.0,0.0,0.0,0.0,0.0,0.0,0.0,0.0,0.0,0.0,0.0,0.0,0.0,0.0,-4.6229,-4.619,-4.6156,-4.6154,-4.6147,-4.6125,-4.608,-4.6052,-4.6072,-4.6902,-4.7473,-4.7822,-4.8666,-4.9097,-4.9145,-4.9025,-4.8752,-4.8384,-4.877,-4.8838,-4.8739,-4.9283,-4.9509,-4.9474,-4.9361,-4.9179,-4.8957,0.0,0.0,0.0,0.0,0.0,0.0,0.0,0.0,0.0,0.0,0.0,0.0,0.0,0.0,0.0,0.0,0.0,0.0,0.0,0.0,0.0,0.0,0.0,-3.5391,-3.6269,-3.6019,-3.575,-3.55,-3.55,-3.5508,-3.5534,0.0,0.0,0.0,0.0,-3.5983,-3.5992,-3.5992,-3.5967,-3.5935,-3.5935,-3.5928,0.0,0.0,0.0,0.0,0.0,0.0,0.0,0.0,-3.5994,0.0,0.0,0.0,0.0,-3.6005,-3.598,-3.5975,-3.5999,-3.5999,-3.6414,0.0,0.0,0.0,0.0,0.0,0.0,0.0,0.0,0.0,0.0,0.0,0.0,0.0,0.0,0.0,0.0,0.0,0.0,0.0,0.0,0.0,0.0,0.0,0.0,0.0,0.0,0.0,0.0,-4.6261,-4.6229,-4.6191,-4.6205,-4.6194,-4.6202,-4.6153,-4.6122,-4.6118,-4.6662,-4.7057,-4.7331,-4.8191,-4.8502,-4.8317,-4.8199,-4.7943,-4.7621,-4.8017,-4.8031,-4.7875,-4.8476,-4.872,-4.872,-4.872,-4.8559,-4.8345,0.0,0.0,0.0,0.0,0.0,0.0,0.0,0.0,0.0,0.0,0.0,0.0,0.0,0.0,0.0,0.0,0.0,0.0,0.0,0.0,0.0,0.0,0.0,-3.7123,-3.7969,-3.7142,-3.6308,-3.55,-3.55,-3.5534,-3.5607,-3.5607,0.0,0.0,0.0,0.0,-3.5992,-3.5992,-3.5992,-3.5992,-3.5992,-3.5992,-3.5992,0.0,0.0,0.0,0.0,0.0,0.0,0.0,-3.5996,-3.5992,0.0,0.0,0.0,0.0,-3.5946,-3.5905,-3.5971,-3.6001,-3.6395,0.0,0.0,0.0,0.0,0.0,0.0,0.0,0.0,0.0,0.0,0.0,0.0,0.0,0.0,0.0,0.0,0.0,0.0,0.0,0.0,0.0,0.0,0.0,0.0,0.0,0.0,0.0,0.0,-4.63,-4.6276,-4.6191,-4.6191,-4.6208,-4.6204,-4.6204,-4.6162,-4.6102,-4.6102,-4.6523,-4.7312,-4.8172,-4.858,-4.858,-4.8501,-4.829,-4.7952,-4.7757,-4.7402,-4.7012,-4.7012,-4.7012,-4.7012,-4.7012,-4.7012,-4.7012,0.0,0.0,0.0,0.0,0.0,0.0,0.0,0.0,0.0,0.0,0.0,0.0,0.0,0.0,0.0,0.0,0.0,0.0,0.0,0.0,0.0,0.0,0.0,0.0,0.0,0.0,-3.5731,-3.55,-3.55,-3.5534,0.0,0.0,0.0,-3.5892,0.0,0.0,-3.5992,-3.5992,-3.5992,-3.5992,-3.5992,-3.5992,-3.5992,0.0,0.0,0.0,0.0,0.0,0.0,0.0,0.0,0.0,0.0,0.0,0.0,-3.5995,-3.5956,-3.5917,-3.5974,-3.5972,0.0,0.0,0.0,0.0,0.0,0.0,0.0,0.0,0.0,0.0,0.0,0.0,0.0,0.0,0.0,0.0,0.0,0.0,0.0,0.0,0.0,0.0,0.0,0.0,0.0,0.0,0.0,0.0,0.0,-4.63,-4.6285,-4.6276,-4.6276,-4.6279,-4.6265,-4.6211,-4.6187,-4.6162,-4.6125,-4.6193,-4.6385,-4.6657,-4.6779,-4.6773,-4.6699,-4.6549,-4.6389,-4.6532,-4.6797,-4.7137,-4.7041,-4.7012,-4.7012,-4.7012,-4.7012,-4.6963,0.0,0.0,0.0,0.0,0.0,0.0,0.0,0.0,0.0,0.0,0.0,0.0,0.0,0.0,0.0,0.0,0.0,0.0,0.0,0.0,0.0,0.0,0.0,0.0,0.0,-3.6404,-3.5827,0.0,0.0,0.0,0.0,0.0,0.0,-3.594,0.0,-3.5992,0.0,-3.5992,-3.5992,-3.5992,-3.5992,-3.5992,-3.5992,0.0,0.0,0.0,0.0,0.0,0.0,0.0,0.0,0.0,0.0,0.0,0.0,-3.6006,-3.5968,-3.5948,-3.5995,0.0,0.0,0.0,0.0,0.0,0.0,0.0,0.0,0.0,0.0,0.0,0.0,0.0,0.0,0.0,0.0,0.0,0.0,0.0,0.0,0.0,0.0,0.0,0.0,0.0,0.0,0.0,0.0,0.0,0.0,-4.63,-4.63,-4.63,-4.63,-4.63,-4.63,-4.6259,-4.6229,-4.6191,-4.6153,-4.6092,-4.6041,-4.6003,-4.6002,-4.5997,-4.5925,-4.5821,-4.57,-4.5751,-4.6007,-4.6354,-4.6148,-4.6083,-4.6069,-4.6031,-4.6017,-4.5988,0.0,0.0,0.0,0.0,0.0,0.0,0.0,0.0,0.0,0.0,0.0,0.0,0.0,0.0,0.0,0.0,0.0,0.0,0.0,0.0,0.0,0.0,0.0,0.0,0.0,0.0,0.0,0.0,0.0,0.0,0.0,0.0,-3.5798,-3.5988,0.0,-3.607,-3.6012,-3.607,-3.607,-3.5992,-3.5992,-3.5992,-3.5992,-3.5992,0.0,0.0,0.0,0.0,0.0,0.0,0.0,0.0,-3.5992,-3.5992,-3.5992,-3.5992,-3.6004,-3.5993,0.0,0.0,0.0,0.0,0.0,0.0,0.0,0.0,0.0,0.0,0.0,0.0,0.0,0.0,0.0,0.0,0.0,0.0,0.0,0.0,0.0,0.0,0.0,0.0,0.0,0.0,0.0,0.0,0.0,0.0,0.0,-4.63,-4.63,-4.63,-4.63,-4.63,-4.63,-4.63,-4.6276,-4.6211,-4.6191,-4.6161,-4.6115,-4.6046,-4.6012,-4.5997,-4.5931,-4.5834,-4.5703,-4.5446,-4.5243,-4.5063,-4.4814,-4.4712,-4.4672,-4.4537,-4.4501,-4.4501,0.0,0.0,0.0,0.0,0.0,0.0,0.0,0.0,0.0,0.0,0.0,0.0,0.0,0.0,0.0,0.0,0.0,0.0,0.0,0.0,0.0,0.0,0.0,0.0,0.0,0.0,0.0,0.0,0.0,0.0,0.0,0.0,0.0,-3.5948,0.0,-3.6636,-3.6031,-3.6735,-3.6636,-3.5992,-3.5992,-3.5992,-3.5992,-3.5992,-3.5992,0.0,0.0,0.0,0.0,0.0,0.0,0.0,-3.5992,-3.5992,-3.5992,-3.5992,-3.5968,-3.5926,0.0,0.0,0.0,0.0,0.0,0.0,0.0,0.0,0.0,0.0,0.0,0.0,0.0,0.0,0.0,0.0,0.0,0.0,0.0,0.0,0.0,0.0,0.0,0.0,0.0,0.0,0.0,0.0,0.0,0.0,-4.63,-4.63,-4.63,-4.63,-4.63,-4.63,-4.63,-4.63,-4.6285,0.0,-4.6229,-4.6191,-4.6185,-4.6114,-4.6054,-4.5997,-4.598,-4.5923,-4.5847,-4.5623,-4.5352,-4.5074,-4.4856,-4.4681,-4.4537,-4.4515,-4.4501,-4.4501,0.0,0.0,0.0,0.0,0.0,0.0,0.0,0.0,0.0,0.0,0.0,0.0,0.0,0.0,0.0,0.0,0.0,0.0,0.0,0.0,0.0,0.0,0.0,0.0,0.0,0.0,0.0,0.0,0.0,0.0,0.0,0.0,0.0,-3.6496,0.0,-3.7282,-3.7243,-3.7282,-3.7048,-3.6597,-3.6168,-3.5992,-3.5992,-3.5992,-3.5992,-3.5992,-3.5992,0.0,0.0,0.0,0.0,0.0,0.0,0.0,-3.5992,-3.5992,-3.5986,-3.5962,0.0,0.0,0.0,0.0,0.0,0.0,0.0,0.0,0.0,0.0,0.0,0.0,0.0,0.0,0.0,0.0,0.0,0.0,0.0,0.0,0.0,0.0,0.0,0.0,0.0,0.0,0.0,0.0,0.0,-4.63,-4.63,-4.63,-4.63,-4.63,-4.63,-4.63,-4.63,-4.63,-4.63,-4.63,-4.6258,-4.6228,-4.6191,-4.6138,-4.6056,-4.6002,-4.6002,-4.5975,-4.5943,-4.5801,-4.565,-4.5454,-4.5161,-4.4981,-4.4857,-4.4667,-4.4592,-4.4578,0.0,0.0,0.0,0.0,0.0,0.0,0.0,0.0,0.0,0.0,0.0,0.0,0.0,0.0,0.0,0.0,0.0,0.0,0.0,0.0,0.0,0.0,0.0,0.0,0.0,0.0,0.0,0.0,0.0,0.0,0.0,0.0,0.0,-3.7085,0.0,-3.7902,-3.8552,-3.7985,-3.7555,-3.7243,-3.65,-3.6129,-3.5992,-3.5992,-3.5992,-3.5992,-3.5992,-3.5992,-3.5992,-3.5992,0.0,0.0,0.0,0.0,-3.5992,-3.5992,-3.5992,-3.5992,0.0,0.0,0.0,0.0,0.0,0.0,0.0,0.0,0.0,0.0,0.0,0.0,0.0,0.0,0.0,0.0,0.0,0.0,0.0,0.0,0.0,0.0,0.0,0.0,0.0,0.0,0.0,0.0,0.0,-4.5851,-4.5851,-4.5851,-4.5851,-4.5851,-4.5851,-4.5851,-4.5851,-4.5851,-4.5851,-4.5851,-4.6007,-4.6121,-4.6191,-4.6136,-4.6072,-4.6027,-4.6007,-4.6002,-4.5997,-4.5931,-4.59,-4.5833,-4.5491,-4.5333,-4.5263,-4.4893,-4.4783,-4.4757,0.0,0.0,0.0,0.0,0.0,0.0,0.0,0.0,0.0,0.0,0.0,0.0,0.0,0.0,0.0,0.0,0.0,0.0,0.0,0.0,0.0,0.0,-3.675,0.0,0.0,0.0,0.0,0.0,0.0,0.0,0.0,0.0,0.0,-3.7051,0.0,0.0,-3.863,-3.9214,-3.8629,-3.7282,-3.7165,-3.6677,-3.5992,-3.5992,-3.5992,-3.5992,-3.5992,-3.5992,-3.5992,-3.5992,-3.5992,0.0,0.0,0.0,-3.5992,-3.5992,-3.5992,-3.5992,0.0,0.0,0.0,0.0,0.0,0.0,0.0,0.0,0.0,0.0,0.0,0.0,0.0,0.0,0.0,0.0,0.0,0.0,0.0,0.0,0.0,0.0,0.0,0.0,0.0,0.0,0.0,0.0,-4.4057,-4.4057,-4.4057,-4.4057,-4.4057,-4.4057,-4.4057,-4.4057,-4.4057,-4.4057,-4.4057,-4.4057,-4.4816,-4.5535,-4.6191,-4.619,-4.6147,-4.608,-4.6022,-4.6002,-4.5997,-4.5997,-4.588,-4.5718,-4.5595,-4.5451,-4.5275,-4.5118,-4.506,-4.5026,0.0,0.0,0.0,0.0,0.0,0.0,0.0,0.0,0.0,0.0,0.0,0.0,0.0,0.0,0.0,0.0,0.0,0.0,0.0,0.0,0.0,-3.6058,-3.6038,-3.586,-3.5521,0.0,0.0,0.0,0.0,0.0,0.0,-3.599,-3.6754,0.0,0.0,0.0,0.0,0.0,0.0,-3.7986,-3.7497,0.0,0.0,0.0,-3.5992,-3.5992,-3.5992,-3.5992,-3.5992,-3.5992,-3.5992,-3.5989,-3.5968,0.0,0.0,0.0,0.0,0.0,0.0,0.0,0.0,0.0,0.0,0.0,0.0,0.0,0.0,0.0,0.0,0.0,0.0,0.0,0.0,0.0,0.0,0.0,0.0,0.0,0.0,0.0,0.0,0.0,0.0,0.0,0.0,0.0,-4.3705,-4.3705,-4.3705,-4.3705,-4.3705,-4.3705,-4.3705,-4.3705,-4.3705,-4.3705,-4.3957,-4.4445,-4.5304,-4.5917,-4.6242,-4.623,-4.6157,-4.6098,-4.6064,-4.6036,-4.6002,-4.6005,-4.5953,-4.5854,-4.5801,-4.5703,-4.5599,-4.5409,-4.5274,-4.5191,0.0,0.0,0.0,0.0,0.0,0.0,0.0,0.0,0.0,0.0,0.0,0.0,0.0,0.0,0.0,0.0,0.0,0.0,0.0,0.0,0.0,-3.5546,-3.5501,-3.5521,-3.5522,0.0,0.0,0.0,0.0,0.0,-3.5861,-3.667,-3.7602,0.0,-3.9346,0.0,0.0,0.0,0.0,0.0,0.0,0.0,0.0,0.0,0.0,0.0,-3.5992,-3.5992,-3.5992,-3.5992,-3.5992,-3.5988,-3.594,-3.5929,0.0,0.0,0.0,0.0,0.0,0.0,0.0,0.0,0.0,0.0,0.0,0.0,0.0,0.0,0.0,0.0,0.0,0.0,0.0,0.0,0.0,0.0,0.0,0.0,0.0,0.0,0.0,0.0,0.0,0.0,0.0,0.0,-4.3042,-4.3042,-4.3042,-4.3042,-4.3042,-4.3042,-4.3042,-4.3042,-4.3042,-4.3255,-4.3918,-4.501,-4.5656,-4.6085,-4.6302,-4.6244,-4.6187,-4.6128,-4.6115,-4.6064,-4.6018,-4.6012,-4.6002,-4.5997,-4.5949,-4.5938,-4.5899,-4.5673,-4.5535,-4.5419,0.0,0.0,0.0,0.0,0.0,0.0,0.0,0.0,0.0,0.0,0.0,0.0,0.0,0.0,-3.6363,-3.7282,0.0,0.0,0.0,0.0,0.0,-3.5591,-3.5522,0.0,-3.5591,0.0,0.0,0.0,0.0,0.0,-3.6749,-3.7617,-3.8523,-3.9446,-3.9558,-4.0128,-4.1003,0.0,0.0,0.0,-3.8552,-3.7516,0.0,0.0,0.0,0.0,0.0,0.0,-3.5992,-3.5992,-3.5992,-3.5992,0.0,0.0,0.0,0.0,0.0,0.0,0.0,0.0,0.0,0.0,0.0,0.0,0.0,0.0,0.0,0.0,0.0,0.0,0.0,0.0,0.0,0.0,0.0,0.0,0.0,0.0,0.0,0.0,0.0,0.0,0.0,0.0,0.0,0.0,-4.1246,-4.1246,-4.1246,-4.1246,-4.1246,-4.1246,-4.1246,-4.1246,-4.1246,-4.2045,-4.3313,-4.499,-4.5049,-4.55,-4.63,-4.6302,-4.6261,-4.619,-4.6133,-4.6098,-4.6087,-4.6022,-4.6002,-4.6002,-4.5997,-4.5991,-4.598,-4.5906,-4.586,-4.5826,0.0,0.0,0.0,0.0,0.0,0.0,0.0,0.0,0.0,0.0,0.0,0.0,0.0,-3.5998,-3.635,-3.7223,-3.7175,0.0,0.0,0.0,0.0,-3.5604,-3.5585,-3.5577,-3.5608,0.0,0.0,0.0,0.0,-3.6562,-3.6832,-3.826,-3.911,-3.9468,-4.0141,-4.0648,-4.1,-4.1064,0.0,0.0,-3.937,-3.8687,-3.7672,0.0,0.0,0.0,0.0,0.0,0.0,0.0,0.0,0.0,0.0,0.0,0.0,0.0,0.0,0.0,0.0,0.0,0.0,0.0,0.0,0.0,0.0,0.0,0.0,0.0,0.0,0.0,0.0,0.0,0.0,0.0,0.0,0.0,0.0,0.0,0.0,0.0,0.0,0.0,0.0,0.0,0.0,0.0,0.0,-4.1078,-4.1047,-4.1076,-4.1109,-4.1109,-4.1109,-4.1363,-4.1927,-4.2806,-4.3821,-4.501,-4.5578,-4.6007,-4.63,-4.63,-4.6287,-4.6259,-4.6189,-4.6132,-4.6098,-4.6068,-4.6041,-4.6002,-4.6002,-4.6002,-4.5997,-4.5964,-4.5937,-4.5886,0.0,0.0,0.0,0.0,0.0,0.0,0.0,0.0,0.0,0.0,0.0,0.0,0.0,0.0,-3.6239,-3.6802,-3.6758,-3.6415,-3.5737,-3.5705,-3.5683,-3.5674,-3.565,-3.5621,0.0,0.0,0.0,0.0,0.0,0.0,0.0,-3.8891,-3.9599,-3.9902,-4.0319,-4.0662,0.0,0.0,0.0,-3.9824,0.0,-3.9337,-3.8591,0.0,0.0,0.0,0.0,0.0,0.0,0.0,0.0,0.0,0.0,0.0,0.0,0.0,0.0,0.0,0.0,0.0,0.0,0.0,0.0,0.0,0.0,0.0,0.0,0.0,0.0,0.0,0.0,0.0,0.0,0.0,0.0,0.0,0.0,0.0,0.0,0.0,0.0,0.0,0.0,0.0,0.0,0.0,0.0,0.0,-4.094,-4.1022,-4.107,-4.107,-4.1306,-4.1871,-4.2785,-4.3643,-4.453,-4.5441,-4.6027,-4.63,-4.63,-4.63,-4.63,-4.6302,-4.6242,-4.6209,-4.6121,-4.6118,-4.6068,-4.6032,-4.6012,-4.6002,-4.6002,-4.6002,-4.5964,-4.5925,0.0,0.0,0.0,0.0,0.0,0.0,0.0,0.0,0.0,0.0,0.0,0.0,0.0,0.0,0.0,-3.5991,-3.5931,-3.5894,-3.5901,-3.5772,-3.5746,-3.5791,0.0,0.0,0.0,0.0,0.0,0.0,0.0,0.0,0.0,0.0,-3.9952,-4.0732,-3.9988,-4.0104,-4.0883,0.0,-4.0637,-3.9949,0.0,-3.9422,-3.8671,0.0,0.0,0.0,-3.8638,-3.8621,0.0,-3.7611,0.0,0.0,0.0,0.0,0.0,0.0,0.0,0.0,0.0,0.0,0.0,0.0,0.0,0.0,0.0,0.0,0.0,0.0,0.0,0.0,0.0,0.0,0.0,0.0,0.0,0.0,0.0,0.0,0.0,0.0,0.0,0.0,0.0,0.0,0.0,0.0,-4.0863,-4.0791,-4.081,-4.0933,-4.099,-4.0987,-4.1691,-4.2566,-4.3588,-4.4361,-4.5273,-4.63,-4.63,-4.63,-4.63,-4.63,-4.63,-4.63,-4.63,-4.6258,-4.6191,-4.6138,-4.6105,-4.6091,-4.6027,-4.6002,-4.6002,-4.6002,-4.6002,-4.5986,0.0,0.0,0.0,0.0,0.0,0.0,0.0,0.0,0.0,0.0,0.0,0.0,0.0,0.0,-3.5992,-3.5994,-3.5972,-3.5944,-3.5903,-3.5919,-3.5874,-3.5794,-3.5829,0.0,0.0,0.0,0.0,0.0,0.0,0.0,0.0,0.0,0.0,0.0,-3.9165,-3.9312,-4.0114,-4.0205,0.0,0.0,-4.0775,-4.0618,0.0,0.0,0.0,0.0,0.0,-3.9133,-3.8567,0.0,-3.8236,-3.8094,0.0,0.0,0.0,0.0,0.0,0.0,-3.5992,0.0,0.0,0.0,0.0,0.0,0.0,0.0,0.0,0.0,0.0,0.0,0.0,0.0,0.0,0.0,0.0,0.0,0.0,0.0,0.0,0.0,0.0,0.0,0.0,0.0,0.0,0.0,-4.0604,-4.0898,-4.0815,-4.0933,-4.0967,-4.085,-4.1155,-4.2045,-4.3588,-4.3822,-4.473,-4.63,-4.63,-4.63,-4.63,-4.63,-4.63,-4.63,-4.63,-4.6287,-4.6277,-4.619,-4.6136,-4.6098,-4.6076,-4.6046,-4.6002,-4.6002,-4.6002,-4.5997,0.0,0.0,0.0,0.0,0.0,0.0,0.0,0.0,0.0,0.0,0.0,0.0,0.0,0.0,-3.6151,-3.6503,-3.6543,-3.6677,-3.7001,-3.7068,-3.7048,-3.6965,-3.6986,-3.7196,0.0,0.0,0.0,0.0,0.0,0.0,0.0,0.0,0.0,0.0,0.0,0.0,0.0,0.0,0.0,0.0,-4.113,0.0,0.0,-4.1108,-4.0815,0.0,0.0,0.0,-3.9586,-3.9256,-3.8668,0.0,0.0,0.0,0.0,0.0,0.0,0.0,0.0,0.0,0.0,0.0,0.0,0.0,-3.5992,-3.5992,0.0,0.0,0.0,0.0,0.0,0.0,0.0,0.0,0.0,0.0,0.0,0.0,0.0,0.0,0.0,0.0,0.0,0.0,0.0,-3.915,-3.9586,-3.996,-4.0247,-4.0612,-4.0781,-4.081,-4.115,-4.1883,-4.3043,-4.3362,-4.424,-4.5667,-4.5667,-4.5863,-4.6214,-4.6214,-4.6245,-4.63,-4.63,-4.63,-4.6302,-4.6261,-4.6209,-4.613,-4.6102,-4.6072,-4.6041,-4.6017,-4.6002,-4.6002,0.0,0.0,0.0,0.0,0.0,0.0,0.0,0.0,0.0,0.0,0.0,0.0,0.0,0.0,0.0,0.0,-3.7441,-3.7773,-3.8555,-3.8594,-3.8594,-3.8594,-3.8547,-3.8557,-3.8655,0.0,0.0,0.0,0.0,0.0,0.0,0.0,0.0,0.0,0.0,0.0,0.0,0.0,0.0,-4.1112,-4.1172,-4.1151,0.0,0.0,-4.1111,0.0,-4.1111,-4.1112,-4.0995,-4.0273,-3.8944,0.0,0.0,0.0,0.0,0.0,-3.5994,0.0,0.0,0.0,0.0,0.0,0.0,0.0,-3.5992,-3.5992,-3.5998,0.0,0.0,0.0,0.0,0.0,0.0,0.0,0.0,0.0,0.0,0.0,0.0,0.0,0.0,0.0,0.0,-3.824,-3.8266,-3.8264,-3.8244,-3.8559,-3.9306,-3.9908,-4.0359,-4.0626,-4.1228,-4.177,-4.2266,-4.2922,-4.3723,-4.4673,-4.4743,-4.5191,-4.5962,-4.6059,-4.6173,-4.6275,-4.6298,-4.63,-4.63,-4.63,-4.6259,-4.6191,-4.6123,-4.6115,-4.6091,-4.6032,-4.6012,-4.6002,0.0,0.0,0.0,0.0,0.0,0.0,0.0,0.0,0.0,0.0,0.0,0.0,0.0,0.0,0.0,0.0,-3.8359,-3.8418,-3.8594,-3.8594,-3.8594,-3.8594,-3.8593,-3.8905,-3.9608,-3.9607,0.0,0.0,0.0,0.0,0.0,0.0,0.0,0.0,0.0,0.0,0.0,0.0,0.0,-4.1172,-4.1191,0.0,-4.1172,-4.1172,-4.1172,-4.1172,-4.1172,-4.1172,-4.1152,0.0,-4.0213,-3.9275,0.0,0.0,0.0,0.0,0.0,0.0,0.0,0.0,0.0,0.0,0.0,0.0,-3.5992,-3.5992,-3.5994,0.0,0.0,0.0,0.0,0.0,0.0,0.0,0.0,0.0,0.0,0.0,0.0,0.0,0.0,0.0,0.0,-3.705,-3.7437,-3.744,-3.8004,-3.836,-3.8375,-3.8539,-3.8938,-3.9573,-3.976,-4.0602,-4.2116,-4.2228,-4.2805,-4.3838,-4.4435,-4.4848,-4.5082,-4.5787,-4.6109,-4.6144,-4.6247,-4.63,-4.63,-4.63,-4.6259,-4.6191,-4.6189,-4.6142,-4.6098,-4.6084,-4.605,-4.6002,0.0,0.0,0.0,0.0,0.0,0.0,0.0,0.0,0.0,0.0,0.0,0.0,0.0,0.0,0.0,0.0,0.0,0.0,0.0,0.0,-3.9902,-3.9902,-3.9902,-3.9902,-3.9902,-3.9902,0.0,0.0,0.0,0.0,0.0,0.0,0.0,0.0,0.0,0.0,0.0,0.0,-3.9609,-4.1191,-4.1191,0.0,-4.1191,-4.1191,-4.1191,-4.1191,-4.1191,-4.1191,-4.1191,-4.1152,-4.0585,0.0,0.0,-3.8355,-3.7202,0.0,-3.6341,-3.6008,0.0,0.0,0.0,-3.6,0.0,0.0,0.0,-3.5992,-3.5992,0.0,0.0,0.0,0.0,0.0,0.0,0.0,0.0,0.0,0.0,0.0,0.0,0.0,0.0,0.0,0.0,-3.6302,-3.6557,-3.6543,-3.729,-3.7719,-3.7617,-3.7956,-3.834,-3.8746,-3.8697,-3.9335,-4.0742,-4.0693,-4.1344,-4.2717,-4.3088,-4.3728,-4.4614,-4.5123,-4.5603,-4.6057,-4.6184,-4.6245,-4.6245,-4.6245,-4.6239,-4.6198,-4.619,-4.6187,-4.616,-4.6105,-4.6076,-4.605,0.0,0.0,0.0,0.0,0.0,0.0,0.0,0.0,0.0,0.0,0.0,0.0,0.0,0.0,0.0,0.0,0.0,0.0,0.0,0.0,0.0,-4.1191,-4.1035,-4.0625,-3.9922,-3.9746,-3.9219,0.0,0.0,0.0,0.0,0.0,0.0,0.0,0.0,0.0,0.0,0.0,0.0,-4.1191,0.0,-4.1191,-4.1191,-4.1191,-4.1191,-4.1191,-4.1191,-4.1191,-4.1191,-4.1191,0.0,-4.0116,-3.994,-3.8827,0.0,0.0,0.0,0.0,0.0,0.0,0.0,0.0,0.0,-3.6004,0.0,0.0,0.0,0.0,0.0,0.0,0.0,0.0,0.0,0.0,0.0,0.0,0.0,0.0,0.0,0.0,0.0,0.0,0.0,-3.5791,-3.5894,-3.5904,-3.6508,-3.6864,-3.6829,-3.7323,-3.7724,-3.7947,-3.7742,-3.8132,-3.9113,-3.9065,-3.9795,-4.1321,-4.1465,-4.2456,-4.4164,-4.4447,-4.5074,-4.5978,-4.6102,-4.6178,-4.6206,-4.6206,-4.6206,-4.6194,-4.6201,-4.6209,-4.6191,-4.6136,-4.612,-4.6099,-3.5807,-3.5809,0.0,0.0,0.0,0.0,0.0,0.0,0.0,0.0,0.0,0.0,0.0,0.0,0.0,0.0,0.0,0.0,-4.1093,0.0,0.0,-4.1191,-4.0469,-4.0,-3.9902,-3.9141,-3.832,0.0,0.0,0.0,0.0,0.0,0.0,0.0,-3.5996,0.0,0.0,0.0,-3.9609,0.0,-4.1191,-4.1191,0.0,-4.1191,-4.1191,-4.1191,-4.1191,-4.1191,-4.1191,0.0,-4.1133,-4.0918,0.0,-3.9238,-3.8301,0.0,0.0,0.0,0.0,0.0,0.0,0.0,-3.5991,0.0,0.0,0.0,0.0,0.0,0.0,0.0,0.0,0.0,0.0,0.0,0.0,0.0,0.0,0.0,0.0,0.0,0.0,0.0,0.0,0.0,-3.5889,-3.5892,-3.5983,-3.5973,-3.5861,-3.5873,-3.6245,-3.7022,-3.6839,-3.721,-3.8157,-3.8089,-3.8577,-3.9585,-4.0261,-4.1492,-4.3262,-4.4063,-4.4929,-4.5819,-4.5954,-4.6095,-4.6206,-4.6206,-4.6206,-4.6209,-4.6197,-4.6204,-4.6206,-4.6189,-4.615,-4.609,-3.5726,-3.5746,0.0,0.0,0.0,0.0,0.0,0.0,0.0,0.0,0.0,0.0,0.0,0.0,0.0,0.0,0.0,-4.1072,0.0,0.0,0.0,0.0,0.0,0.0,-3.9902,-3.9043,-3.8164,-3.7305,-3.6797,0.0,0.0,0.0,0.0,0.0,-3.5996,0.0,-3.8594,0.0,0.0,0.0,0.0,0.0,0.0,-4.1191,-4.1191,-4.1191,-4.1191,-4.1191,-4.1191,0.0,-4.1191,0.0,0.0,0.0,0.0,0.0,0.0,0.0,0.0,0.0,0.0,0.0,0.0,0.0,-3.5991,0.0,-3.5754,0.0,0.0,0.0,0.0,0.0,0.0,0.0,0.0,0.0,0.0,0.0,0.0,0.0,0.0,0.0,0.0,0.0,0.0,0.0,-3.5908,-3.5878,-3.583,-3.5713,-3.581,-3.6135,-3.599,-3.6293,-3.7114,-3.7097,-3.7526,-3.8385,-3.8695,-3.9768,-4.1505,-4.2417,-4.3594,-4.4981,-4.5687,-4.5745,-4.534,-4.5404,-4.5147,-4.4699,-4.4699,-4.4997,-4.5441,-4.5458,-4.5116,-4.4648,-3.563,0.0,0.0,0.0,0.0,0.0,0.0,0.0,0.0,0.0,0.0,0.0,-4.1301,-4.1598,0.0,0.0,-4.1719,-4.1619,0.0,0.0,-4.1317,0.0,0.0,0.0,0.0,0.0,-3.8164,-3.7304,0.0,0.0,0.0,0.0,0.0,0.0,0.0,-3.6952,-3.8551,0.0,0.0,-4.1081,-4.1037,-4.1027,-4.1055,-4.1119,-4.1144,-4.1144,-4.1144,-4.1144,-4.1144,-4.1144,-4.1144,0.0,-4.1144,0.0,0.0,0.0,0.0,0.0,-3.6208,0.0,0.0,0.0,0.0,0.0,0.0,0.0,0.0,0.0,0.0,0.0,0.0,0.0,0.0,0.0,0.0,0.0,0.0,0.0,0.0,0.0,0.0,0.0,0.0,0.0,0.0,-3.548,-3.5538,-3.5655,-3.5889,-3.5764,-3.5687,-3.5635,-3.5519,-3.5692,-3.6192,-3.6192,-3.6589,-3.7368,-3.7368,-3.8266,-3.9966,-4.0893,-4.2148,-4.3649,-4.475,-4.4866,-4.4295,-4.444,-4.4121,-4.3553,-4.3553,-4.3819,-4.4211,-4.4461,-4.4142,-4.3601,-3.5514,-3.556,0.0,0.0,0.0,0.0,0.0,0.0,0.0,0.0,0.0,0.0,0.0,0.0,0.0,0.0,0.0,-4.2898,-4.2115,0.0,-4.176,0.0,0.0,-3.9877,0.0,0.0,0.0,0.0,0.0,0.0,0.0,0.0,0.0,0.0,0.0,-3.6908,-3.8417,-3.8417,-3.934,-4.0809,-4.0805,-4.0855,-4.0915,0.0,-4.1016,-4.1016,-4.1016,0.0,0.0,-4.1016,-4.1016,0.0,0.0,0.0,0.0,0.0,0.0,0.0,0.0,0.0,0.0,-3.5976,0.0,0.0,0.0,0.0,-3.5506,0.0,0.0,0.0,0.0,0.0,0.0,0.0,0.0,0.0,0.0,0.0,0.0,0.0,0.0,0.0,0.0,0.0,0.0,-3.4586,-3.4645,-3.5012,-3.585,-3.5764,-3.5693,-3.5693,-3.564,-3.5544,-3.543,-3.5449,-3.5813,-3.6538,-3.6538,-3.7417,-3.9069,-3.9947,-4.0868,-4.1828,-4.2844,-4.3279,-4.3266,-4.3382,-4.3423,-4.3404,-4.3404,-4.2991,-4.2494,-4.3332,-4.362,-4.3599,0.0,0.0,0.0,0.0,0.0,0.0,0.0,-4.0249,0.0,0.0,0.0,0.0,0.0,0.0,-4.3322,0.0,0.0,-4.3175,-4.292,-4.2925,0.0,0.0,0.0,-4.1064,0.0,0.0,0.0,0.0,0.0,0.0,0.0,0.0,0.0,0.0,0.0,-3.6881,0.0,0.0,0.0,0.0,0.0,-4.0762,-4.0833,0.0,0.0,-4.099,-4.099,-4.099,0.0,-4.099,-4.099,-4.099,-4.099,-4.0796,-4.0289,-3.8828,-3.8185,0.0,0.0,0.0,-3.5849,-3.5922,0.0,0.0,0.0,0.0,0.0,0.0,0.0,0.0,0.0,0.0,0.0,0.0,0.0,0.0,0.0,0.0,0.0,0.0,0.0,0.0,0.0,0.0,0.0,-3.3748,-3.4294,-3.472,-3.5012,-3.5538,-3.5794,-3.5698,-3.5687,-3.559,-3.5398,-3.5398,-3.5475,-3.5641,-3.5641,-3.6233,-3.7379,-3.8801,-3.9927,-4.0858,-4.2486,-4.2825,-4.2213,-4.2446,-4.2174,-4.1623,-4.1718,-4.1591,-4.1485,-4.2396,-4.24,-4.1958,-3.53,0.0,0.0,0.0,0.0,0.0,0.0,0.0,0.0,0.0,-4.2987,0.0,-4.3698,0.0,-4.4157,0.0,-4.415,-4.4027,-4.3704,-4.3705,0.0,-4.2034,-4.2053,0.0,0.0,0.0,0.0,0.0,0.0,-3.7094,0.0,0.0,0.0,0.0,0.0,0.0,-3.8286,0.0,-3.9228,0.0,0.0,-4.0674,0.0,0.0,-4.0852,-4.0918,0.0,-4.0863,-4.0863,-4.0863,-4.0867,-4.0896,-4.0896,-4.09,-4.0598,-3.8848,-3.8323,-3.7957,-3.6236,-3.5756,0.0,-3.5847,-3.5857,0.0,-3.5951,0.0,0.0,0.0,0.0,0.0,0.0,0.0,0.0,0.0,0.0,0.0,0.0,-3.0892,0.0,0.0,0.0,0.0,0.0,0.0,-3.2008,-3.2871,-3.3417,-3.3963,0.0,0.0,-3.5541,-3.5764,-3.5764,-3.5696,-3.5518,-3.5476,-3.5398,-3.5258,-3.5215,-3.5488,-3.608,-3.7474,-3.8572,-3.9469,-4.1074,-4.1551,-4.1223,-4.1435,-4.117,-4.0636,-4.079,-4.0854,-4.098,-4.1629,-4.1555,-4.1107,0.0,0.0,0.0,0.0,-3.8214,0.0,0.0,0.0,-4.2003,0.0,-4.3496,-4.4457,-4.4469,-4.519,-4.57,-4.57,-4.57,0.0,-4.4506,-4.4529,0.0,0.0,-4.2061,-4.1704,-4.0765,0.0,0.0,0.0,0.0,0.0,0.0,0.0,0.0,0.0,-3.5703,0.0,-3.8098,-3.8098,-3.9033,-4.0496,-4.0496,-4.0539,-4.0595,-4.0607,-4.0681,-4.0784,-4.0655,-4.0595,-4.0595,-4.0595,-4.0635,-4.0694,-4.0694,-4.0739,-4.0442,-3.8715,-3.8212,-3.7829,-3.6148,-3.5709,-3.571,-3.5771,0.0,0.0,0.0,0.0,-3.5658,0.0,0.0,0.0,0.0,0.0,0.0,0.0,0.0,0.0,0.0,0.0,0.0,0.0,0.0,0.0,0.0,-3.0791,-3.1131,-3.1977,-3.2072,-3.2793,0.0,0.0,-3.4973,-3.5811,-3.5889,-3.584,-3.5698,-3.5645,-3.5537,-3.5398,-3.5258,-3.5218,-3.5229,-3.6099,-3.6939,-3.7768,-3.8765,-3.9616,-4.0301,-4.0444,-4.0489,-4.0496,-4.0636,-4.0784,-4.0921,-4.1045,-4.1107,-4.1107,-3.6668,-3.736,-3.7998,0.0,-3.919,-4.034,0.0,0.0,0.0,0.0,-4.47,-4.5348,-4.5302,-4.5539,-4.5682,-4.5629,-4.5629,0.0,0.0,0.0,0.0,-4.3701,-4.3123,-4.244,-4.1532,-4.0889,0.0,-3.936,0.0,0.0,-3.6919,0.0,0.0,0.0,0.0,0.0,-3.8096,-3.8096,-3.9026,-4.0496,-4.0496,-4.0566,0.0,0.0,-4.0615,-4.0709,-4.0636,-4.0595,-4.0595,-4.0595,-4.0614,-4.0621,-4.0621,-4.0635,-4.0313,-3.8614,-3.8132,-3.7752,-3.6091,-3.5637,-3.563,-3.5706,-3.5729,-3.5732,0.0,0.0,0.0,0.0,0.0,0.0,0.0,0.0,0.0,0.0,0.0,0.0,0.0,0.0,0.0,0.0,0.0,0.0,-3.0804,-3.0743,-3.0825,-3.1048,-3.1709,-3.2287,0.0,0.0,0.0,-3.4934,-3.5558,-3.584,-3.5698,-3.5676,-3.5576,-3.5398,-3.5376,-3.5296,-3.5229,-3.6099,-3.6939,-3.7768,-3.8765,-3.9616,-4.0301,-4.0444,-4.0436,-4.0363,-4.0489,-4.0694,-4.0921,-4.1045,-4.1107,-4.1107,-3.7047,0.0,0.0,-3.9263,0.0,0.0,-4.1454,0.0,0.0,-4.4336,-4.5134,0.0,-4.5594,-4.564,-4.564,-4.5594,-4.5594,0.0,-4.5594,0.0,0.0,-4.4335,-4.3528,-4.2701,-4.1808,-4.095,0.0,-3.9823,0.0,0.0,-3.736,0.0,0.0,0.0,0.0,-3.6319,0.0,-3.8292,-3.935,-4.0496,-4.0496,0.0,0.0,-4.0534,-4.0545,-4.0603,-4.0566,-4.0564,-4.0564,-4.0564,-4.0571,-4.0605,-4.0605,-4.0369,-3.9823,-3.8492,-3.7836,-3.7257,-3.5944,-3.5602,-3.5606,-3.5644,-3.5664,-3.5674,-3.5737,-3.5755,-3.5758,0.0,0.0,0.0,0.0,0.0,0.0,0.0,0.0,0.0,0.0,0.0,0.0,0.0,-3.0753,0.0,-3.0712,-3.0692,-3.0706,-3.0704,-3.1189,-3.1646,0.0,0.0,0.0,-3.4526,-3.5064,-3.5454,-3.5736,-3.5715,-3.5605,-3.5399,-3.5376,-3.5293,-3.5215,-3.5675,-3.6552,-3.7724,-3.827,-3.9143,-4.0225,-4.0335,-4.0326,-4.0282,-4.0436,-4.0662,-4.0912,-4.0984,-4.1045,-4.1107,0.0,0.0,0.0,0.0,0.0,0.0,0.0,-4.3157,0.0,-4.4479,0.0,-4.5594,-4.5594,-4.5594,-4.5594,-4.5594,0.0,-4.5594,-4.5594,-4.5594,-4.5267,-4.4489,-4.3682,-4.2854,-4.1981,-4.1123,0.0,0.0,0.0,0.0,0.0,0.0,0.0,0.0,0.0,0.0,0.0,-3.8604,-3.9765,0.0,-4.0496,-4.0496,-4.0496,-4.0496,-4.0496,-4.0496,-4.0496,-4.0496,-4.0496,-4.0496,-4.0539,-4.06,-4.06,-4.0024,-3.9231,-3.8343,-3.7475,-3.6607,-3.5804,-3.5591,-3.5591,-3.5598,-3.5598,-3.5614,-3.5674,-3.5698,-3.5684,-3.5687,-3.5733,-3.5491,0.0,0.0,0.0,0.0,0.0,0.0,0.0,0.0,0.0,0.0,0.0,0.0,-3.0593,-3.0652,-3.0694,-3.0687,-3.071,0.0,0.0,0.0,0.0,-3.4288,-3.4489,-3.4952,-3.5795,0.0,-3.5568,-3.5406,-3.5338,-3.5264,-3.5172,-3.5129,-3.6043,-3.768,-3.7633,-3.8546,-4.0087,-4.0166,-4.0186,-4.0215,-4.0392,-4.0622,-4.0819,-4.0854,-4.0935,-4.1041,0.0,0.0,0.0,0.0,0.0,-4.2784,-4.2888,-4.3509,-4.422,-4.4967,-4.538,-4.5594,-4.5594,-4.5594,-4.5594,-4.5594,-4.5594,0.0,0.0,0.0,0.0,-4.5383,-4.4547,-4.3701,-4.2893,-4.2027,-4.1219,0.0,0.0,0.0,0.0,0.0,0.0,0.0,0.0,0.0,-3.7834,-3.8873,0.0,-4.0496,-4.0496,-4.0496,-4.0496,-4.0496,-4.0496,-4.0496,-4.0496,-4.0496,-4.0496,-4.0496,-4.0516,-4.0523,-4.0523,-3.9973,-3.9145,-3.826,-3.7394,-3.6528,-3.574,-3.5515,-3.5522,-3.5591,-3.5598,-3.5604,-3.5614,-3.562,-3.562,-3.5626,-3.5623,-3.538,-3.4546,0.0,0.0,0.0,0.0,0.0,0.0,0.0,0.0,0.0,0.0,0.0,0.0,0.0,0.0,0.0,0.0,0.0,0.0,0.0,0.0,0.0,-3.4025,0.0,0.0,0.0,-3.5424,-3.5406,-3.5321,-3.5242,-3.512,-3.512,-3.6025,-3.7614,-3.7605,-3.8546,-4.0106,-4.0117,-4.0127,-4.0128,-4.0267,-4.0367,-4.0419,-4.0597,-4.0681,-4.0734,0.0,0.0,0.0,0.0,0.0,0.0,0.0,-4.389,0.0,-4.4928,-4.5222,-4.54,-4.54,-4.5513,-4.5594,-4.5594,-4.5594,-4.5594,-4.5594,-4.5594,-4.555,-4.54,-4.4687,0.0,-4.2708,-4.2099,-4.1333,-4.0339,0.0,0.0,0.0,0.0,0.0,0.0,0.0,-3.616,0.0,0.0,0.0,-4.033,-4.0194,-4.0212,-4.033,-4.0194,-4.0138,-4.0138,-4.0138,-4.0138,-4.0166,-4.0414,-4.0441,-4.027,-3.9857,-3.912,-3.826,-3.7424,-3.6653,-3.5988,-3.5604,-3.5495,-3.5515,-3.5534,-3.556,-3.5547,-3.5547,-3.5554,-3.556,-3.5591,-3.5598,-3.5357,-3.4546,-3.3363,0.0,0.0,0.0,0.0,0.0,0.0,0.0,0.0,0.0,0.0,0.0,0.0,0.0,0.0,0.0,0.0,0.0,0.0,0.0,0.0,0.0,0.0,0.0,0.0,0.0,-3.5231,-3.5208,-3.5149,-3.5057,-3.5485,-3.6359,-3.7566,-3.7993,-3.8866,-4.0005,-4.0036,-4.0067,-4.0117,-4.0168,-4.0232,-4.0317,-4.0404,-4.0487,-4.0584,0.0,-3.9853,0.0,0.0,-4.2773,0.0,-4.3804,-4.4121,-4.4402,-4.4676,-4.4962,-4.5107,-4.5107,-4.5312,-4.5429,-4.5429,-4.5429,-4.5429,-4.5429,-4.5429,-4.5332,-4.5118,-4.4661,-4.3731,-4.2314,-4.201,-4.1283,0.0,0.0,0.0,0.0,0.0,0.0,0.0,0.0,0.0,0.0,0.0,-3.8239,-3.9814,-3.9764,-3.9872,-4.0052,-3.984,-3.9775,-3.9786,-3.9786,-3.9683,-3.9596,-3.9971,-3.999,-3.9748,-3.9117,-3.8164,-3.7164,-3.6514,-3.5881,-3.5369,-3.5369,-3.5369,-3.5369,-3.5369,-3.5369,-3.5376,-3.5374,-3.5369,-3.5395,-3.5442,-3.5489,-3.5329,-3.4685,-3.3724,0.0,0.0,0.0,0.0,0.0,0.0,0.0,0.0,0.0,0.0,0.0,0.0,0.0,0.0,0.0,0.0,0.0,0.0,0.0,0.0,0.0,-3.3634,-3.5057,0.0,-3.5232,-3.5096,-3.507,-3.5037,-3.5002,-3.5818,-3.6681,-3.7527,-3.835,-3.9153,-3.99,-3.9954,-4.0015,-4.0057,-4.0057,-4.0119,-4.0212,-4.023,-4.0307,-4.0408,0.0,0.0,0.0,0.0,0.0,0.0,0.0,-4.3929,-4.4064,-4.4383,-4.4676,-4.4837,-4.4837,-4.4849,-4.4872,-4.4872,-4.4872,-4.4872,-4.4872,-4.4872,-4.4861,-4.4837,-4.4773,-4.3952,-4.2255,-4.2188,-4.1344,0.0,0.0,0.0,0.0,0.0,0.0,0.0,0.0,0.0,0.0,-3.7122,-3.7681,-3.8628,-3.9331,-3.9634,-3.9656,-3.9634,-3.9664,-3.9709,-3.9709,-3.9291,-3.871,-3.8752,-3.8771,-3.8741,-3.8665,-3.7517,-3.6226,-3.615,-3.5571,-3.4964,-3.4964,-3.4964,-3.4964,-3.4964,-3.4964,-3.4964,-3.4954,-3.4954,-3.4954,-3.4954,-3.5115,-3.52,-3.5132,-3.3818,-3.2727,0.0,0.0,0.0,0.0,0.0,0.0,0.0,0.0,0.0,0.0,-3.0455,0.0,0.0,0.0,0.0,0.0,0.0,0.0,-3.1879,0.0,-3.3293,-3.4283,-3.4721,-3.5,-3.5096,-3.4973,-3.4927,-3.4936,-3.5808,-3.6642,-3.7457,-3.831,-3.9153,-3.99,-3.9911,-3.9911,-3.9911,-3.9911,-3.9933,-3.9935,-4.0017,-4.0048,-4.0059,0.0,0.0,0.0,0.0,0.0,0.0,0.0,-4.3802,-4.3899,-4.4017,-4.4346,-4.4559,-4.4559,-4.4701,-4.4788,-4.4788,-4.4788,-4.4776,-4.4739,-4.4739,-4.465,-4.4457,-4.4599,-4.3728,-4.1698,-4.1983,-4.1248,0.0,0.0,0.0,0.0,0.0,0.0,0.0,0.0,-3.5773,-3.6883,-3.6272,-3.657,-3.7488,-3.8177,-3.8539,-3.8627,-3.8519,-3.8486,-3.8438,-3.7947,-3.758,-3.7337,-3.7337,-3.7462,-3.7562,-3.7082,-3.6457,-3.5832,-3.5334,-3.5066,-3.4908,-3.4908,-3.4908,-3.4908,-3.4908,-3.4908,-3.4908,-3.4908,-3.4908,-3.4908,-3.4908,-3.4954,-3.5009,-3.5027,-3.4035,-3.3081,0.0,0.0,0.0,0.0,0.0,0.0,0.0,0.0,0.0,0.0,0.0,0.0,0.0,0.0,0.0,0.0,0.0,0.0,-3.1595,0.0,-3.3073,-3.3898,-3.4555,-3.4936,-3.4973,-3.4936,-3.4908,-3.4946,-3.6291,-3.7637,-3.8925,-3.9267,-3.9597,-3.99,-3.99,-3.99,-3.99,-3.99,-3.99,-3.99,-3.9933,-3.9943,-3.9943,-4.0096,0.0,-4.1598,0.0,-4.305,-4.3339,-4.3409,-4.3513,-4.3617,-4.3788,-4.4048,-4.4221,-4.4221,-4.4388,-4.4511,-4.4511,-4.4511,-4.4484,-4.443,-4.443,-4.4336,-4.4075,-4.4036,0.0,-4.1314,-4.1409,-4.0702,-3.9129,-3.9197,0.0,0.0,0.0,0.0,0.0,-3.5774,-3.5769,-3.6593,-3.5613,-3.5615,-3.6334,-3.7017,-3.7373,-3.748,-3.7336,-3.7302,-3.7243,-3.6667,-3.6325,-3.6149,-3.6149,-3.6123,-3.607,-3.5776,-3.5521,-3.5191,-3.4641,-3.4586,-3.4682,-3.4682,-3.4682,-3.4682,-3.4682,-3.4682,-3.4682,-3.4682,-3.4682,-3.4722,-3.4801,-3.4821,-3.4821,-3.4821,-3.4103,-3.3261,-3.2448,0.0,0.0,0.0,0.0,0.0,0.0,-3.0011,-3.0037,-2.9969,0.0,0.0,0.0,0.0,0.0,0.0,0.0,0.0,0.0,0.0,0.0,0.0,-3.451,-3.4908,-3.4908,-3.4908,-3.4908,-3.4965,-3.6632,-3.8319,-3.99,-3.99,-3.99,-3.99,-3.99,-3.9837,-3.9781,-3.9878,-3.9856,-3.9792,-3.9878,-3.99,-3.99,-4.0307,-4.099,-4.1648,-4.2115,-4.2198,-4.24,-4.2922,-4.3014,-4.3196,-4.3719,-4.3804,-4.3804,-4.3804,-4.3804,-4.382,-4.382,-4.382,-4.382,-4.3804,-4.3804,-4.3804,0.0,0.0,-4.2181,-4.1222,-4.0428,-3.9587,-3.8707,0.0,0.0,-3.761,0.0,-3.6892,-3.7518,-3.5851,-3.5551,-3.6262,-3.5371,-3.5004,-3.5096,-3.5973,-3.6317,-3.6317,-3.6317,-3.636,-3.6417,-3.6398,-3.5938,-3.5304,-3.5304,-3.475,-3.4208,-3.5118,-3.4815,-3.4142,-3.4185,-3.4209,-3.4209,-3.4209,-3.4209,-3.4209,-3.4209,-3.4209,-3.4209,-3.4209,-3.4209,-3.4281,-3.4539,-3.4594,-3.4594,-3.4594,-3.388,-3.3037,-3.223,0.0,0.0,0.0,0.0,0.0,0.0,-3.017,-3.0129,-2.9926,0.0,0.0,0.0,0.0,0.0,0.0,0.0,0.0,-3.1487,-3.2214,0.0,-3.3783,-3.4537,-3.4908,-3.4908,-3.4908,-3.4908,-3.4965,-3.6632,-3.8319,-3.99,-3.99,-3.99,-3.99,-3.99,-3.9747,-3.9539,-3.9792,-3.9747,-3.9539,-3.9792,-3.99,-3.99,-4.0597,-4.1153,-4.1539,-4.1692,-4.199,-4.2259,-4.242,-4.246,-4.2519,-4.2693,-4.2995,-4.3196,-4.3196,-4.3549,-4.3804,0.0,-4.3804,-4.3753,0.0,-4.3667,-4.3634,-4.36,-4.2811,-4.1985,-4.1144,-4.0333,-3.9528,-3.8707,0.0,0.0,0.0,-3.8177,-3.8166,-3.8279,-3.6644,-3.606,-3.6211,-3.478,-3.4192,-3.4252,-3.5078,-3.5408,-3.5408,-3.5408,-3.5422,-3.5376,-3.4807,-3.4485,-3.4291,-3.4291,-3.3954,-3.3587,-3.3945,-3.4026,-3.4036,-3.4061,-3.4099,-3.4136,-3.4136,-3.4173,-3.4197,-3.4197,-3.4197,-3.4197,-3.4197,-3.4197,-3.4221,-3.4305,-3.4328,-3.4328,-3.4328,-3.4093,-3.3657,-3.2847,-3.198,0.0,0.0,0.0,0.0,0.0,-2.9645,-2.9626,0.0,-2.9742,0.0,0.0,0.0,0.0,0.0,0.0,0.0,0.0,-3.2536,0.0,-3.3739,-3.451,-3.4908,-3.4908,-3.4908,-3.5495,-3.6632,-3.778,-3.8869,-3.99,-3.99,-3.9792,-3.9623,-3.9623,-3.9427,-3.9176,-3.9255,-3.9242,-3.9203,-3.9508,-3.9477,-3.932,-4.0594,-4.1001,-4.1283,-4.1283,-4.1529,-4.1774,-4.1906,-4.1948,-4.199,-4.2177,-4.2458,-4.2634,-4.2634,-4.2976,0.0,-4.3669,-4.3686,-4.3651,-4.3565,-4.3565,-4.3402,-4.3057,-4.2286,-4.1479,-4.0671,0.0,0.0,-3.8707,-3.859,-3.8525,-3.8525,-3.838,-3.8382,-3.8394,-3.6661,-3.5967,-3.5959,-3.4186,-3.3419,-3.3473,-3.3982,-3.4182,-3.4182,-3.4182,-3.4182,-3.4109,-3.36,-3.3419,-3.3419,-3.3419,-3.3288,-3.3124,-3.3151,-3.3343,-3.3556,-3.3611,-3.3733,-3.3871,-3.3871,-3.3992,-3.4124,-3.4124,-3.4148,-3.4161,-3.4161,-3.4099,-3.4061,-3.4111,-3.4124,-3.4136,-3.4161,-3.4161,-3.3913,-3.312,-3.2593,-3.1868,-3.0753,0.0,0.0,0.0,0.0,0.0,0.0,-2.9589,-2.9776,0.0,0.0,0.0,0.0,0.0,0.0,-3.1975,-3.292,0.0,-3.4035,-3.4585,-3.485,-3.4869,-3.5084,-3.5872,-3.7134,-3.7981,-3.8809,-3.9549,-3.9549,-3.9464,-3.9313,-3.9313,-3.9122,-3.8857,-3.8952,-3.8943,-3.8886,-3.9208,-3.9176,-3.9022,-4.0213,-4.0534,0.0,0.0,-4.084,0.0,-4.1356,-4.1445,-4.1622,-4.2053,-4.2136,-4.2157,-4.2157,-4.2177,-4.2537,-4.3339,0.0,0.0,0.0,-4.3355,-4.3006,-4.2255,-4.1377,-4.0571,-3.9836,-3.903,-3.8611,-3.8611,-3.8236,-3.8068,-3.8051,-3.7667,-3.7685,-3.7906,-3.6037,-3.5352,-3.546,-3.3598,-3.2795,-3.2795,-3.2795,-3.2795,-3.2795,-3.2795,-3.2795,-3.2795,-3.2795,-3.2795,-3.2795,-3.2795,-3.2779,-3.2763,-3.2763,-3.2747,-3.2763,-3.2932,-3.3204,-3.3458,-3.3458,-3.3698,-3.3928,-3.3928,-3.3979,-3.4018,-3.4018,-3.3876,-3.3788,-3.3902,-3.3959,-3.3985,-3.4049,-3.4061,-3.3827,-3.3147,-3.298,-3.2393,-3.0921,0.0,0.0,0.0,0.0,0.0,0.0,-2.973,-2.9989,0.0,0.0,0.0,0.0,0.0,-3.1779,-3.3248,-3.336,-3.3765,-3.4594,-3.4697,-3.4776,-3.4842,-3.5454,-3.6073,-3.6679,-3.7501,-3.828,-3.898,-3.898,-3.898,-3.8966,-3.8966,-3.8818,-3.86,-3.8843,-3.8803,-3.86,-3.8872,-3.8952,-3.8938,0.0,0.0,-3.9919,-3.9919,-4.0204,-4.0485,-4.0566,-4.0853,-4.1088,-4.1186,-4.1468,-4.167,-4.167,-4.199,-4.2279,-4.248,-4.25,-4.25,-4.25,-4.198,-4.1586,-4.1406,-4.0039,-3.9175,-3.8978,-3.8204,-3.7773,-3.7773,-3.7685,-3.765,-3.7632,-3.7542,-3.7238,-3.6753,-3.5666,-3.4897,-3.4334,-3.3271,-3.2795,-3.2795,-3.2795,-3.2795,-3.2795,-3.2795,-3.2795,-3.2795,-3.2795,-3.2795,-3.2795,-3.2795,-3.2635,-3.242,-3.242,-3.2249,-3.2144,-3.2699,-3.2934,-3.3042,-3.3042,-3.313,-3.3233,-3.3233,-3.3248,-3.3263,-3.3263,-3.3219,-3.3189,-3.3233,-3.3439,-3.3611,-3.3639,-3.3639,-3.3584,-3.3414,-3.2638,-3.2,-3.1788,-3.1223,0.0,0.0,-3.0736,-3.0736,-3.0736,-3.0929,-3.1033,0.0,0.0,0.0,0.0,-3.2131,-3.2421,-3.3197,-3.3814,-3.4289,-3.4602,-3.4484,-3.4626,-3.5051,-3.5805,-3.6549,-3.7313,-3.8173,-3.8672,-3.8853,-3.8853,-3.8755,-3.8612,-3.8612,-3.8494,-3.8289,-3.8352,-3.8354,-3.8322,-3.86,-3.8569,-3.8433,-3.8717,-3.8957,-3.9236,-3.9401,-3.9627,-3.9825,-3.9952,-4.0345,-4.0648,-4.0648,-4.0995,-4.1232,-4.1232,-4.113,-4.1055,-4.1055,-4.1437,-4.1701,-4.1701,-4.0989,-4.0381,-4.0006,-3.9186,-3.8524,-3.8148,-3.7719,-3.7684,-3.8004,-3.7854,-3.7776,-3.7776,-3.7582,-3.7002,-3.6095,-3.5134,-3.4358,-3.3719,-3.2754,-3.2334,-3.2334,-3.2334,-3.2334,-3.2334,-3.2334,-3.2334,-3.2334,-3.2334,-3.2334,-3.2334,-3.2334,-3.2231,-3.2073,-3.2073,-3.1947,-3.1874,-3.2249,-3.2486,-3.2635,-3.2635,-3.2761,-3.2934,-3.2947,-3.2887,-3.2842,-3.2932,-3.2887,-3.2842,-3.2903,-3.3057,-3.3178,-3.3222,-3.3222,-3.3237,-3.3281,-3.2754,-3.2254,-3.2003,-3.1589,0.0,-3.0912,-3.0871,-3.0917,-3.0989,-3.1141,-3.1339,-3.1632,-3.1788,0.0,-3.2912,-3.2953,-3.3085,-3.3377,-3.3814,-3.4074,-3.4148,-3.4438,-3.4679,-3.4931,-3.6105,-3.682,-3.7158,-3.8011,-3.8394,-3.8394,-3.8394,-3.8332,-3.8221,-3.8221,-3.8172,-3.8055,-3.8055,-3.8089,-3.8122,-3.8269,-3.8271,-3.8207,-3.7943,-3.8238,-3.8596,-3.8892,-3.8974,-3.9109,-3.9332,-3.9756,-4.007,-4.007,-4.0268,-4.0401,-4.0401,-3.974,-3.93,-3.93,-3.997,-4.0494,-4.0717,-3.9973,-3.9226,-3.855,-3.8408,-3.8016,-3.7321,-3.7427,-3.7818,-3.8438,-3.8259,-3.8184,-3.8146,-3.7577,-3.6714,-3.5645,-3.4441,-3.3647,-3.3142,-3.217,-3.1746,-3.1763,-3.1763,-3.1763,-3.1781,-3.1763,-3.1781,-3.18,-3.1781,-3.1781,-3.18,-3.18,-3.18,-3.18,-3.18,-3.18,-3.18,-3.18,-3.1984,-3.2214,-3.2214,-3.2437,-3.265,-3.2713,-3.262,-3.2521,-3.2699,-3.2602,-3.2505,-3.2635,-3.27,-3.2731,-3.2793,-3.2809,-3.2825,-3.2885,-3.2854,-3.259,-3.1946,0.0,-3.1607,-3.0945,-3.0856,-3.0918,-3.1085,-3.1146,-3.1502,-3.2248,-3.2345,-3.2682,-3.3408,-3.3444,-3.3459,-3.3488,-3.3545,-3.3646,-3.3712,-3.4447,-3.4874,-3.4966,-3.6331,-3.693,-3.6859,-3.7541,-3.7846,-3.7846,-3.7846,-3.7864,-3.7864,-3.7793,-3.7793,-3.7793,-3.7793,-3.7828,-3.7879,-3.7949,-3.8054,-3.8158,-3.7181,-3.7387,-3.7621,-3.7666,-3.8014,-3.8298,-3.8327,-3.8668,-3.8951,-3.8951,-3.8514,-3.8186,-3.8186,-3.7761,-3.7511,-3.7511,-3.728,-3.7661,-3.8898,-3.8283,-3.7814,-3.7692,-3.705,-3.6596,-3.6492,-3.7151,-3.755,-3.7671,-3.8248,-3.8515,-3.8498,-3.7068,-3.6,-3.5229,-3.369,-3.2584,-3.1883,-3.1706,-3.1596,-3.1555,-3.1555,-3.1576,-3.1617,-3.1576,-3.1651,-3.18,-3.1671,-3.1709,-3.18,-3.18,-3.18,-3.18,-3.18,-3.18,-3.18,-3.18,-3.1837,-3.1874,-3.1874,-3.1911,-3.1948,-3.1966,-3.1947,-3.1929,-3.1966,-3.1947,-3.1929,-3.1965,-3.2179,-3.2369,-3.2386,-3.2386,-3.2403,-3.2403,-3.2162,-3.2003,-3.2039,0.0,-3.2056,-3.2035,-3.2034,-3.2051,-3.2084,-3.2298,-3.2382,-3.2309,-3.2506,-3.2674,-3.2752,-3.2752,-3.2816,-3.2993,-3.3386,-3.3815,-3.4277,-3.44,-3.5031,-3.6146,-3.6396,-3.6844,-3.7452,-3.7595,-3.7649,-3.7649,-3.7649,-3.7667,-3.7703,-3.7355,-3.7262,-3.7321,-3.7321,-3.7321,-3.7359,-3.7775,-3.7934,-3.7934,-3.6724,-3.6816,-3.6952,-3.715,-3.7359,-3.7551,-3.7711,-3.7758,-3.779,-3.779,-3.7415,-3.7166,-3.7166,-3.6602,-3.6224,-3.6224,-3.5678,-3.5614,-3.6303,-3.6486,-3.6663,-3.6853,-3.649,-3.6465,-3.6831,-3.7588,-3.815,-3.8517,-3.854,-3.8495,-3.8357,-3.7006,-3.5531,-3.396,-3.2934,-3.1846,-3.0791,-3.0791,-3.0771,-3.0747,-3.0747,-3.0751,-3.0791,-3.0767,-3.0808,-3.0871,-3.0811,-3.0831,-3.0891,-3.0891,-3.0891,-3.0891,-3.0891,-3.0891,-3.0891,-3.0891,-3.1317,-3.18,-3.18,-3.18,-3.18,-3.18,-3.18,-3.18,-3.18,-3.18,-3.18,-3.18,-3.1929,-3.202,-3.202,-3.202,-3.202,-3.202,-3.1893,0.0,0.0,-3.1929,-3.1965,-3.202,-3.202,-3.2073,-3.2179,-3.2283,-3.2352,-3.2301,-3.2403,-3.2471,-3.2437,-3.2437,-3.2683,-3.3209,-3.3637,-3.4191,-3.4817,-3.5265,-3.5788,-3.6399,-3.6827,-3.7238,-3.7595,-3.7595,-3.7595,-3.7594,-3.7319,-3.7226,-3.7245,-3.6801,-3.6623,-3.6666,-3.6666,-3.6706,-3.6773,-3.6803,-3.6844,-3.6827,-3.6492,-3.6492,-3.6585,-3.6847,-3.6753,-3.6719,-3.6913,-3.6635,-3.643,-3.643,-3.6147,-3.5918,-3.5918,-3.5312,-3.4915,-3.4915,-3.4437,-3.4178,-3.4276,-3.4941,-3.5571,-3.6076,-3.6246,-3.6554,-3.7074,-3.7804,-3.8441,-3.8962,-3.8547,-3.8246,-3.8065,-3.6646,-3.502,-3.3262,-3.2307,-3.1307,-3.0277,-3.0118,-3.0031,-3.0026,-3.0026,-3.0048,-3.0053,-3.0048,-3.0069,-3.0112,-3.0053,-3.0074,-3.0095,-3.0095,-3.0095,-3.0095,-3.0095,-3.0095,-3.0095,-3.0095,-3.0714,-3.1411,-3.1411,-3.1449,-3.1504,-3.1504,-3.1523,-3.156,-3.156,-3.156,-3.156,-3.156,-3.156,-3.156,-3.156,-3.156,-3.156,-3.156,0.0,0.0,0.0,-3.156,-3.156,-3.156,-3.156,-3.1654,-3.1875,-3.1912,-3.1966,-3.2073,-3.2073,-3.2125,-3.2264,-3.2264,-3.2734,-3.3765,-3.3988,-3.4464,-3.5244,-3.5774,-3.6145,-3.6359,-3.6979,-3.7281,-3.7281,-3.7281,-3.7281,-3.7262,-3.69,-3.6741,-3.6704,-3.6253,-3.6062,-3.6062,-3.6062,-3.6023,-3.5928,-3.5776,-3.5655,-3.5467,-3.6492,-3.6492,-3.6523,-3.6523,-3.603,-3.5613,-3.5643,-3.5102,-3.4684,-3.4684,-3.4079,-3.363,-3.363,-3.3306,-3.3094,-3.3094,-3.3272,-3.3497,-3.3834,-3.391,-3.4412,-3.5424,-3.6055,-3.6406,-3.6472,-3.7187,-3.7607,-3.7629,-3.7715,-3.7752,-3.7679,-3.5429,-3.4342,-3.4209,-3.1984,-3.0949,-3.0803,-3.0179,-2.9892,-2.9815,-2.9815,-2.9848,-2.9919,-2.9843,-2.9935,-3.0074,-2.9967,-2.9989,-3.0095,-3.0095,-3.0095,-3.0095,-3.0095,-3.0095,-3.0095,-3.0095,-3.0159,-3.0239,-3.0239,-3.0402,-3.0601,-3.0601,-3.0744,-3.0868,-3.0868,-3.0868,-3.0868,-3.0868,-3.0868,-3.0868,-3.0868,-3.0868,-3.0868,-3.0868,0.0,0.0,-3.0868,-3.0868,-3.0868,-3.0868,-3.0868,-3.1004,-3.1334,-3.1353,-3.1353,-3.1372,-3.1372,-3.1621,-3.2181,-3.2212,-3.2958,-3.4558,-3.4283,-3.4501,-3.5384,-3.5155,-3.5432,-3.6229,-3.6281,-3.6298,-3.6298,-3.6298,-3.6298,-3.6298,-3.6274,-3.6236,-3.6232,-3.582,-3.5638,-3.5638,-3.5638,-3.5215,-3.4686,-3.5101,-3.4817,-3.4233,-3.599,-3.5952,-3.5891,-3.5891,-3.5337,-3.489,-3.489,-3.4289,-3.3814,-3.3814,-3.3213,-3.2782,-3.2782,-3.2678,-3.2578,-3.2578,-3.2687,-3.2807,-3.2911,-3.2938,-3.3657,-3.5313,-3.6483,-3.7051,-3.702,-3.7731,-3.7878,-3.7384,-3.7044,-3.6636,-3.6108,-3.4478,-3.3451,-3.296,-3.1311,-3.0357,-2.9926,-2.9257,-2.8967,-2.892,-2.892,-2.8943,-2.8974,-2.8943,-2.899,-2.9028,-2.8997,-2.8982,-2.9051,-2.9051,-2.9051,-2.9051,-2.9051,-2.9051,-2.9051,-2.9051,-2.9051,-2.9051,-2.9051,-2.9629,-3.0239,-3.0239,-3.0423,-3.0605,-3.0605,-3.0723,-3.0804,-3.0804,-3.0804,-3.0804,-3.0804,-3.0804,-3.0804,-3.0804,0.0,-3.0804,-3.0804,-3.0804,-3.0804,-3.0804,-3.0804,-3.0865,-3.0985,-3.0985,-3.1187,-3.1641,-3.1675,-3.1971,-3.266,-3.3129,-3.3659,-3.4302,-3.4421,-3.4866,-3.5696,-3.5587,-3.5681,-3.602,-3.602,-3.602,-3.602,-3.6101,-3.6143,-3.6122,-3.5929,-3.5842,-3.5798,-3.5339,-3.5171,-3.5121,-3.467,-3.4319,-3.4013,-3.3524,-3.3145,-3.2858,-3.4532,-3.446,-3.4392,-3.4392,-3.3849,-3.3442,-3.3546,-3.3073,-3.269,-3.2648,-3.2366,-3.212,-3.1964,-3.1964,-3.202,-3.2176,-3.2176,-3.2259,-3.2398,-3.2598,-3.3427,-3.5064,-3.6456,-3.7154,-3.7105,-3.7418,-3.7306,-3.6741,-3.5859,-3.5165,-3.4606,-3.3559,-3.2776,-3.2201,-3.0954,-3.014,-2.9648,-2.8781,-2.8411,-2.8411,-2.8411,-2.8411,-2.8411,-2.8411,-2.8411,-2.8411,-2.8411,-2.8411,-2.8411,-2.8411,-2.8411,-2.8411,-2.8411,-2.8411,-2.8411,-2.8411,-2.8411,-2.8411,-2.8411,-2.8974,-2.9569,-2.9635,-2.9848,-3.0054,-3.0054,-3.0182,-3.0293,-3.0356,-3.0377,-3.0414,-3.0497,-3.0535,-3.0535,-3.0535,-3.0535,-3.0535,-3.0535,-3.0535,-3.0535,-3.0535,-3.0535,-3.0539,-3.0625,-3.0862,-3.1191,-3.1707,-3.1953,-3.2375,-3.3005,-3.3717,-3.4097,-3.4097,-3.4379,-3.4778,-3.5334,-3.5397,-3.5419,-3.5464,-3.5464,-3.5464,-3.5464,-3.5571,-3.5594,-3.5577,-3.5345,-3.5293,-3.5293,-3.4977,-3.4743,-3.4502,-3.3988,-3.3508,-3.3017,-3.229,-3.1858,-3.159,-3.1987,-3.1987,-3.1987,-3.1987,-3.1435,-3.1097,-3.1437,-3.1323,-3.1145,-3.1014,-3.1408,-3.1495,-3.1058,-3.0999,-3.1175,-3.1653,-3.171,-3.1894,-3.237,-3.3029,-3.3721,-3.4459,-3.5753,-3.6476,-3.6476,-3.583,-3.5506,-3.5506,-3.4091,-3.3398,-3.3383,-3.2705,-3.2398,-3.2336,-3.0986,-3.0402,-3.0309,-2.8956,-2.8411,-2.8411,-2.8411,-2.8411,-2.8411,-2.8411,-2.8411,-2.8411,-2.8411,-2.8411,-2.8387,-2.8387,-2.8387,-2.8387,-2.8387,-2.8387,-2.8387,-2.8387,-2.8387,-2.8387,-2.8387,-2.8387,-2.846,-2.8653,-2.8912,-2.9098,-2.9098,-2.9098,-2.9167,-2.9425,-2.9493,-2.9576,-2.9836,-2.988,-2.988,-2.9896,-2.9896,-2.9896,-2.9896,-2.9896,-2.9896,-2.9896,-2.9896,-3.0011,-3.0288,-3.0968,-3.1413,-3.1413,-3.2099,-3.2695,-3.3089,-3.3744,-3.4101,-3.4101,-3.4101,-3.4101,-3.4101,-3.4226,-3.4374,-3.4497,-3.4497,-3.4497,-3.4497,-3.4497,-3.4497,-3.4497,-3.4497,-3.457,-3.4691,-3.4691,-3.4334,-3.3789,-3.3773,-3.2872,-3.1576,-3.1576,-3.1135,-3.0489,-3.1425,-3.1364,-3.1306,-3.1306,-3.0728,-3.0313,-3.042,-3.04,-3.033,-3.0299,-3.0419,-3.0435,-3.0329,-3.0299,-3.045,-3.0822,-3.0852,-3.1014,-3.1393,-3.2034,-3.2527,-3.2736,-3.4256,-3.5321,-3.5799,-3.5152,-3.4813,-3.4813,-3.386,-3.3167,-3.269,-3.249,-3.2398,-3.2336,-3.0986,-3.0402,-3.0309,-2.8956,-2.8411,-2.8411,-2.8411,-2.8411,-2.8411,-2.8411,-2.8411,-2.8348,-2.8079,-2.7965,-2.794,-2.761,-2.7494,-2.7494,-2.7494,-2.7494,-2.7494,-2.7494,-2.7494,-2.7599,-2.8066,-2.8185,-2.8235,-2.8431,-2.8668,-2.8803,-2.8803,-2.8959,-2.9121,-2.919,-2.9213,-2.9236,-2.9305,-2.9328,-2.9396,-2.9598,-2.9621,-2.9704,-2.9858,-2.9896,-2.9896,-2.9896,-3.0312,-3.0626,-3.0721,-3.1395,-3.2046,-3.255,-3.3234,-3.3689,-3.3793,-3.3987,-3.4101,-3.4101,-3.4101,-3.3908,-3.3475,-3.3917,-3.4176,-3.4226,-3.4226,-3.4226,-3.4226,-3.4325,-3.4349,-3.4349,-3.4011,-3.4127,-3.4488,-3.3608,-3.3145,-3.2927,-3.1882,-3.1041,-3.0405,-3.0257,-2.9905,-2.955,-2.9751,-2.9668,-2.9633,-2.9633,-2.9297,-2.9048,-2.9219,-2.9407,-2.9501,-2.9453,-2.9594,-2.9656,-2.9484,-2.9453,-2.9608,-2.9995,-3.0208,-3.0389,-3.0584,-3.0978,-3.1227,-3.1227,-3.2168,-3.3276,-3.4486,-3.4043,-3.3693,-3.3516,-3.279,-3.2245,-3.1851,-3.1851,-3.1851,-3.179,-3.0461,-2.9898,-2.9807,-2.8435,-2.79,-2.79,-2.79,-2.79,-2.79,-2.79,-2.79,-2.7835,-2.761,-2.7509,-2.7484,-2.7199,-2.7097,-2.7097,-2.7097,-2.7097,-2.7155,-2.7421,-2.7494,-2.7641,-2.8277,-2.8468,-2.8473,-2.8613,-2.8723,-2.8809,-2.8809,-2.8761,-2.8735,-2.8817,-2.8625,-2.8503,-2.8622,-2.8622,-2.8677,-2.8842,-2.8865,-2.8982,-2.9312,-2.9357,-2.9498,-2.9922,-3.0247,-3.0521,-3.0808,-3.1363,-3.2012,-3.2778,-3.3206,-3.3429,-3.3429,-3.3429,-3.3429,-3.3429,-3.3429,-3.3256,-3.2895,-3.323,-3.3429,-3.3429,-3.3429,-3.3429,-3.3429,-3.3507,-3.3559,-3.3533,-3.3266,-3.3355,-3.3617,-3.2609,-3.2073,-3.1784,-3.0632,-2.9872,-2.9407,-2.9277,-2.9127,-2.9005,-2.7423,-2.7469,-2.749,-2.749,-2.749,-2.7636,-2.798,-2.8398,-2.8643,-2.8522,-2.8881,-2.8976,-2.8554,-2.849,-2.8702,-2.9153,-2.9594,-2.9858,-2.9858,-2.9858,-2.9858,-2.9858,-2.9934,-3.0771,-3.2585,-3.2527,-3.2288,-3.1926,-3.1249,-3.0896,-3.0896,-3.0896,-3.0896,-3.0837,-2.9588,-2.9015,-2.8926,-2.7604,-2.7019,-2.7019,-2.7019,-2.7019,-2.7019,-2.7019,-2.7045,-2.7071,-2.6993,-2.6993,-2.7045,-2.6993,-2.6993,-2.6993,-2.6993,-2.7037,-2.7199,-2.7815,-2.8035,-2.8199,-2.8816,-2.8963,-2.9006,-2.9022,-2.9051,-2.9035,-2.9016,-2.8586,-2.8225,-2.8434,-2.8036,-2.772,-2.7956,-2.8006,-2.7991,-2.7955,-2.794,-2.8079,-2.8484,-2.8532,-2.89,-2.9949,-2.9911,-3.0058,-3.0654,-3.1085,-3.1624,-3.2308,-3.2355,-3.2355,-3.2355,-3.2355,-3.2382,-3.2398,-3.2398,-3.2355,-3.2315,-3.2315,-3.2342,-3.2398,-3.2398,-3.2398,-3.2398,-3.2398,-3.2398,-3.2398,-3.2342,-3.2348,-3.2331,-3.1692,-3.1047,-3.045,-2.9766,-2.9119,-2.8543,-2.8591,-2.8591,-2.8591,-2.685,-2.7222,-2.749,-2.749,-2.749,-2.7536,-2.7636,-2.7723,-2.7776,-2.7723,-2.7822,-2.7842,-2.7756,-2.7723,-2.7901,-2.8327,-2.8702,-2.8881,-2.8881,-2.8881,-2.8881,-2.8881,-2.9247,-2.9485,-2.954,-3.0235,-3.0793,-3.1205,-3.054,-3.0238,-3.0238,-3.0238,-3.0238,-3.0151,-2.89,-2.8311,-2.8239,-2.6931,-2.64,-2.64,-2.64,-2.64,-2.64,-2.64,-2.6573,-2.6718,-2.6135,-2.6215,-2.6575,-2.6285,-2.615,-2.615,-2.615,-2.6477,-2.6903,-2.7045,-2.7442,-2.7982,-2.8606,-2.8777,-2.889,-2.9343,-2.947,-2.9396,-2.9067,-2.8912,-2.8822,-2.8876,-2.8758,-2.8682,-2.8737,-2.8764,-2.8667,-2.8327,-2.8304,-2.8407,-2.8698,-2.8723,-2.9007,-2.9713,-3.0236,-3.0616,-3.0769,-3.1393,-3.185,-3.2003,-3.2003,-3.2059,-3.2155,-3.217,-3.2241,-3.2398,-3.2398,-3.216,-3.1709,-3.1709,-3.1936,-3.2398,-3.2398,-3.2398,-3.2398,-3.2398,-3.2398,-3.2355,-3.1908,-3.1673,-3.1543,-3.0346,-2.9546,-2.8975,-2.8243,-2.774,-2.7423,-2.7775,-2.774,-2.7585,-2.6324,-2.653,-2.6735,-2.6735,-2.6735,-2.6837,-2.7087,-2.7121,-2.7222,-2.7469,-2.7289,-2.7121,-2.7121,-2.6871,-2.6939,-2.739,-2.759,-2.7789,-2.8066,-2.8066,-2.8066,-2.8066,-2.83,-2.8333,-2.8085,-2.8565,-2.915,-2.9879,-2.9481,-2.9328,-2.9328,-2.9328,-2.9328,-2.9286,-2.8293,-2.7738,-2.7403,-2.6469,-2.5883,-2.5618,-2.5618,-2.5618,-2.5618,-2.5618,-2.5728,-2.5837,-2.5439,-2.5384,-2.537,-2.4909,-2.4768,-2.4793,-2.5047,-2.5517,-2.6101,-2.6628,-2.7067,-2.7448,-2.8048,-2.8026,-2.7998,-2.8561,-2.8849,-2.9032,-2.924,-2.9073,-2.8857,-2.8857,-2.8613,-2.844,-2.844,-2.844,-2.8353,-2.8159,-2.8348,-2.8663,-2.8982,-2.9037,-2.9356,-3.0175,-3.0208,-3.0272,-3.0454,-3.0822,-3.1028,-3.1028,-3.1028,-3.1072,-3.1131,-3.116,-3.1189,-3.1306,-3.1306,-3.1146,-3.0836,-3.0822,-3.0822,-3.0778,-3.1305,-3.1537,-3.1537,-3.1537,-3.1537,-3.1508,-3.1204,-3.0877,-3.046,-2.9472,-2.8712,-2.8104,-2.7428,-2.6867,-2.65,-2.6759,-2.6785,-2.6721,-2.5756,-2.5826,-2.5896,-2.5896,-2.5896,-2.6035,-2.6508,-2.6577,-2.6714,-2.7188,-2.685,-2.6577,-2.6577,-2.6186,-2.6082,-2.6543,-2.6577,-2.6748,-2.7188,-2.7222,-2.7222,-2.7222,-2.7222,-2.7222,-2.7222,-2.7222,-2.7623,-2.8425,-2.8425,-2.8425,-2.8425,-2.8425,-2.8425,-2.8398,-2.7759,-2.7207,-2.6739,-2.6145,-2.559,-2.5131,-2.4938,-2.4855,-2.4855,-2.4649,-2.4637,-2.4679,-2.4622,-2.4379,-2.406,-2.3743,-2.365,-2.371,-2.4241,-2.4792,-2.5433,-2.6385,-2.6751,-2.6922,-2.7426,-2.7232,-2.7018,-2.7458,-2.7802,-2.8241,-2.8962,-2.8979,-2.8844,-2.8844,-2.845,-2.8129,-2.8129,-2.8129,-2.8129,-2.8129,-2.8521,-2.8993,-2.9454,-2.9498,-2.9878,-3.089,-3.0113,-2.9597,-2.9794,-2.9713,-2.9651,-2.9651,-2.9651,-2.9651,-2.9682,-2.9682,-2.9713,-2.9758,-2.9744,-2.9744,-2.9744,-2.9744,-2.9435,-2.8844,-2.9732,-3.016,-3.0146,-3.0312,-3.0387,-3.0387,-3.0538,-3.0147,-2.9392,-2.8813,-2.8092,-2.7342,-2.6728,-2.6192,-2.5757,-2.5757,-2.5811,-2.5906,-2.5123,-2.5534,-2.5896,-2.5896,-2.5896,-2.5931,-2.6,-2.6,-2.6035,-2.6104,-2.6035,-2.6,-2.6,-2.5931,-2.5931,-2.6,-2.6,-2.6035,-2.6104,-2.6139,-2.6139,-2.6139,-2.6139,-2.6139,-2.6139,-2.6139,-2.662,-2.7656,-2.7656,-2.7656,-2.7656,-2.7656,-2.7656,-2.763,-2.7052,-2.6782,-2.6677,-2.6067,-2.5778,-2.5598,-2.4679,-2.432,-2.4195,-2.3263,-2.3105,-2.3327,-2.3015,-2.3088,-2.3373,-2.3981,-2.4195,-2.4267,-2.4734,-2.5339,-2.591,-2.6077,-2.6495,-2.6881,-2.7005,-2.695,-2.6917,-2.6984,-2.7051,-2.7118,-2.7252,-2.8419,-2.949,-2.949,-2.942,-2.9364,-2.9364,-2.9364,-2.9364,-2.9364,-2.9434,-2.9673,-3.0256,-3.0341,-3.0612,-3.1344,-3.0271,-2.9287,-2.8771,-2.8195,-2.7848,-2.7848,-2.7848,-2.7887,-2.8025,-2.8025,-2.809,-2.8293,-2.8279,-2.8279,-2.8279,-2.8279,-2.8247,-2.8149,-2.8279,-2.8344,-2.8376,-2.9125,-2.9498,-2.9529,-3.0251,-2.9929,-2.8768,-2.8182,-2.723,-2.6088,-2.5481,-2.5189,-2.5133,-2.5133,-2.5119,-2.5147,-2.4154,-2.4443,-2.4695,-2.4921,-2.4957,-2.5064,-2.5358,-2.5394,-2.5511,-2.5861,-2.5616,-2.5394,-2.5394,-2.5123,-2.5064,-2.5358,-2.5394,-2.5534,-2.5896,-2.5896,-2.5896,-2.5896,-2.5896,-2.5896,-2.5896,-2.5896,-2.6139,-2.6598,-2.6598,-2.6598,-2.6598,-2.6598,-2.6598,-2.6607,-2.6367,-2.6055,-2.5719,-2.5479,-2.5156,-2.4796,-2.4322,-2.4158,-2.4101,-2.3631,-2.3533,-2.3596,-2.3195,-2.3131,-2.3296,-2.3365,-2.3405,-2.3501,-2.3977,-2.4539,-2.5087,-2.5369,-2.5628,-2.5847,-2.5847,-2.5603,-2.5475,-2.5742,-2.5973,-2.6202,-2.6557,-2.7626,-2.8452,-2.8137,-2.8103,-2.821,-2.8624,-2.8711,-2.8832,-2.9235,-2.9605,-2.9915,-3.0171,-3.0212,-3.0219,-3.0165,-2.9374,-2.8704,-2.8439,-2.7867,-2.7517,-2.7517,-2.7517,-2.7537,-2.7591,-2.7591,-2.7624,-2.7736,-2.7736,-2.7736,-2.7736,-2.7736,-2.7504,-2.7103,-2.7103,-2.7425,-2.8019,-2.8409,-2.8583,-2.8615,-2.8985,-2.8524,-2.7457,-2.7191,-2.643,-2.537,-2.5105,-2.4794,-2.4452,-2.4076,-2.4192,-2.4509]},{"header":{"parameterUnit":"m.s-1","parameterCategory":1,"la1":30.6,"la2":28.766,"lo1":-90.7593,"lo2":-88.6598,"dy":0.0162,"dx":0.0183,"nx":116,"ny":114,"refTime":"2023-04-27T12:00:00:Z","depth":0,"parameterNumber":3,"parameterNumberName":"V-component_of_WINDS"},"data":[0.0,0.0,0.0,0.0,0.0,0.0,0.0,0.0,0.0,0.0,0.0,0.0,0.0,0.0,0.0,0.0,0.0,0.0,0.0,0.0,0.0,0.0,0.0,0.0,0.0,0.0,0.0,0.0,0.0,0.0,0.0,0.0,0.0,0.0,0.0,0.0,0.0,0.0,0.0,0.0,0.0,0.0,0.0,0.0,0.0,0.0,0.0,0.0,0.0,0.0,0.0,0.0,0.0,0.0,0.0,0.0,0.0,0.0,0.0,0.0,0.0,0.0,0.0,0.0,0.0,0.0,0.0,0.0,0.0,0.0,0.0,0.0,0.0,0.0,0.0,0.0,0.0,0.0,0.0,0.0,0.0,0.0,0.0,0.0,0.0,0.0,0.0,0.0,0.0,0.0,0.0,0.0,0.0,0.0,0.0,0.0,0.0,0.0,0.0,0.0,0.0,0.0,0.0,0.0,0.0,0.0,0.0,0.0,0.0,0.0,0.0,0.0,0.0,0.0,0.0,0.0,0.0,0.0,0.0,0.0,0.0,0.0,0.0,0.0,0.0,0.0,0.0,0.0,0.0,0.0,0.0,0.0,0.0,0.0,0.0,0.0,0.0,0.0,0.0,0.0,0.0,0.0,0.0,0.0,0.0,0.0,0.0,0.0,0.0,0.0,0.0,0.0,0.0,0.0,0.0,0.0,0.0,0.0,0.0,0.0,0.0,0.0,0.0,0.0,0.0,0.0,0.0,0.0,0.0,0.0,0.0,0.0,0.0,0.0,0.0,0.0,0.0,0.0,0.0,0.0,0.0,0.0,0.0,0.0,0.0,0.0,0.0,0.0,0.0,0.0,0.0,0.0,0.0,0.0,0.0,0.0,0.0,0.0,0.0,0.0,0.0,0.0,0.0,0.0,0.0,0.0,0.0,0.0,0.0,0.0,0.0,0.0,0.0,0.0,0.0,0.0,0.0,0.0,0.0,0.0,0.0,0.0,0.0,0.0,0.0,0.0,0.0,0.0,0.0,0.0,0.0,0.0,0.0,0.0,0.0,0.0,0.0,0.0,0.0,0.0,0.0,0.0,0.0,0.0,0.0,0.0,0.0,0.0,0.0,0.0,0.0,0.0,0.0,0.0,0.0,0.0,0.0,0.0,0.0,0.0,0.0,0.0,0.0,0.0,0.0,0.0,0.0,0.0,0.0,0.0,0.0,0.0,0.0,0.0,0.0,0.0,0.0,0.0,0.0,0.0,0.0,0.0,0.0,0.0,0.0,0.0,0.0,0.0,0.0,0.0,0.0,0.0,0.0,0.0,0.0,0.0,0.0,0.0,0.0,0.0,0.0,0.0,0.0,0.0,0.0,0.0,0.0,0.0,0.0,0.0,0.0,0.0,0.0,0.0,0.0,0.0,0.0,0.0,0.0,0.0,0.0,0.0,0.0,0.0,0.0,0.0,0.0,0.0,0.0,0.0,0.0,0.0,0.0,0.0,0.0,0.0,0.0,0.0,0.0,0.0,0.0,0.0,0.0,0.0,0.0,0.0,0.0,0.0,0.0,0.0,0.0,0.0,0.0,0.0,0.0,0.0,0.0,0.0,0.0,0.0,0.0,0.0,0.0,0.0,0.0,0.0,0.0,0.0,0.0,0.0,0.0,0.0,0.0,0.0,0.0,0.0,0.0,0.0,0.0,0.0,0.0,0.0,0.0,0.0,0.0,0.0,0.0,0.0,0.0,0.0,0.0,0.0,0.0,0.0,0.0,0.0,0.0,0.0,0.0,0.0,0.0,0.0,0.0,0.0,0.0,0.0,0.0,0.0,0.0,0.0,0.0,0.0,0.0,0.0,0.0,0.0,0.0,0.0,0.0,0.0,0.0,0.0,0.0,0.0,0.0,0.0,0.0,0.0,0.0,0.0,0.0,0.0,0.0,0.0,0.0,0.0,0.0,0.0,0.0,0.0,0.0,0.0,0.0,0.0,0.0,0.0,0.0,0.0,0.0,0.0,0.0,0.0,0.0,0.0,0.0,0.0,0.0,0.0,0.0,0.0,0.0,0.0,0.0,0.0,0.0,0.0,0.0,0.0,0.0,0.0,0.0,0.0,0.0,0.0,0.0,0.0,0.0,0.0,0.0,0.0,0.0,0.0,0.0,0.0,0.0,0.0,0.0,0.0,0.0,0.0,0.0,0.0,0.0,0.0,0.0,0.0,0.0,0.0,0.0,0.0,0.0,0.0,0.0,0.0,0.0,0.0,0.0,0.0,0.0,0.0,0.0,0.0,0.0,0.0,0.0,0.0,0.0,0.0,0.0,0.0,0.0,0.0,0.0,0.0,0.0,0.0,0.0,0.0,0.0,0.0,0.0,0.0,0.0,0.0,0.0,0.0,0.0,0.0,0.0,0.0,0.0,0.0,0.0,0.0,0.0,0.0,0.0,0.0,0.0,0.0,0.0,0.0,0.0,0.0,0.0,0.0,0.0,0.0,0.0,0.0,0.0,0.0,0.0,0.0,0.0,0.0,0.0,0.0,0.0,0.0,0.0,0.0,0.0,0.0,0.0,0.0,0.0,0.0,0.0,0.0,0.0,0.0,0.0,0.0,0.0,0.0,0.0,0.0,0.0,0.0,0.0,0.0,0.0,0.0,0.0,0.0,0.0,0.0,0.0,0.0,0.0,0.0,0.0,0.0,0.0,0.0,0.0,0.0,0.0,0.0,0.0,0.0,0.0,0.0,0.0,0.0,0.0,0.0,0.0,0.0,0.0,0.0,0.0,0.0,0.0,0.0,0.0,0.0,0.0,0.0,0.0,0.0,0.0,0.0,0.0,0.0,0.0,0.0,0.0,0.0,0.0,0.0,0.0,0.0,0.0,0.0,0.0,0.0,0.0,0.0,0.0,0.0,0.0,0.0,0.0,0.0,0.0,0.0,0.0,0.0,0.0,0.0,0.0,0.0,0.0,0.0,0.0,0.0,0.0,0.0,0.0,0.0,0.0,0.0,0.0,0.0,0.0,0.0,0.0,0.0,0.0,0.0,0.0,0.0,0.0,0.0,0.0,0.0,0.0,0.0,0.0,0.0,0.0,0.0,0.0,0.0,0.0,0.0,0.0,0.0,0.0,0.0,0.0,0.0,0.0,0.0,0.0,0.0,0.0,0.0,0.0,0.0,0.0,0.0,0.0,0.0,0.0,0.0,0.0,0.0,0.0,0.0,0.0,0.0,0.0,0.0,0.0,0.0,0.0,0.0,0.0,0.0,0.0,0.0,0.0,0.0,0.0,0.0,0.0,0.0,0.0,0.0,0.0,0.0,0.0,0.0,0.0,0.0,0.0,0.0,0.0,0.0,0.0,0.0,0.0,0.0,0.0,0.0,0.0,0.0,0.0,0.0,0.0,0.0,0.0,0.0,0.0,0.0,0.0,0.0,0.0,0.0,0.0,0.0,0.0,0.0,0.0,0.0,0.0,0.0,0.0,0.0,0.0,0.0,0.0,0.0,0.0,0.0,0.0,0.0,0.0,0.0,0.0,0.0,0.0,0.0,0.0,0.0,0.0,0.0,0.0,0.0,0.0,0.0,0.0,0.0,0.0,0.0,0.0,0.0,0.0,0.0,0.0,0.0,0.0,0.0,0.0,0.0,0.0,0.0,0.0,0.0,0.0,0.0,0.0,0.0,0.0,0.0,0.0,0.0,0.0,0.0,0.0,0.0,0.0,0.0,0.0,0.0,0.0,0.0,0.0,0.0,0.0,0.0,0.0,0.0,0.0,0.0,0.0,0.0,0.0,0.0,0.0,0.0,0.0,0.0,0.0,0.0,0.0,0.0,0.0,0.0,0.0,0.0,0.0,0.0,0.0,0.0,0.0,0.0,0.0,0.0,0.0,0.0,0.0,0.0,0.0,0.0,0.0,0.0,0.0,0.0,0.0,0.0,0.0,0.0,0.0,0.0,0.0,0.0,0.0,0.0,0.0,0.0,0.0,0.0,0.0,0.0,0.0,0.0,0.0,0.0,0.0,0.0,0.0,0.0,0.0,0.0,0.0,0.0,0.0,0.0,0.0,0.0,0.0,0.0,0.0,0.0,0.0,0.0,0.0,0.0,0.0,0.0,0.0,0.0,0.0,0.0,0.0,0.0,0.0,0.0,0.0,0.0,0.0,0.0,0.0,0.0,0.0,0.0,0.0,0.0,0.0,0.0,0.0,0.0,0.0,0.0,0.0,0.0,0.0,0.0,0.0,0.0,0.0,0.0,0.0,0.0,0.0,0.0,0.0,0.0,0.0,0.0,0.0,0.0,0.0,0.0,0.0,0.0,0.0,0.0,0.0,0.0,0.0,0.0,0.0,0.0,0.0,0.0,0.0,0.0,0.0,0.0,0.0,0.0,0.0,0.0,0.0,0.0,0.0,0.0,0.0,0.0,0.0,0.0,0.0,0.0,0.0,0.0,0.0,0.0,0.0,0.0,0.0,0.0,0.0,0.0,0.0,0.0,0.0,0.0,0.0,0.0,0.0,0.0,0.0,0.0,0.0,0.0,0.0,0.0,0.0,0.0,0.0,0.0,0.0,0.0,0.0,0.0,0.0,0.0,0.0,0.0,0.0,0.0,0.0,0.0,0.0,0.0,0.0,0.0,0.0,0.0,0.0,0.0,0.0,0.0,0.0,0.0,0.0,0.0,0.0,0.0,0.0,0.0,0.0,0.0,0.0,0.0,0.0,0.0,0.0,0.0,0.0,0.0,0.0,0.0,0.0,0.0,0.0,0.0,0.0,0.0,0.0,0.0,0.0,0.0,0.0,0.0,0.0,0.0,0.0,0.0,0.0,0.0,0.0,0.0,0.0,0.0,0.0,0.0,0.0,0.0,0.0,0.0,0.0,0.0,0.0,0.0,0.0,0.0,0.0,0.0,0.0,0.0,0.0,0.0,0.0,0.0,0.0,0.0,0.0,0.0,0.0,0.0,0.0,0.0,0.0,0.0,0.0,0.0,0.0,0.0,0.0,0.0,0.0,0.0,0.0,0.0,0.0,0.0,0.0,0.0,0.0,0.0,0.0,0.0,0.0,0.0,0.0,0.0,0.0,0.0,0.0,0.0,0.0,0.0,0.0,0.0,0.0,0.0,0.0,0.0,0.0,0.0,0.0,0.0,0.0,0.0,0.0,0.0,0.0,0.0,0.0,0.0,0.0,0.0,0.0,0.0,0.0,0.0,0.0,0.0,0.0,0.0,0.0,0.0,0.0,0.0,0.0,0.0,0.0,0.0,0.0,0.0,0.0,0.0,0.0,0.0,0.0,0.0,0.0,0.0,0.0,0.0,0.0,0.0,0.0,0.0,0.0,0.0,0.0,0.0,0.0,0.0,0.0,0.0,0.0,0.0,0.0,0.0,0.0,0.0,0.0,0.0,0.0,0.0,0.0,0.0,0.0,0.0,0.0,0.0,0.0,0.0,0.0,0.0,0.0,0.0,0.0,0.0,0.0,0.0,0.0,0.0,0.0,0.0,0.0,0.0,0.0,0.0,0.0,0.0,0.0,0.0,0.0,0.0,0.0,0.0,0.0,0.0,0.0,0.0,0.0,0.0,0.0,0.0,0.0,0.0,0.0,0.0,0.0,0.0,0.0,0.0,0.0,0.0,0.0,0.0,0.0,0.0,0.0,0.0,0.0,0.0,0.0,0.0,0.0,0.0,0.0,0.0,0.0,0.0,0.0,0.0,0.0,0.0,0.0,0.0,0.0,0.0,0.0,0.0,0.0,0.0,0.0,0.0,0.0,0.0,0.0,0.0,0.0,0.0,0.0,0.0,0.0,0.0,0.0,0.0,0.0,0.0,0.0,0.0,0.0,0.0,0.0,0.0,0.0,0.0,0.0,0.0,0.0,0.0,0.0,0.0,0.0,0.0,0.0,0.0,0.0,0.0,0.0,0.0,0.0,0.0,0.0,0.0,0.0,0.0,0.0,0.0,0.0,0.0,0.0,0.0,0.0,0.0,0.0,0.0,0.0,0.0,0.0,0.0,0.0,0.0,0.0,0.0,0.0,0.0,0.0,0.0,0.0,0.0,0.0,0.0,0.0,0.0,0.0,0.0,0.0,0.0,0.0,0.0,0.0,0.0,0.0,0.0,0.0,0.0,-2.1085,0.0,0.0,0.0,0.0,0.0,0.0,0.0,0.0,0.0,0.0,0.0,0.0,0.0,0.0,0.0,0.0,0.0,0.0,0.0,0.0,0.0,0.0,0.0,0.0,0.0,0.0,0.0,0.0,0.0,0.0,0.0,0.0,0.0,0.0,0.0,0.0,0.0,0.0,0.0,0.0,0.0,0.0,0.0,0.0,0.0,0.0,0.0,0.0,0.0,0.0,0.0,0.0,0.0,0.0,0.0,0.0,0.0,0.0,0.0,0.0,0.0,0.0,0.0,0.0,0.0,0.0,0.0,0.0,0.0,0.0,0.0,0.0,0.0,0.0,0.0,0.0,0.0,0.0,0.0,0.0,0.0,0.0,0.0,0.0,0.0,0.0,0.0,0.0,0.0,0.0,0.0,0.0,0.0,0.0,0.0,0.0,0.0,0.0,0.0,0.0,0.0,0.0,0.0,0.0,0.0,0.0,0.0,0.0,0.0,0.0,0.0,0.0,0.0,0.0,0.0,0.0,-2.1302,0.0,0.0,0.0,0.0,0.0,0.0,0.0,0.0,0.0,0.0,0.0,0.0,0.0,0.0,0.0,0.0,0.0,0.0,0.0,0.0,0.0,0.0,0.0,0.0,0.0,0.0,0.0,0.0,0.0,0.0,0.0,0.0,0.0,0.0,0.0,0.0,0.0,0.0,0.0,0.0,0.0,0.0,0.0,0.0,0.0,0.0,0.0,0.0,0.0,0.0,0.0,0.0,0.0,0.0,0.0,0.0,0.0,0.0,0.0,0.0,0.0,0.0,0.0,0.0,0.0,0.0,0.0,0.0,0.0,0.0,0.0,0.0,0.0,0.0,0.0,0.0,0.0,0.0,0.0,0.0,0.0,0.0,0.0,0.0,0.0,0.0,0.0,0.0,0.0,0.0,0.0,0.0,0.0,0.0,0.0,0.0,0.0,0.0,0.0,0.0,0.0,0.0,0.0,0.0,0.0,0.0,0.0,0.0,-2.0944,-2.0944,-2.0944,-2.0944,-2.0647,-2.0168,-2.0859,-2.1156,-2.1265,-2.1846,0.0,0.0,0.0,0.0,0.0,0.0,0.0,0.0,0.0,0.0,0.0,0.0,0.0,0.0,0.0,0.0,0.0,0.0,0.0,0.0,0.0,0.0,0.0,0.0,0.0,0.0,0.0,0.0,0.0,0.0,0.0,0.0,0.0,0.0,0.0,0.0,0.0,0.0,0.5686,0.5345,0.5664,0.6348,0.0,0.0,0.0,0.0,0.0,0.0,0.0,0.0,0.0,0.0,0.0,0.0,0.0,0.0,0.0,0.0,0.0,0.0,0.0,0.0,0.0,0.0,0.0,0.0,0.0,0.0,0.0,0.0,0.0,0.0,0.0,0.0,0.0,0.0,0.0,0.0,0.0,0.0,0.0,0.0,0.0,0.0,0.0,0.0,-1.4951,-1.5395,0.0,0.0,0.0,0.0,0.0,0.0,0.0,0.0,0.0,0.0,0.0,0.0,0.0,-1.8713,-1.9121,-1.9564,-1.9994,-2.0407,-2.0407,-2.0407,-2.0407,-2.0407,-2.0363,-2.0318,-2.1025,0.0,-2.1265,-2.1846,0.0,0.0,0.0,0.0,0.0,0.0,0.0,0.0,0.0,0.0,0.0,0.0,0.0,0.0,0.0,0.0,0.0,0.0,0.0,0.0,0.0,0.0,0.0,0.0,0.0,0.0,0.0,0.0,0.0,0.0,0.0,0.0,0.0,0.0,0.0,0.0,0.4885,0.5484,0.5822,0.5925,0.6209,0.6473,0.3008,0.1373,0.1244,0.1008,0.0,0.0,0.0,0.0,0.0,0.0,0.0,0.0,0.0,0.0,0.0,0.0,0.0,0.0,0.0,0.0,0.0,0.0,0.0,0.0,0.0,0.0,0.0,0.0,0.0,0.0,0.0,0.0,0.0,0.0,0.0,0.0,0.0,0.0,0.0,0.0,0.0,0.0,0.0,-1.4725,-1.5054,-1.5435,-1.5426,-1.5548,0.0,0.0,0.0,0.0,0.0,0.0,0.0,0.0,0.0,-1.862,-1.86,-1.8688,-1.887,-1.9381,-1.9691,-1.992,-2.0147,-2.0292,-2.0292,-2.0292,-2.0292,-2.0337,-2.1087,-2.1599,-2.1907,-2.2164,-2.2464,-2.2771,0.0,0.0,0.0,0.0,-2.395,-2.395,0.0,0.0,0.0,0.0,0.0,0.0,0.0,0.0,0.0,0.0,0.0,0.0,0.0,0.0,0.0,0.0,0.0,0.0,0.0,0.0,0.0,0.0,0.0,0.0,0.0,0.0,0.0,0.0,0.0,0.569,0.5793,0.6028,0.6139,0.6055,0.4148,0.2845,0.2116,0.1715,0.1311,0.0,0.0,0.0,0.0,0.0,0.0,0.0,0.0,0.0,0.0,0.0,0.0,0.0,0.0,0.0,0.0,0.0,0.0,0.0,0.0,0.0,0.0,0.0,0.0,0.0,0.0,0.0,0.0,0.0,0.0,0.0,0.0,0.0,0.0,0.0,0.0,0.0,0.0,-1.4973,-1.5148,-1.5469,-1.5513,-1.5584,0.0,0.0,0.0,0.0,0.0,0.0,-1.8271,-1.8518,-1.8731,-1.9004,-1.8874,-1.8874,-1.9012,-1.9279,-1.9509,-1.9783,-2.0147,-2.0292,-2.0292,-2.0292,-2.0292,-2.0337,-2.1087,-2.157,-2.1917,-2.2448,-2.2799,-2.2974,-2.3527,-2.3764,-2.3807,-2.4325,-2.4497,-2.4497,0.0,0.0,0.0,0.0,0.0,0.0,0.0,0.0,0.0,0.0,0.0,0.0,0.0,0.0,0.0,0.0,0.0,0.0,0.0,0.0,0.0,0.0,0.0,0.0,0.0,0.0,0.0,0.0,0.0,0.0,0.0,0.0,0.5458,0.5482,0.5962,0.5419,0.4066,0.2725,0.2154,0.2018,0.0,0.0,0.0,0.0,0.0,0.0,0.0,0.0,0.0,0.0,0.0,0.0,0.0,0.0,0.0,0.0,0.0,0.0,0.0,0.0,0.0,0.0,0.0,0.0,0.0,0.0,0.0,0.0,0.0,0.0,0.0,0.0,0.0,0.0,0.0,0.0,0.0,0.0,0.0,-1.5855,-1.5891,0.0,0.0,0.0,0.0,-1.6976,-1.7754,-1.8263,-1.8295,-1.906,-1.953,-1.9546,-1.9058,-1.905,-1.9546,-1.9096,-1.9333,-2.0292,-2.0292,-2.0292,-2.0292,-2.0292,-2.0292,-2.0337,-2.1087,-2.1006,-2.0555,-2.2608,-2.3797,-2.4411,-2.4454,-2.4454,-2.4454,-2.4497,-2.4497,-2.4497,0.0,0.0,0.0,0.0,0.0,0.0,0.0,0.0,0.0,0.0,0.0,0.0,0.0,0.0,0.0,0.0,0.0,0.0,0.0,0.0,0.0,0.0,0.0,0.0,0.0,0.0,0.0,0.0,0.0,0.0,0.0,0.0,0.0,0.0,0.0,0.0,0.0,0.2591,0.2188,0.2154,0.1817,0.1344,0.0,0.0,0.0,0.0,0.0,0.0,0.0,0.0,0.0,0.0,0.0,0.0,0.0,0.0,0.0,0.0,0.0,0.0,0.0,0.0,0.0,0.0,0.0,0.0,0.0,0.0,0.0,0.0,0.0,0.0,0.0,0.0,0.0,0.0,0.0,0.0,0.0,-1.5239,-1.5821,0.0,-1.6588,-1.6595,-1.6684,-1.6944,-1.7244,-1.7485,-1.765,-1.7956,-1.811,-1.811,-1.8144,-1.8257,-1.8447,-1.8764,-1.9303,-2.0066,-2.0351,-2.0681,-2.1011,-2.1011,-2.1011,-2.1058,-2.1788,-2.1831,-2.1424,-2.265,-2.2624,-2.1882,-2.2799,-2.3159,-2.3246,-2.4186,-2.4497,-2.4497,0.0,0.0,0.0,0.0,0.0,0.0,0.0,0.0,0.0,0.0,0.0,0.0,0.0,0.0,0.0,0.0,0.0,0.0,0.0,0.0,0.0,0.0,0.0,0.0,0.0,0.0,0.0,0.0,0.0,0.0,0.0,0.0,0.0,0.0,0.0,0.0,0.0,0.0,0.0,0.0,0.0,0.0,0.1244,0.0,0.0,0.0,0.0,0.0,0.0,0.0,0.0,0.0,0.0,0.0,0.0,0.0,0.0,0.0,0.0,0.0,0.0,0.0,0.0,0.0,0.0,0.0,0.0,0.0,0.0,0.0,0.0,0.0,0.0,0.0,0.0,0.0,0.0,0.0,-1.4683,-1.4783,-1.5589,-1.6206,-1.6314,-1.6554,-1.6784,-1.6996,-1.7121,-1.736,-1.7722,-1.7834,-1.794,-1.8138,-1.8389,-1.8509,-1.8461,-1.9021,-1.9478,-1.9868,-2.0354,-2.0789,-2.1126,-2.1318,-2.1413,-2.1413,-2.1921,-2.197,-2.1777,-2.2242,-2.1765,-2.0819,-2.2206,-2.2765,-2.2896,-2.4057,-2.4497,-2.4497,0.0,0.0,0.0,0.0,0.0,0.0,0.0,0.0,0.0,0.0,0.0,0.0,0.0,0.0,0.0,0.0,0.0,0.0,0.0,0.0,0.0,0.0,0.0,0.0,0.0,0.0,0.0,0.0,0.0,0.0,0.0,0.0,0.0,0.0,0.0,0.0,0.0,0.0,0.0,0.0,0.0,0.0,0.1614,0.0,0.0,0.0,0.0,0.0,0.0,0.0,0.0,0.0,0.0,0.0,0.0,0.0,0.0,0.0,0.0,0.0,0.0,0.0,0.0,0.0,0.0,0.0,0.0,0.0,0.0,0.0,0.0,0.0,0.0,0.0,0.0,0.0,-1.3417,-1.3913,-1.419,-1.4553,-1.5239,-1.5816,-1.6163,-1.6864,-1.7301,-1.7301,-1.7647,-1.8023,-1.8558,-1.8813,-1.9241,-1.9738,-1.9835,-1.9835,-1.9753,-1.9851,-1.9859,-1.9818,-2.0346,-2.0588,-2.0628,-2.1159,-2.14,-2.1448,-2.1448,-2.1439,-2.143,-2.143,-2.1422,-2.1527,-2.2907,-2.3436,-2.3523,-2.4196,-2.4454,-2.4454,0.0,0.0,0.0,0.0,0.0,0.0,0.0,0.0,0.0,0.0,0.0,0.0,0.0,0.0,0.0,0.0,0.0,0.0,0.0,0.0,0.0,0.0,0.0,0.0,0.0,0.0,0.0,0.0,0.0,0.0,0.0,0.0,0.0,0.0,0.0,0.0,0.0,0.0,0.0,0.0,0.0,0.0,0.121,0.0,0.0,0.0,0.0,0.0,0.0,0.0,0.0,0.0,0.0,0.0,0.0,0.0,0.0,0.0,0.0,0.0,0.0,0.0,0.0,0.0,0.0,0.0,0.0,0.0,0.0,0.0,0.0,0.0,0.0,0.0,0.0,-1.1688,-1.2422,-1.3256,-1.3769,-1.3841,-1.5191,-1.6101,-1.6183,-1.7111,-1.7684,-1.7684,-1.7984,-1.8223,-1.8363,-1.8452,-1.8545,-1.8701,-1.8975,-1.9102,-1.9059,-1.9349,-1.9666,-2.0015,-2.0167,-2.0615,-2.1378,-2.1528,-2.1878,-2.2285,-2.2285,-2.2081,-2.1833,-2.1833,-2.167,-2.1457,-2.2079,-2.2335,-2.2388,-2.2827,-2.3299,-2.3851,0.0,0.0,0.0,0.0,0.0,0.0,0.0,0.0,0.0,0.0,0.0,0.0,0.0,0.0,0.0,0.0,0.0,0.0,0.0,0.0,0.0,0.0,0.0,0.0,0.0,0.0,0.0,0.0,0.0,0.0,0.0,0.0,0.0,0.0,0.0,0.0,0.0,0.0,0.0,0.0,0.0,0.0,0.0909,0.0774,0.0572,0.0404,0.0303,0.0303,0.0305,0.0281,0.0,0.0,0.0,0.0,0.0,0.0,0.0,0.0,0.0,0.0,0.0,0.0,0.0,0.0,0.0,0.0,0.0,0.0,0.0,0.0,0.0,0.0,0.0,0.0,-1.0518,-1.1252,-1.1974,-1.2747,-1.3269,-1.3269,-1.4532,-1.5416,-1.5416,-1.6655,-1.7477,-1.7477,-1.8123,-1.8503,-1.8503,-1.8635,-1.8708,-1.8708,-1.9146,-1.9309,-1.9199,-1.9643,-1.9956,-2.0144,-2.0664,-2.111,-2.1596,-2.2059,-2.2384,-2.2594,-2.2594,-2.2474,-2.2227,-2.2227,-2.209,0.0,0.0,0.0,0.0,0.0,-2.3565,-2.4233,0.0,0.0,0.0,0.0,0.0,0.0,0.0,0.0,0.0,0.0,0.0,0.0,0.0,0.0,0.0,0.0,0.0,0.0,0.0,0.0,0.0,0.0,0.0,0.0,0.0,0.0,0.0,0.0,0.0,0.0,0.0,0.0,0.0,0.0,0.0,0.0,0.0,0.0,0.0,0.0,0.0,0.0,0.0809,0.0708,0.0404,0.0034,0.0101,0.0135,0.0136,0.0215,0.0,0.0,0.0,0.0,0.0,0.0,0.0,0.0,0.0,0.0,0.0,0.0,0.0,0.0,0.0,0.0,0.0,0.0,0.0,0.0,0.0,0.0,0.0,0.0,-1.0097,-1.0553,-1.1693,-1.2314,-1.2705,-1.2802,-1.3741,-1.433,-1.433,-1.5926,-1.6904,-1.6904,-1.8051,-1.8687,-1.8687,0.0,0.0,0.0,0.0,-2.0031,-1.9867,-2.0339,-2.0429,-2.023,-2.1318,-2.1638,-2.1399,-2.2347,-2.2723,-2.2553,-2.251,-2.2544,-2.2594,-2.2594,-2.2594,-2.2576,-2.2465,-2.2431,-2.2492,-2.3556,-2.4431,-2.4979,0.0,0.0,0.0,0.0,0.0,0.0,0.0,0.0,0.0,0.0,0.0,0.0,0.0,0.0,0.0,0.0,0.0,0.0,0.0,0.0,0.0,0.0,0.0,0.0,0.0,0.0,0.0,0.0,0.0,0.0,0.0,0.0,0.0,0.0,0.0,0.0,0.0,0.0,0.0,0.0,0.0,0.0,0.1577,0.0707,0.0337,0.0303,0.074,0.0875,0.0983,0.1645,0.1746,0.1615,0.1659,0.0,0.0,0.0,0.0,0.0,0.0,0.0,0.0,0.0,0.0,0.0,0.0,0.0,0.0,0.0,0.0,0.0,0.0,0.0,0.0,-0.9543,-1.0062,-1.0471,-1.0874,-1.1408,-1.2054,-1.294,-1.3947,-1.4556,-1.4556,-1.5654,-1.633,-1.633,-1.7477,-1.8161,-1.8161,-1.9161,-1.972,-1.972,-2.0023,-2.0185,-2.0142,-2.0251,-2.0226,-2.0183,0.0,0.0,-2.1156,-2.1084,-2.1498,-2.225,-2.2002,-2.2131,-2.2594,-2.2594,-2.2594,-2.2551,-2.2253,-2.1881,-2.1778,-2.3252,-2.3873,-2.414,0.0,0.0,0.0,0.0,0.0,0.0,0.0,0.0,0.0,0.0,0.0,0.0,0.0,0.0,0.0,0.0,0.0,0.0,0.0,0.0,0.0,0.0,0.0,0.0,0.0,0.0,0.0,0.0,0.0,0.0,0.0,0.0,0.0,0.0,0.0,0.0,0.0,0.0,0.0,0.0,0.0,0.0,0.2614,0.1679,0.1277,0.1244,0.1511,0.166,0.1759,0.2155,0.2347,0.2387,0.2247,0.2079,0.1884,0.0,0.0,0.0,0.0,0.0,0.0,0.0,0.0,0.0,0.0,0.0,0.0,0.0,0.0,-0.6113,0.0,0.0,-0.8585,-0.9464,-0.9896,-1.0288,-1.0643,-1.1336,-1.2088,-1.2791,-1.3388,-1.3896,-1.4154,-1.5216,-1.5838,-1.5838,-1.6934,-1.7736,-1.8215,-1.8893,-1.9502,-2.0003,-2.015,-2.0256,-2.0424,-2.0424,-2.0504,-2.072,-2.1,-2.1181,-2.1283,-2.1759,-2.2025,-2.221,-2.2338,-2.2469,-2.2594,-2.2594,-2.2594,-2.2577,-2.2388,-2.2397,-2.2629,-2.3156,-2.3597,-2.4032,0.0,0.0,0.0,0.0,0.0,0.0,0.0,0.0,0.0,0.0,0.0,0.0,0.0,0.0,0.0,0.0,0.0,0.0,0.0,0.0,0.0,0.0,0.0,0.0,0.0,0.0,0.0,0.0,0.0,0.0,0.0,0.0,0.0,0.0,0.0,0.0,0.0,0.0,0.0,0.0,0.0,0.0,0.3589,0.2986,0.2482,0.2114,0.2181,0.2289,0.2423,0.2488,0.2774,0.3033,0.2725,0.2787,0.2904,0.2589,0.2511,0.0,0.0,0.0,0.0,0.0,0.0,0.0,0.0,0.0,-0.4467,-0.4439,-0.5081,-0.5927,-0.6726,-0.7461,-0.8244,-0.9271,-0.9543,-0.9912,-1.0557,-1.1347,-1.1971,-1.2372,-1.2878,-1.336,-1.3678,-1.4688,-1.5319,-1.5319,-1.6308,-1.728,-1.7981,-1.8604,-1.9216,-1.9996,-2.0281,-2.0497,-2.0815,-2.0815,-2.0947,-2.1211,-2.1717,-2.1745,-2.1465,-2.2395,-2.2511,-2.2002,-2.2592,-2.2673,-2.2443,-2.2544,-2.2594,-2.2594,-2.2594,-2.2937,-2.3443,-2.322,-2.3523,-2.4057,0.0,0.0,0.0,0.0,0.0,0.0,0.0,0.0,0.0,0.0,0.0,0.0,0.0,0.0,0.0,0.0,0.0,0.0,0.0,0.0,0.0,0.0,0.0,0.0,0.0,0.0,0.0,0.0,0.0,0.0,0.0,0.0,0.0,0.0,0.0,0.0,0.0,0.0,0.0,0.0,0.0,0.0,0.4197,0.4131,0.3255,0.2147,0.2517,0.2666,0.281,0.3209,0.3218,0.3001,0.3037,0.2826,0.255,0.2511,0.0,0.2497,0.2492,0.2554,0.232,0.0851,-0.1909,-0.4152,0.0,0.0,-0.4676,-0.4661,-0.4742,-0.5074,-0.5954,-0.6182,-0.6824,-0.8509,-0.8798,-0.9223,-1.0274,-1.0515,-1.0857,-1.1593,-1.3102,-1.3879,-1.3388,-1.4139,-1.4603,-1.4603,-1.5656,-1.6354,-1.6466,-1.8242,-1.9309,-1.9422,-2.0487,-2.1115,-2.1152,-2.1159,-2.1174,-2.1211,-2.1268,-2.1303,-2.1252,-2.1077,-2.1068,-2.1271,-2.165,-2.1817,-2.1827,-2.2392,-2.2594,-2.2594,-2.2594,-2.2644,-2.2787,-2.3384,-2.3656,-2.3854,0.0,0.0,0.0,0.0,0.0,0.0,0.0,0.0,0.0,0.0,0.0,0.0,0.0,0.0,0.0,0.0,0.0,0.0,0.0,0.5829,0.0,0.0,0.0,0.0,0.0,0.0,0.0,0.0,0.0,0.0,0.0,0.0,0.0,0.0,0.0,0.0,0.0,0.0,0.0,0.0,0.0,0.0,0.4267,0.4097,0.3625,0.3119,0.3288,0.3419,0.0,0.0,0.3104,0.3021,0.2817,0.2628,0.2518,0.2553,0.2564,0.0,0.2711,0.272,0.0,0.0,-0.0964,-0.2733,-0.314,-0.3963,-0.4711,-0.47,-0.4747,-0.4993,-0.5834,-0.5992,-0.6427,0.0,-0.8011,-0.8455,-0.9479,-1.0023,-1.0494,-1.1008,-1.2332,-1.3207,-1.3315,-1.4012,-1.448,-1.448,-1.5163,-1.5835,-1.64,-1.7383,-1.8224,-1.8743,-1.9798,-2.0392,-2.0392,-2.0917,-2.1211,-2.1211,-2.1211,-2.1211,-2.1196,-2.1204,-2.126,-2.1359,-2.1588,-2.1725,-2.1725,-2.2342,-2.2594,-2.2594,-2.2594,-2.2594,-2.2644,-2.2946,-2.3038,-2.3088,0.0,0.0,0.0,0.0,0.0,0.0,0.0,0.0,0.0,0.0,0.0,0.0,0.0,0.0,0.0,0.0,0.0,0.0,0.0,0.5944,0.6241,0.0,0.0,0.0,0.0,0.0,0.0,0.0,0.0,0.0,0.0,0.0,0.0,0.0,0.0,0.0,0.0,0.0,0.0,0.0,0.0,0.0,0.4131,0.3892,0.3725,0.3625,0.3525,0.3583,0.0,0.0,0.2827,0.2865,0.2589,0.2522,0.2544,0.2589,0.2636,0.2696,0.2698,0.0,0.0,0.116,-0.0187,-0.1508,-0.258,-0.3798,-0.4743,-0.4743,-0.4742,-0.4985,-0.5539,-0.5689,-0.5984,-0.6944,-0.7203,-0.764,-0.8625,-0.9231,-0.9798,-1.0304,-1.1177,-1.2073,-1.28,-1.3769,-1.4431,-1.4668,-1.5059,-1.5635,-1.6263,-1.678,-1.7285,-1.7981,-1.8926,-1.9397,-1.9397,-2.0335,-2.0802,-2.0802,-2.1089,-2.1211,-2.1196,-2.1219,-2.1147,-2.1049,-2.1214,-2.1259,-2.131,-2.1878,-2.2241,-2.2342,-2.2342,-2.2443,-2.2594,-2.2594,-2.2594,-2.2594,0.0,0.0,0.0,0.0,0.0,0.0,0.0,0.0,0.0,0.0,0.0,0.0,0.0,0.0,0.0,0.0,0.0,0.0,0.0,0.5888,0.6202,0.6854,0.0,0.0,0.0,0.0,0.0,0.0,0.0,0.0,0.0,0.0,0.0,0.0,0.0,0.0,0.0,0.0,0.0,0.0,0.0,0.0,0.3825,0.3792,0.3558,0.3192,0.2855,0.0,0.0,0.0,0.2413,0.2511,0.2511,0.255,0.0,0.2601,0.2728,0.0,0.0,0.0,0.2378,0.1429,-0.0048,-0.1517,-0.2252,-0.3676,-0.478,-0.478,-0.4782,-0.4784,-0.4834,-0.4834,-0.5196,-0.6278,-0.6424,-0.6821,-0.7877,-0.8026,-0.8416,-0.9306,-0.9908,-1.069,0.0,-1.3149,-1.4334,-1.5093,-1.5451,-1.5591,-1.565,-1.6526,-1.6997,-1.7056,-1.7923,-1.8448,-1.8448,-1.9397,-1.9815,-1.9873,-2.0744,-2.1211,-2.1189,-2.0545,-2.0123,-1.9847,-2.0075,-2.013,-2.0181,-2.0712,-2.1275,-2.1725,-2.1725,-2.208,-2.2594,-2.2594,-2.2594,-2.2594,0.0,0.0,0.0,0.0,0.0,0.0,0.0,0.0,0.0,0.0,0.0,0.0,0.0,0.0,0.0,0.0,0.0,0.0,0.0,0.6173,0.6713,0.7099,0.6878,0.0,0.0,0.0,0.0,0.0,0.0,0.0,0.0,0.0,0.0,0.0,0.0,0.0,0.0,0.0,0.0,0.0,0.0,0.0,0.3756,0.3255,0.2987,0.2822,0.0,0.0,0.0,0.0,0.2375,0.2511,0.2511,0.0,0.0,0.2747,0.2765,0.2666,0.0,0.0,0.2057,0.1745,0.0585,-0.0492,-0.0747,-0.2306,-0.3728,-0.3728,-0.428,-0.4784,-0.4784,-0.4784,-0.4944,-0.5446,-0.553,-0.592,-0.7008,-0.7154,-0.7482,-0.8361,-0.9189,0.0,0.0,0.0,0.0,-1.4586,-1.5231,-1.5601,-1.5601,-1.5887,-1.6065,-1.6065,-1.6997,-1.7461,-1.7461,-1.8396,-1.9158,-1.9809,-2.053,-2.0772,-2.0489,-2.012,-1.974,-1.9485,-1.9932,-2.0078,-2.0181,-2.1062,-2.1522,-2.1725,-2.2131,-2.2443,-2.2594,-2.2594,-2.2594,-2.2594,0.0,0.0,0.0,0.0,0.0,0.0,0.0,0.0,0.0,0.0,0.0,0.0,0.0,0.0,0.0,0.0,0.0,0.0,0.0,0.0,0.6082,0.6334,0.6239,0.6042,0.0,0.0,0.0,0.0,0.0,0.0,0.0,0.0,0.0,0.0,0.0,0.0,0.0,0.0,0.0,0.0,0.0,0.0,0.3355,0.2887,0.2619,0.0,0.0,0.0,0.0,0.0,0.0,0.2474,0.2417,0.2492,0.2593,0.2618,0.2624,0.2603,0.2379,0.2168,0.1906,0.183,0.0892,0.0,0.0,-0.136,-0.272,-0.3123,-0.3728,-0.4331,-0.4734,-0.4784,-0.4843,-0.5079,-0.5108,-0.5386,-0.613,-0.6214,-0.6546,-0.7426,-0.8091,0.0,0.0,0.0,0.0,-1.4528,-1.5226,-1.5601,-1.5601,-1.5601,-1.5601,-1.5601,-1.6183,-1.6473,-1.6473,-1.7402,-1.8461,-1.9651,-2.0026,-2.0154,-2.0062,-1.9857,-1.9639,-1.9324,-1.968,-1.9828,-1.9879,-2.055,-2.1062,-2.1428,-2.1835,-2.2241,-2.2594,-2.2594,-2.2594,-2.2594,0.0,0.0,0.0,0.0,0.0,0.0,0.0,0.0,0.0,0.0,0.0,0.0,0.0,0.0,0.0,0.0,0.0,0.0,0.0,0.0,0.0,0.4776,0.5077,0.4878,0.4048,0.0,0.0,0.0,0.0,0.0,0.0,0.0,0.0,0.0,0.0,0.0,0.0,0.0,0.0,0.0,0.0,0.0,0.2686,0.2686,0.0,0.0,0.0,0.0,0.0,0.0,0.0,0.0,0.0,0.2385,0.2422,0.2249,0.2438,0.2538,0.2018,0.1966,0.1921,0.1667,0.0858,0.0101,0.0101,-0.0756,-0.1814,-0.2922,-0.3173,-0.3525,0.0,0.0,-0.4843,-0.5071,-0.5104,-0.5169,-0.5349,-0.5377,-0.5714,0.0,0.0,0.0,0.0,0.0,0.0,-1.474,0.0,-1.5537,-1.5537,-1.5596,-1.5601,-1.5601,-1.5601,-1.5601,-1.5601,-1.652,-1.7722,-1.9188,-1.916,-1.9403,-1.9709,-1.9747,-1.9572,-1.9279,-1.9279,-1.9279,-1.9279,-1.9331,-1.9946,-2.0865,-2.0865,-2.1581,-2.2544,-2.2544,-2.2594,-2.2594,0.0,0.0,0.0,0.0,0.0,0.0,0.0,0.0,0.0,0.0,0.0,0.0,0.0,0.0,0.0,0.0,0.0,0.0,0.0,0.0,0.0,0.0,0.0,0.0,0.0,0.0,0.0,0.0,0.0,0.0,0.0,0.0,0.0,0.0,0.0,0.0,0.0,0.0,0.0,0.0,0.0,0.0,0.2686,0.0,0.0,0.0,0.0,0.0,0.0,0.0,0.0,0.0,0.0,0.2769,0.2211,0.2273,0.2185,0.2077,0.198,0.1856,0.1667,0.1617,0.1414,0.1212,0.1212,0.0353,-0.0706,-0.1764,-0.262,-0.3525,0.0,0.0,0.0,-0.4988,-0.5063,0.0,-0.5263,-0.5339,0.0,-0.5714,0.0,-0.6998,-0.7683,-0.8934,0.0,0.0,-1.357,-1.4873,-1.4873,-1.5353,-1.5601,-1.5601,-1.5601,-1.5601,-1.5601,-1.6343,-1.691,-1.7297,-1.7563,-1.8109,-1.8817,-1.8586,-1.8762,-1.9279,-1.9279,-1.9279,-1.9324,-1.9732,-2.0086,-2.0344,-2.0763,-2.1326,-2.1928,-2.1928,-2.2182,-2.2594,0.0,0.0,0.0,0.0,0.0,0.0,0.0,0.0,0.0,0.0,0.0,0.0,0.0,0.0,0.0,0.0,0.0,0.0,0.0,0.0,0.0,0.0,0.0,0.0,0.0,0.0,0.0,0.0,0.0,0.0,0.0,0.0,0.0,0.0,0.0,0.0,0.0,0.0,0.0,0.0,0.0,0.0,0.0,0.0,0.0,0.0,0.0,0.0,0.0,0.0,0.0,0.2066,0.2591,0.2419,0.2025,0.1958,0.0,0.1942,0.1835,0.1707,0.1617,0.1617,0.1617,0.1617,0.1617,0.1111,0.0252,-0.1261,-0.2066,0.0,0.0,0.0,0.0,0.0,0.0,0.0,-0.517,-0.5288,-0.5337,0.0,-0.5826,0.0,-0.6591,-0.7649,-0.8432,0.0,-1.1758,-1.3625,-1.3959,-1.4748,-1.5294,-1.5596,-1.5601,-1.5548,-1.5451,-1.5717,-1.5989,-1.6263,-1.6472,-1.6971,-1.7702,-1.7906,-1.8258,-1.8736,0.0,-1.9279,-1.9324,-1.9628,-1.9879,-2.013,-2.0447,-2.1011,-2.1725,-2.1725,-2.1988,-2.2354,0.0,0.0,0.0,0.0,0.0,0.0,0.0,0.0,0.0,0.0,0.0,0.0,0.0,0.0,0.0,0.0,0.0,0.0,0.0,0.0,0.0,0.0,0.0,0.0,0.0,0.0,0.0,0.0,0.0,0.0,0.0,0.0,0.0,0.0,0.0,0.0,0.0,0.0,0.0,0.0,0.0,0.0,0.0,0.0,0.0,0.0,0.0,0.0,0.0,0.0,0.2548,0.1723,0.1807,0.1844,0.1799,0.1577,0.1715,0.1862,0.1674,0.1596,0.1617,0.1617,0.1617,0.1617,0.1617,0.1617,0.101,-0.0958,0.0,-0.2217,-0.423,0.0,-0.4861,-0.4941,0.0,-0.5026,-0.5132,-0.5174,-0.5219,-0.5355,-0.5373,-0.5382,-0.5382,-0.6238,-0.6803,-0.6816,-0.9715,-1.1955,-1.3007,-1.392,-1.4767,-1.5494,-1.5521,-1.5408,-1.5145,-1.4961,-1.5116,-1.5609,-1.558,-1.5934,-1.6571,-1.7305,-1.7726,-1.7884,-1.8736,0.0,-1.9116,-1.9272,-1.9576,-1.9983,-1.9983,-2.057,-2.1448,-2.1499,-2.1637,-2.1829,0.0,0.0,0.0,0.0,0.0,0.0,0.0,0.0,0.0,0.0,0.1946,0.2214,0.0,0.0,0.0,0.0,0.0,0.0,0.0,0.0,0.0,0.0,0.0,0.0,0.0,0.0,0.0,0.0,0.0,0.0,0.0,0.0,0.0,0.0,0.0,0.0,0.0,0.0,0.0,0.0,0.0,0.0,0.0,0.0,0.0,0.0,0.0,0.0,0.0,0.0,0.1944,0.1807,0.2477,0.2128,0.1499,0.1503,0.1525,0.1594,0.1595,0.1613,0.1617,0.1617,0.1617,0.1617,0.1617,0.1617,0.0,0.0,0.0,-0.1966,-0.3224,-0.418,0.0,-0.4855,0.0,0.0,0.0,0.0,-0.5196,0.0,0.0,0.0,0.0,0.0,0.0,0.0,0.0,-0.9391,-1.2144,-1.3166,-1.4176,-1.5253,-1.5112,-1.4988,-1.495,-1.4713,-1.4629,-1.4696,-1.4554,-1.492,-1.5719,-1.5879,-1.6299,-1.6995,-1.7832,0.0,-1.8304,-1.9004,-1.9324,-1.9428,-1.9428,-1.9662,-2.0012,-2.0414,-2.0703,-2.1002,0.0,0.0,0.0,0.0,0.0,0.0,0.0,-0.047,0.0134,0.047,0.0806,0.1108,0.1412,0.1547,0.0,0.0,0.0,0.0,0.0,0.0,0.0,0.0,0.0,0.0,0.0,0.0,0.0,0.0,0.0,0.0,0.0,0.0,0.0,0.0,0.0,0.0,0.0,0.0,0.0,0.0,0.0,0.0,0.0,0.0,0.0,0.0,0.0,0.0,0.0,0.0,0.1729,0.1574,0.1927,0.1777,0.1402,0.1461,0.1478,0.1491,0.16,0.1617,0.1617,0.1617,0.1617,0.1617,0.1617,0.0,0.0,0.0,-0.0403,-0.126,-0.292,0.0,0.0,0.0,0.0,0.0,0.0,0.0,0.0,0.0,0.0,0.0,0.0,0.0,0.0,0.0,0.0,-0.7567,-0.9909,-1.1964,-1.3543,-1.4536,-1.4657,-1.4702,-1.4702,-1.4476,-1.4358,-1.4358,-1.4245,-1.4407,-1.4826,-1.5298,-1.5719,-1.6146,-1.6935,0.0,-1.8042,-1.8468,-1.8799,-1.9023,-1.9023,-1.9166,-1.9357,-1.9605,-1.9843,-2.0077,0.0,0.0,0.0,0.0,0.0,0.0,0.0,-0.084,-0.0403,-0.0269,-0.0168,0.0168,0.084,0.1076,0.1311,0.0,0.0,0.0,0.0,0.0,0.0,0.0,0.0,0.0,0.0,0.0,0.0,0.0,0.0,0.0,0.0,0.0,0.0,0.0,0.0,0.0,0.0,0.0,0.0,0.0,0.0,0.0,0.0,0.0,0.0,0.0,0.0,0.0,0.0,0.0,0.1637,0.1308,0.1297,0.134,0.1393,0.1498,0.1521,0.1538,0.1592,0.1612,0.1617,0.1617,0.1617,0.1617,0.1617,0.1617,0.0,0.0,0.0151,-0.0504,-0.2216,0.0,0.0,0.0,0.0,0.0,0.0,0.0,0.0,0.0,0.0,0.0,0.0,0.0,0.0,0.0,0.0,0.0,-0.8086,-1.0967,-1.2918,-1.3603,-1.419,-1.446,-1.446,-1.4283,-1.4196,-1.4196,-1.4196,-1.4196,-1.4191,-1.4934,-1.5244,-1.5244,-1.6092,0.0,0.0,-1.7862,-1.8274,-1.8782,-1.8708,-1.8723,-1.8867,-1.8964,-1.9047,-1.913,0.0,0.0,0.0,0.0,0.0,0.0,0.0,-0.2047,-0.1745,-0.1075,-0.0672,-0.0437,-0.0336,-0.0202,0.0168,0.0,0.0,0.0,0.0,0.0,0.0,0.0,0.0,0.0,0.0,0.0,0.0,0.0,0.0,0.0,0.0,0.0,0.0,0.0,0.0,0.0,0.0,0.0,0.0,0.0,0.0,0.0,0.0,0.0,0.0,0.0,0.0,0.0,0.0,0.0,0.0,0.1308,0.1297,0.1327,0.1406,0.1467,0.0,0.0,0.1566,0.1596,0.1617,0.1617,0.1617,0.1617,0.1617,0.0,0.0,0.1465,0.0656,-0.005,-0.0252,-0.1863,-0.3224,0.0,0.0,0.0,0.0,0.0,0.0,0.0,0.0,0.0,0.0,0.0,0.0,0.0,0.0,0.0,-0.8294,-1.0892,-1.2353,-1.2464,-1.3616,-1.4223,-1.4223,-1.4207,-1.4196,-1.4196,-1.4196,-1.4196,-1.4196,-1.4299,-1.4299,-1.4353,-1.525,0.0,0.0,-1.7326,-1.8025,-1.876,-1.8467,-1.8194,-1.8004,-1.8492,-1.847,-1.8272,0.0,0.0,0.0,0.0,0.0,0.0,-0.2382,-0.1981,-0.1747,-0.1446,-0.1076,-0.1042,-0.148,-0.1244,-0.0672,0.0,0.0,0.0,0.0,0.0,0.0,0.0,0.0,0.0,0.0,0.0,0.0,0.0,0.0,0.0,0.0,0.0,0.0,0.0,0.0,0.0,0.0,0.0,0.0,0.0,0.0,0.0,0.0,0.0,0.0,0.0,0.0,0.0,0.0,0.0,0.0,0.0,0.1291,0.1313,0.0,0.0,0.1489,0.1509,0.1558,0.158,0.1594,0.1612,0.1617,0.1617,0.1617,0.0,0.1617,0.1617,0.1262,0.0757,0.0101,-0.0705,-0.1712,0.0,0.0,0.0,0.0,0.0,0.0,0.0,0.0,0.0,0.0,0.0,0.0,0.0,0.0,0.0,-0.6549,-0.8549,-0.9994,-1.0552,-1.2246,-1.3137,-1.3137,-1.3862,-1.4196,-1.4196,-1.4196,-1.4196,-1.4196,-1.4196,-1.4196,-1.4191,-1.4563,0.0,0.0,-1.6452,-1.7022,-1.7591,-1.7862,-1.7808,-1.7523,-1.7759,-1.7725,-1.766,0.0,0.0,0.0,0.0,0.0,-0.3658,-0.2651,-0.2183,-0.1916,-0.1916,-0.1546,-0.1446,-0.1951,-0.1681,-0.1076,-0.0202,0.0,0.0,0.0,0.0,0.0,0.0,0.0,0.0,0.0,0.0,0.0,0.0,0.0,0.0,0.0,0.0,0.0,0.0,0.0,0.0,0.0,0.0,0.0,0.0,0.0,0.0,0.0,0.0,0.0,0.0,0.0,0.0,0.0,0.0,0.0,0.0,0.0,0.0,0.0,0.0,0.1474,0.149,0.1581,0.1551,0.1565,0.1596,0.1604,0.1606,0.0,0.0,0.1604,0.1604,0.1596,0.1344,0.06,0.02,-0.05,0.0,0.0,0.0,0.0,0.0,0.0,0.0,0.0,0.0,0.0,0.0,0.0,0.0,0.0,0.0,-0.5382,-0.6652,-0.7867,-0.8972,-1.1214,-1.2309,-1.2146,-1.3527,-1.4083,-1.3921,-1.4083,-1.4196,-1.4196,-1.4196,-1.4196,-1.4191,-1.4116,0.0,0.0,-1.5517,-1.6077,-1.6732,-1.7172,-1.7341,-1.7279,-1.7279,-1.7279,-1.7279,0.0,0.0,0.0,0.0,0.0,0.0,0.0,-0.2889,-0.2686,-0.2686,-0.2049,-0.1614,-0.1614,-0.1311,-0.1109,-0.1076,0.0,0.0,0.0,0.0,0.0,0.0,0.0,0.0,0.0,0.0,0.0,0.0,0.0,0.0,0.0,0.0,0.0,0.0,0.0,0.0,0.0,0.0,0.0,0.0,0.0,0.0,0.0,0.0,0.0,0.0,0.0,0.0,0.0,0.0,0.0,0.0,0.0,0.0,0.0,0.0,0.1457,0.148,0.1481,0.1504,0.1534,0.1564,0.1621,0.158,0.0,0.0,0.1621,0.1621,0.1548,0.1536,0.1566,0.0736,0.0,-0.005,0.0,0.0,0.0,0.0,0.0,0.0,0.0,0.0,0.0,0.0,0.0,0.0,0.0,0.0,-0.5382,-0.5656,-0.6485,-0.7974,-1.0878,-1.2146,-1.1601,-1.331,-1.3921,-1.3315,-1.3921,-1.4196,-1.4196,-1.4196,-1.4196,0.0,0.0,0.0,0.0,-1.4563,-1.5275,-1.6663,-1.6361,-1.6669,-1.7279,-1.7279,-1.7279,-1.7279,0.0,0.0,0.0,0.0,0.0,0.0,0.0,-0.2587,-0.2253,-0.1983,-0.1546,-0.1244,-0.1244,-0.1176,-0.1109,-0.1109,0.0,0.0,0.0,0.0,0.0,0.0,0.0,0.0,0.0,0.0,0.0,0.0,0.0,0.0,0.0,0.0,0.0,0.0,0.0,0.0,0.0,0.0,0.0,0.0,0.0,0.0,0.0,0.0,0.0,0.0,0.0,0.0,0.0,0.0,0.0,0.0,0.0,0.0,0.0,0.0,0.0,0.0,0.1475,0.1487,0.1502,0.1533,0.154,0.1543,0.1553,0.0,0.154,0.154,0.1533,0.1536,0.1566,0.1325,0.0839,0.0101,-0.0302,0.0,0.0,0.0,0.0,0.0,0.0,0.0,0.0,0.0,0.0,0.0,0.0,0.0,-0.5382,-0.5656,-0.61,-0.6824,-0.8527,-0.9402,-0.9457,-1.1601,-1.259,-1.2422,-1.364,-1.4196,-1.4196,-1.4196,-1.4099,0.0,0.0,0.0,0.0,-1.4155,-1.4478,-1.4883,-1.5845,-1.6332,-1.6615,-1.7091,-1.7472,-1.7662,0.0,0.0,0.0,0.0,0.0,0.0,0.0,-0.2589,-0.2285,-0.2049,-0.1579,-0.1277,-0.1277,-0.1176,-0.1109,-0.1109,0.0,0.0,0.0,0.0,0.0,0.0,0.0,0.0,0.0,0.0,0.0,0.0,0.0,0.0,0.0,0.0,0.0,0.0,0.0,0.0,0.0,0.0,0.0,0.0,0.0,0.0,0.1645,0.0,0.0,0.0,0.0,0.0,0.0,0.0,0.0,0.0,0.0,0.0,0.0,0.0,0.1407,0.0,0.0,0.1455,0.1471,0.1501,0.1509,0.0,0.0,0.0,0.1509,0.1509,0.15,0.1505,0.1547,0.1554,0.1371,0.0703,0.0605,0.0,0.0,0.0,0.0,0.0,0.0,0.0,0.0,0.0,0.0,0.0,0.0,0.0,-0.5382,-0.5547,-0.577,-0.6105,-0.7315,-0.8029,-0.814,-1.028,-1.1437,-1.1651,-1.292,-1.3701,-1.4051,-1.4051,-1.3922,0.0,0.0,0.0,0.0,-1.355,-1.3805,-1.401,-1.5069,-1.5828,-1.647,-1.6978,-1.7534,-1.7999,0.0,0.0,0.0,0.0,0.0,0.0,0.0,0.0,-0.2686,-0.2619,-0.2016,-0.158,-0.158,-0.1277,-0.1109,-0.1109,0.0,0.0,0.0,0.0,0.0,0.0,0.0,0.0,0.0,0.0,0.0,-0.1176,-0.1176,-0.1143,-0.1109,0.0,0.0,0.0,0.0,0.0,0.0,0.0034,0.0505,0.0539,0.1315,0.1646,0.0,0.0,0.0,0.0,0.0,0.0,0.0,0.0,0.0,0.0,0.0,0.0,0.0,0.0,0.0,0.0,0.0,0.0,0.0,0.0,0.0,0.0,0.0,0.0,0.0,0.1478,0.1455,0.1408,0.1467,0.1478,0.1546,0.1607,0.1617,0.0,0.0,0.0,0.0,0.0,0.0,0.0,0.0,0.0,0.0,0.0,0.0,0.0,-0.5382,-0.5382,-0.5547,-0.5766,-0.7091,-0.77,-0.7482,-0.9185,-1.028,-1.0866,-1.1846,-1.2827,-1.3635,-1.374,-1.3669,0.0,0.0,0.0,0.0,-1.2867,-1.3217,-1.3858,-1.4213,-1.5244,-1.6661,-1.6905,-1.7569,-1.8343,0.0,0.0,0.0,0.0,0.0,0.0,0.0,0.0,0.0,0.0,-0.1715,-0.1513,-0.1244,-0.1143,-0.1109,0.0,0.0,0.0,0.0,0.0,0.0,0.0,0.0,0.0,0.0,0.0,0.0,-0.1879,-0.1879,-0.1612,-0.1109,-0.1109,0.0,0.0,0.0,-0.1109,-0.1042,0.0034,0.0442,0.0416,0.1318,0.1588,0.0,0.0,0.0,0.0,0.1871,0.2042,0.0,0.0,0.0,0.0,0.0,0.0,0.0,0.0,0.1329,0.1396,0.1321,0.0,0.1402,0.141,0.1429,0.0,0.0,0.0,0.0,0.0,0.0,0.0,0.0,0.1478,0.1546,0.1607,0.1617,0.0,0.0,0.0,0.0,0.0,0.0,0.0,0.0,0.0,0.0,0.0,0.0,-0.4423,-0.5326,-0.5382,-0.5547,-0.5766,-0.5933,-0.61,-0.6209,-0.7529,-0.8246,-0.8304,-1.0667,-1.1905,-1.2082,-1.3086,-1.3427,0.0,0.0,0.0,-1.2905,-1.2974,-1.3122,-1.3391,-1.4188,-1.5187,-1.6138,-1.6773,-1.771,-1.8672,0.0,0.0,0.0,0.0,0.0,0.0,0.0,0.0,0.0,0.0,0.0,0.0,0.0,0.0,0.0,0.0,0.0,0.0,0.0,0.0,0.0,0.0,0.0,0.0,0.0,0.0,0.0,0.0,0.0,-0.2248,0.0,0.0,0.0,0.0,-0.109,-0.1097,-0.1063,-0.0243,0.0176,0.0357,0.1035,0.0,0.0,0.0,0.0,0.0,0.1878,0.2081,0.0,0.2004,0.1848,0.169,0.0,0.0,0.0,0.0,0.1428,0.1522,0.1362,0.1325,0.1373,0.1386,0.1402,0.1418,0.0,0.0,0.0,0.0,0.0,0.0,0.0,0.0,0.0,0.0,0.1617,0.0,0.0,0.0,0.0,0.0,0.0,0.0,0.0,0.0,0.0,0.0,0.0,-0.3829,-0.4489,-0.4982,-0.531,-0.5471,-0.5364,-0.544,-0.5753,-0.6406,-0.6945,-0.7363,-0.916,-1.0494,-1.1346,-1.2176,-1.2774,0.0,0.0,0.0,-1.3153,-1.3227,-1.3276,-1.3353,-1.3997,-1.5007,-1.619,-1.6689,-1.7774,-1.9016,0.0,0.0,0.0,0.0,0.0,0.0,0.0,0.0,0.0,0.0,0.0,0.0,0.0,0.0,0.0,0.0,0.0,0.0,0.0,0.0,0.0,0.0,0.0,0.0,0.0,0.0,0.0,0.0,0.0,0.0,0.0,0.0,-0.1767,0.0,-0.1117,-0.1128,-0.1094,-0.0614,-0.0183,0.0183,0.0623,0.0,0.0,0.0,0.0,0.0,0.0,0.0,0.0,0.2082,0.1925,0.1848,0.1454,0.0,0.0,0.0,0.0,0.0,0.1454,0.1336,0.1299,0.1369,0.1383,0.1397,0.0,0.0,0.0,0.0,0.0,0.0,0.0,0.0,0.0,0.0,0.0,0.0,0.0,0.0,0.0,0.0,0.0,0.0,0.0,0.0,0.0,0.0,0.0,-0.3139,-0.3459,-0.4363,-0.4949,-0.5108,-0.5108,-0.5243,-0.5575,-0.5591,-0.608,-0.6967,-0.7651,-0.8877,-1.0512,-1.0979,-1.1762,-1.2851,0.0,0.0,-1.348,-1.3518,-1.3529,-1.355,-1.3787,-1.4862,-1.6289,-1.643,-1.7628,-1.9116,0.0,0.0,0.0,0.0,0.0,0.0,0.0,0.0,0.0,0.0,0.0,0.0,0.0,0.0,0.0,0.0,0.0,0.0,0.0,0.0,0.0,0.0,0.0,0.0,0.0,0.0,0.0,0.0,0.0,0.0,-0.2337,-0.2337,-0.1942,-0.1189,-0.1194,-0.1196,-0.1159,-0.0618,-0.0406,-0.0376,0.0527,0.0,0.0,0.0,0.0,0.0,0.0,0.0,0.0,0.2235,0.2042,0.1848,0.1611,0.0,0.0,0.0,0.0,0.0,0.1572,0.1422,0.1319,0.1309,0.1353,0.1391,0.0,0.0,0.0,0.0,0.0,0.0,0.0,0.0,0.0,0.0,0.0,0.0,0.0,0.0,0.0,0.0,0.0,0.0,0.0,0.0,0.0,0.0,0.0,0.0,-0.3405,-0.3672,-0.415,-0.5055,-0.5108,-0.5077,-0.5118,-0.5142,-0.524,-0.5352,-0.6581,-0.7337,-0.7671,-0.9099,-1.0404,-1.1588,0.0,-1.251,-1.3491,-1.3685,-1.3766,-1.3793,-1.404,-1.4764,-1.5666,-1.5654,-1.6723,-1.8311,0.0,0.0,0.0,0.0,0.0,0.0,0.0,0.0,0.0,0.0,0.0,0.0,0.0,0.0,0.0,0.0,0.0,0.0,0.0,0.0,0.0,0.0,0.0,0.0,0.0,0.0,0.0,0.0,0.0,-0.4712,-0.363,-0.2799,-0.2221,-0.1822,-0.1405,-0.1191,-0.1192,-0.0982,-0.0917,-0.0926,0.0,0.0,0.0,0.0,0.0,0.0,0.0,0.0,0.0,0.0,0.208,0.1848,0.165,0.0,0.0,0.0,0.0,0.0,0.1611,0.1454,0.1304,0.1295,0.1335,0.1376,0.0,0.0,0.0,0.0,0.0,0.0,0.0,0.0,0.0,0.0,0.0,0.0,0.0,0.0,0.0,0.0,0.0,0.0,0.0,0.0,0.0,0.0,0.0,0.0,-0.155,-0.2686,-0.3566,-0.4082,-0.465,-0.4941,-0.4898,-0.4939,-0.4939,-0.4898,-0.5714,-0.6454,-0.7012,-0.7962,-0.948,-1.1478,0.0,-1.2508,-1.3873,-1.3981,-1.4024,-1.4035,-1.4148,-1.4719,-1.5559,-1.5986,-1.6935,-1.8042,0.0,0.0,0.0,0.0,0.0,0.0,0.0,0.0,0.0,0.0,0.0,0.0,0.0,0.0,0.0,0.0,0.0,0.0,0.0,0.0,0.0,0.0,0.0,0.0,0.0,0.0,-0.6027,-0.5908,-0.5908,-0.5536,-0.4724,-0.3364,-0.2629,-0.241,-0.1779,-0.1413,-0.1224,-0.1286,-0.1295,-0.1293,0.0,0.0,0.0,0.0,0.0,0.0,0.0,0.0,0.0,0.0,0.0,0.0,0.0,0.0,0.0,0.1729,0.1807,0.1925,0.1767,0.1571,0.1384,0.1466,0.0,0.0,0.0,0.0,0.0,0.0,0.0,0.0,0.0,0.0,0.0,0.0,0.0,0.0,0.0,0.0,0.0,0.0,0.0,0.0,0.0,0.0,0.0,0.0,0.0,0.0,0.0,-0.1561,-0.2669,-0.3173,-0.3979,-0.4533,-0.4784,-0.4784,-0.4784,-0.4786,-0.5135,-0.5756,-0.6548,-0.6931,-0.8378,-1.0659,-1.0823,-1.1944,-1.3694,-1.3748,-1.3916,-1.4196,-1.4196,-1.4617,-1.5298,-1.6092,-1.6829,-1.7457,0.0,0.0,0.0,0.0,0.0,0.0,0.0,0.0,0.0,0.0,0.0,0.0,0.0,0.0,0.0,0.0,0.0,0.0,0.0,0.0,0.0,0.0,0.0,0.0,0.0,-0.6282,-0.6279,-0.6265,-0.6265,-0.5835,-0.4977,-0.4083,-0.327,-0.2497,-0.2423,-0.1996,-0.1293,-0.1295,-0.1296,-0.1257,-0.0825,0.0,0.0,0.0,0.0,0.0,0.0,0.0,0.0,0.0,0.0,0.0,0.0,0.0,0.2157,0.1925,0.2003,0.2157,0.2157,0.1884,0.1629,0.1868,0.1639,0.0,0.0,0.0,0.0,0.0,0.0,0.0,0.0,0.0,0.0,0.0,0.0,0.0,0.0,0.0,0.0,0.0,0.0,0.0,0.0,0.0,0.0,0.0,0.0,0.0,0.005,-0.0151,-0.1158,-0.3123,-0.3274,-0.3776,-0.4784,-0.4784,-0.4784,-0.4786,-0.4979,-0.512,-0.5259,-0.5674,-0.6582,-0.7895,-0.8504,-1.0049,-1.22,-1.2417,-1.3192,-1.4196,-1.4196,-1.425,-1.4407,-1.5244,-1.5613,-1.5773,0.0,0.0,0.0,0.0,0.0,0.0,0.0,0.0,0.0,0.0,0.0,0.0,0.0,0.0,0.0,0.0,0.0,0.0,0.0,0.0,0.0,0.0,0.0,-0.6044,-0.6293,-0.63,-0.63,-0.63,-0.63,-0.6141,-0.5789,-0.4416,0.0,0.0,-0.2235,-0.1571,-0.1296,-0.1296,-0.1453,-0.1648,-0.1491,-0.1176,0.0,0.0,0.0,0.0,0.0,0.0,0.0,0.0,0.0981,0.102,0.0,0.0942,0.1099,0.1414,0.1453,0.1492,0.1885,0.1728,0.1431,0.154,0.0,0.0,0.0,0.0,0.0,0.0,0.0,0.0,0.0,0.0,0.0,0.0,0.0,0.0,0.0,0.0,0.0,0.0,0.0,0.0,0.0,0.0,0.0,0.0,0.0,0.0,0.0,0.0353,-0.0353,-0.1209,-0.1864,-0.2418,-0.2821,-0.3475,-0.3827,-0.3828,-0.4619,-0.499,-0.5026,-0.5222,-0.6083,-0.7454,-0.8204,-0.9697,-1.1728,-1.2443,-1.3258,-1.3976,-1.4132,-1.4196,-1.4245,-1.4563,-1.5035,-1.5613,0.0,0.0,0.0,0.0,0.0,0.0,0.0,0.0,0.0,0.0,0.0,0.0,0.0,0.0,0.0,0.0,0.0,0.0,0.0,0.0,0.0,0.0,0.0,-0.624,-0.6436,-0.6392,-0.6344,-0.63,-0.63,-0.6141,-0.5867,0.0,0.0,0.0,0.0,-0.1532,-0.1296,-0.1296,-0.1452,-0.1726,-0.1726,-0.1451,0.0,0.0,0.0,0.0,0.0,0.0,0.0,0.0,0.0353,0.0,0.0,0.0,0.0,0.0864,0.106,0.1217,0.1611,0.1611,0.151,0.0,0.0,0.0,0.0,0.0,0.0,0.0,0.0,0.0,0.0,0.0,0.0,0.0,0.0,0.0,0.0,0.0,0.0,0.0,0.0,0.0,0.0,0.0,0.0,0.0,0.0,0.0,0.0,0.0908,0.0353,0.0,-0.0706,-0.126,-0.1613,-0.2318,-0.2871,-0.3225,-0.4031,-0.4635,-0.5027,-0.5065,-0.5633,-0.6629,-0.7311,-0.8724,-1.0612,-1.1583,-1.2646,-1.3728,-1.39,-1.397,-1.397,-1.397,-1.4384,-1.4954,0.0,0.0,0.0,0.0,0.0,0.0,0.0,0.0,0.0,0.0,0.0,0.0,0.0,0.0,0.0,0.0,0.0,0.0,0.0,0.0,0.0,0.0,0.0,-0.6546,-0.6695,-0.6549,-0.6443,-0.63,-0.63,-0.5867,-0.5004,-0.5004,0.0,0.0,0.0,0.0,-0.1296,-0.1296,-0.1296,-0.1296,-0.1296,-0.1296,-0.1296,0.0,0.0,0.0,0.0,0.0,0.0,0.0,0.0079,0.055,0.0,0.0,0.0,0.0,0.0902,0.1528,0.1335,0.1572,0.1907,0.0,0.0,0.0,0.0,0.0,0.0,0.0,0.0,0.0,0.0,0.0,0.0,0.0,0.0,0.0,0.0,0.0,0.0,0.0,0.0,0.0,0.0,0.0,0.0,0.0,0.0,0.0,0.0,0.1617,0.1111,0.005,0.0,-0.0504,-0.1563,-0.1563,-0.2116,-0.3173,-0.3173,-0.3815,-0.5025,-0.5063,-0.5106,-0.5106,-0.5472,-0.6679,-0.8563,-0.9391,-1.1216,-1.348,-1.348,-1.348,-1.348,-1.348,-1.348,-1.348,0.0,0.0,0.0,0.0,0.0,0.0,0.0,0.0,0.0,0.0,0.0,0.0,0.0,0.0,0.0,0.0,0.0,0.0,0.0,0.0,0.0,0.0,0.0,0.0,0.0,0.0,-0.634,-0.63,-0.63,-0.5867,0.0,0.0,0.0,-0.247,0.0,0.0,-0.1296,-0.1296,-0.1296,-0.1296,-0.1296,-0.1296,-0.1296,0.0,0.0,0.0,0.0,0.0,0.0,0.0,0.0,0.0,0.0,0.0,0.0,-0.0236,-0.0275,-0.0274,0.0392,0.0589,0.0,0.0,0.0,0.0,0.0,0.0,0.0,0.0,0.0,0.0,0.0,0.0,0.0,0.0,0.0,0.0,0.0,0.0,0.0,0.0,0.0,0.0,0.0,0.0,0.0,0.0,0.0,0.0,0.0,0.1617,0.1465,0.1111,0.1111,0.0959,0.0656,-0.0101,-0.0655,-0.0957,-0.2468,-0.3788,-0.4875,-0.4904,-0.4865,-0.4916,-0.5579,-0.6438,-0.7503,-0.9732,-1.1559,-1.2962,-1.3378,-1.348,-1.348,-1.348,-1.348,-1.3577,0.0,0.0,0.0,0.0,0.0,0.0,0.0,0.0,0.0,0.0,0.0,0.0,0.0,0.0,0.0,0.0,0.0,0.0,0.0,0.0,0.0,0.0,0.0,0.0,0.0,-0.646,-0.6358,0.0,0.0,0.0,0.0,0.0,0.0,-0.2002,0.0,-0.1296,0.0,-0.1296,-0.1296,-0.1296,-0.1296,-0.1296,-0.1296,0.0,0.0,0.0,0.0,0.0,0.0,0.0,0.0,0.0,0.0,0.0,0.0,-0.0825,-0.0785,-0.0784,-0.0196,0.0,0.0,0.0,0.0,0.0,0.0,0.0,0.0,0.0,0.0,0.0,0.0,0.0,0.0,0.0,0.0,0.0,0.0,0.0,0.0,0.0,0.0,0.0,0.0,0.0,0.0,0.0,0.0,0.0,0.0,0.1617,0.1617,0.1617,0.1617,0.1617,0.1617,0.0959,0.0403,0.0,-0.1309,-0.2718,-0.418,-0.4582,-0.4784,-0.4834,-0.5639,-0.6287,-0.6983,-0.936,-1.0833,-1.1719,-1.2581,-1.2888,-1.2939,-1.3145,-1.3195,-1.3295,0.0,0.0,0.0,0.0,0.0,0.0,0.0,0.0,0.0,0.0,0.0,0.0,0.0,0.0,0.0,0.0,0.0,0.0,0.0,0.0,0.0,0.0,0.0,0.0,0.0,0.0,0.0,0.0,0.0,0.0,0.0,0.0,-0.2935,-0.1414,0.0,-0.1299,-0.1297,-0.1299,-0.1299,-0.1296,-0.1296,-0.1296,-0.1296,-0.1296,0.0,0.0,0.0,0.0,0.0,0.0,0.0,0.0,-0.1296,-0.1296,-0.1296,-0.1296,-0.0904,-0.0471,0.0,0.0,0.0,0.0,0.0,0.0,0.0,0.0,0.0,0.0,0.0,0.0,0.0,0.0,0.0,0.0,0.0,0.0,0.0,0.0,0.0,0.0,0.0,0.0,0.0,0.0,0.0,0.0,0.0,0.0,0.0,0.1617,0.1617,0.1617,0.1617,0.1617,0.1617,0.1617,0.1111,0.0151,0.005,-0.1007,-0.2972,-0.413,-0.4684,-0.4834,-0.5589,-0.6187,-0.683,-0.8372,-0.941,-1.0145,-1.1433,-1.198,-1.2127,-1.2613,-1.2813,-1.2813,0.0,0.0,0.0,0.0,0.0,0.0,0.0,0.0,0.0,0.0,0.0,0.0,0.0,0.0,0.0,0.0,0.0,0.0,0.0,0.0,0.0,0.0,0.0,0.0,0.0,0.0,0.0,0.0,0.0,0.0,0.0,0.0,0.0,-0.2199,0.0,-0.1319,-0.1298,-0.1283,-0.1319,-0.1296,-0.1296,-0.1296,-0.1296,-0.1296,-0.1296,0.0,0.0,0.0,0.0,0.0,0.0,0.0,-0.1296,-0.1296,-0.1296,-0.1296,-0.1413,-0.149,0.0,0.0,0.0,0.0,0.0,0.0,0.0,0.0,0.0,0.0,0.0,0.0,0.0,0.0,0.0,0.0,0.0,0.0,0.0,0.0,0.0,0.0,0.0,0.0,0.0,0.0,0.0,0.0,0.0,0.0,0.1617,0.1617,0.1617,0.1617,0.1617,0.1617,0.1617,0.1617,0.1465,0.0,0.0403,-0.0252,-0.0756,-0.2669,-0.4029,-0.4834,-0.4985,-0.5486,-0.6239,-0.7226,-0.8559,-1.0096,-1.1028,-1.1868,-1.2613,-1.2764,-1.2813,-1.2813,0.0,0.0,0.0,0.0,0.0,0.0,0.0,0.0,0.0,0.0,0.0,0.0,0.0,0.0,0.0,0.0,0.0,0.0,0.0,0.0,0.0,0.0,0.0,0.0,0.0,0.0,0.0,0.0,0.0,0.0,0.0,0.0,0.0,-0.2512,0.0,-0.1302,-0.1301,-0.1302,-0.1294,-0.1318,-0.1303,-0.1296,-0.1296,-0.1296,-0.1296,-0.1296,-0.1296,0.0,0.0,0.0,0.0,0.0,0.0,0.0,-0.1296,-0.1296,-0.1453,-0.157,0.0,0.0,0.0,0.0,0.0,0.0,0.0,0.0,0.0,0.0,0.0,0.0,0.0,0.0,0.0,0.0,0.0,0.0,0.0,0.0,0.0,0.0,0.0,0.0,0.0,0.0,0.0,0.0,0.0,0.1617,0.1617,0.1617,0.1617,0.1617,0.1617,0.1617,0.1617,0.1617,0.1617,0.1617,0.1009,0.0504,-0.005,-0.2216,-0.3776,-0.4784,-0.4784,-0.5035,-0.5489,-0.6284,-0.7179,-0.8219,-0.9702,-1.0592,-1.1184,-1.2073,-1.2419,-1.2467,0.0,0.0,0.0,0.0,0.0,0.0,0.0,0.0,0.0,0.0,0.0,0.0,0.0,0.0,0.0,0.0,0.0,0.0,0.0,0.0,0.0,0.0,0.0,0.0,0.0,0.0,0.0,0.0,0.0,0.0,0.0,0.0,0.0,-0.2756,0.0,-0.1448,-0.1304,-0.1326,-0.1311,-0.1301,-0.1314,-0.1301,-0.1296,-0.1296,-0.1296,-0.1296,-0.1296,-0.1296,-0.1296,-0.1296,0.0,0.0,0.0,0.0,-0.1296,-0.1296,-0.1296,-0.1296,0.0,0.0,0.0,0.0,0.0,0.0,0.0,0.0,0.0,0.0,0.0,0.0,0.0,0.0,0.0,0.0,0.0,0.0,0.0,0.0,0.0,0.0,0.0,0.0,0.0,0.0,0.0,0.0,0.0,0.1601,0.1601,0.1601,0.1601,0.1601,0.1601,0.1601,0.1601,0.1601,0.1601,0.1601,0.1607,0.1057,-0.005,-0.1813,-0.3323,-0.4533,-0.4734,-0.4784,-0.4834,-0.5589,-0.5992,-0.6339,-0.8124,-0.8966,-0.9312,-1.1037,-1.1634,-1.1731,0.0,0.0,0.0,0.0,0.0,0.0,0.0,0.0,0.0,0.0,0.0,0.0,0.0,0.0,0.0,0.0,0.0,0.0,0.0,0.0,0.0,0.0,-0.6521,0.0,0.0,0.0,0.0,0.0,0.0,0.0,0.0,0.0,0.0,-0.3608,0.0,0.0,-0.1307,-0.1369,-0.1349,-0.1302,-0.1298,-0.1281,-0.1296,-0.1296,-0.1296,-0.1296,-0.1296,-0.1296,-0.1296,-0.1296,-0.1296,0.0,0.0,0.0,-0.1296,-0.1296,-0.1296,-0.1296,0.0,0.0,0.0,0.0,0.0,0.0,0.0,0.0,0.0,0.0,0.0,0.0,0.0,0.0,0.0,0.0,0.0,0.0,0.0,0.0,0.0,0.0,0.0,0.0,0.0,0.0,0.0,0.0,0.149,0.149,0.149,0.149,0.149,0.149,0.149,0.149,0.149,0.149,0.149,0.149,0.1565,0.1043,0.0,-0.0302,-0.1511,-0.3475,-0.4381,-0.4784,-0.4834,-0.519,-0.5837,-0.6731,-0.7273,-0.8014,-0.8954,-0.9899,-1.0248,-1.0395,0.0,0.0,0.0,0.0,0.0,0.0,0.0,0.0,0.0,0.0,0.0,0.0,0.0,0.0,0.0,0.0,0.0,0.0,0.0,0.0,0.0,-0.6399,-0.6395,-0.6283,-0.6064,0.0,0.0,0.0,0.0,0.0,0.0,-0.5982,-0.5125,0.0,0.0,0.0,0.0,0.0,0.0,-0.1285,-0.1309,0.0,0.0,0.0,-0.1296,-0.1296,-0.1296,-0.1296,-0.1296,-0.1296,-0.1296,-0.1375,-0.1846,0.0,0.0,0.0,0.0,0.0,0.0,0.0,0.0,0.0,0.0,0.0,0.0,0.0,0.0,0.0,0.0,0.0,0.0,0.0,0.0,0.0,0.0,0.0,0.0,0.0,0.0,0.0,0.0,0.0,0.0,0.0,0.0,0.0,0.1478,0.1478,0.1478,0.1478,0.1478,0.1478,0.1478,0.1478,0.1478,0.1478,0.1535,0.1552,0.1582,0.1353,0.0858,0.0252,-0.1158,-0.3224,-0.3676,-0.423,-0.4784,-0.4937,-0.5236,-0.5732,-0.6284,-0.683,-0.7375,-0.8467,-0.916,-0.9657,0.0,0.0,0.0,0.0,0.0,0.0,0.0,0.0,0.0,0.0,0.0,0.0,0.0,0.0,0.0,0.0,0.0,0.0,0.0,0.0,0.0,-0.6148,-0.618,-0.6064,-0.5825,0.0,0.0,0.0,0.0,0.0,-0.6162,-0.6301,-0.5536,0.0,-0.3399,0.0,0.0,0.0,0.0,0.0,0.0,0.0,0.0,0.0,0.0,0.0,-0.1296,-0.1296,-0.1296,-0.1296,-0.1296,-0.1414,-0.2002,-0.2198,0.0,0.0,0.0,0.0,0.0,0.0,0.0,0.0,0.0,0.0,0.0,0.0,0.0,0.0,0.0,0.0,0.0,0.0,0.0,0.0,0.0,0.0,0.0,0.0,0.0,0.0,0.0,0.0,0.0,0.0,0.0,0.0,0.1456,0.1456,0.1456,0.1456,0.1456,0.1456,0.1456,0.1456,0.1456,0.151,0.1534,0.1621,0.1594,0.1609,0.1566,0.0757,-0.0605,-0.2417,-0.2972,-0.3676,-0.4431,-0.4684,-0.4784,-0.4834,-0.5438,-0.5691,-0.5839,-0.703,-0.7875,-0.852,0.0,0.0,0.0,0.0,0.0,0.0,0.0,0.0,0.0,0.0,0.0,0.0,0.0,0.0,-0.131,-0.1302,0.0,0.0,0.0,0.0,0.0,-0.5637,-0.5825,0.0,-0.5637,0.0,0.0,0.0,0.0,0.0,-0.582,-0.5958,-0.5586,-0.4712,-0.4245,-0.3423,-0.2418,0.0,0.0,0.0,-0.1304,-0.131,0.0,0.0,0.0,0.0,0.0,0.0,-0.1296,-0.1296,-0.1296,-0.1296,0.0,0.0,0.0,0.0,0.0,0.0,0.0,0.0,0.0,0.0,0.0,0.0,0.0,0.0,0.0,0.0,0.0,0.0,0.0,0.0,0.0,0.0,0.0,0.0,0.0,0.0,0.0,0.0,0.0,0.0,0.0,0.0,0.0,0.0,0.1395,0.1395,0.1395,0.1395,0.1395,0.1395,0.1395,0.1395,0.1395,0.1468,0.1513,0.162,0.1622,0.1589,0.1617,0.1566,0.0908,-0.0302,-0.2317,-0.3224,-0.3374,-0.4381,-0.4784,-0.4784,-0.4834,-0.4885,-0.4985,-0.5789,-0.6139,-0.6389,0.0,0.0,0.0,0.0,0.0,0.0,0.0,0.0,0.0,0.0,0.0,0.0,0.0,-0.1139,-0.1111,-0.13,-0.1948,0.0,0.0,0.0,0.0,-0.5559,-0.516,-0.5079,-0.5401,0.0,0.0,0.0,0.0,-0.5627,-0.5792,-0.6017,-0.5889,-0.5459,-0.4308,-0.3288,-0.2463,-0.1569,0.0,0.0,-0.1375,-0.1351,-0.1316,0.0,0.0,0.0,0.0,0.0,0.0,0.0,0.0,0.0,0.0,0.0,0.0,0.0,0.0,0.0,0.0,0.0,0.0,0.0,0.0,0.0,0.0,0.0,0.0,0.0,0.0,0.0,0.0,0.0,0.0,0.0,0.0,0.0,0.0,0.0,0.0,0.0,0.0,0.0,0.0,0.0,0.0,0.0,0.0,0.1704,0.2331,0.1749,0.1391,0.1391,0.1391,0.1399,0.1464,0.1495,0.153,0.1621,0.1592,0.1607,0.1617,0.1617,0.1414,0.0959,-0.0504,-0.1913,-0.3224,-0.3626,-0.418,-0.4784,-0.4784,-0.4784,-0.4834,-0.5135,-0.5539,-0.6092,0.0,0.0,0.0,0.0,0.0,0.0,0.0,0.0,0.0,0.0,0.0,0.0,0.0,0.0,-0.087,-0.1044,-0.1685,-0.2546,-0.3599,-0.332,-0.3554,-0.4499,-0.4377,-0.4453,0.0,0.0,0.0,0.0,0.0,0.0,0.0,-0.5899,-0.5918,-0.5741,-0.4104,-0.3111,0.0,0.0,0.0,-0.126,0.0,-0.1202,-0.1305,0.0,0.0,0.0,0.0,0.0,0.0,0.0,0.0,0.0,0.0,0.0,0.0,0.0,0.0,0.0,0.0,0.0,0.0,0.0,0.0,0.0,0.0,0.0,0.0,0.0,0.0,0.0,0.0,0.0,0.0,0.0,0.0,0.0,0.0,0.0,0.0,0.0,0.0,0.0,0.0,0.0,0.0,0.0,0.0,0.0,0.3312,0.2419,0.1883,0.1883,0.2255,0.2286,0.2008,0.2049,0.1896,0.1587,0.1607,0.1617,0.1617,0.1617,0.1617,0.1566,0.0858,-0.0454,-0.2165,-0.2922,-0.3626,-0.428,-0.4684,-0.4784,-0.4784,-0.4784,-0.5135,-0.5639,0.0,0.0,0.0,0.0,0.0,0.0,0.0,0.0,0.0,0.0,0.0,0.0,0.0,0.0,0.0,-0.0589,-0.1372,-0.1763,-0.1607,-0.2501,-0.2852,-0.2503,0.0,0.0,0.0,0.0,0.0,0.0,0.0,0.0,0.0,0.0,-0.5526,-0.5589,-0.3674,-0.298,-0.3038,0.0,-0.0798,-0.0959,0.0,-0.0946,-0.1266,0.0,0.0,0.0,-0.1054,-0.0969,0.0,-0.0698,0.0,0.0,0.0,0.0,0.0,0.0,0.0,0.0,0.0,0.0,0.0,0.0,0.0,0.0,0.0,0.0,0.0,0.0,0.0,0.0,0.0,0.0,0.0,0.0,0.0,0.0,0.0,0.0,0.0,0.0,0.0,0.0,0.0,0.0,0.0,0.0,0.3755,0.4287,0.4289,0.3401,0.2911,0.2956,0.3923,0.4005,0.3,0.3151,0.267,0.1617,0.1617,0.1617,0.1617,0.1617,0.1617,0.1617,0.1617,0.1009,-0.0101,-0.2216,-0.3123,-0.3324,-0.4331,-0.4784,-0.4784,-0.4784,-0.4784,-0.4935,0.0,0.0,0.0,0.0,0.0,0.0,0.0,0.0,0.0,0.0,0.0,0.0,0.0,0.0,-0.055,-0.0393,-0.0589,-0.098,-0.1568,-0.1137,-0.1331,-0.2464,-0.2231,0.0,0.0,0.0,0.0,0.0,0.0,0.0,0.0,0.0,0.0,0.0,-0.2696,-0.1845,-0.1839,-0.0877,0.0,0.0,-0.0712,-0.0753,0.0,0.0,0.0,0.0,0.0,-0.0768,-0.0715,0.0,-0.0709,-0.0914,0.0,0.0,0.0,0.0,0.0,0.0,-0.1296,0.0,0.0,0.0,0.0,0.0,0.0,0.0,0.0,0.0,0.0,0.0,0.0,0.0,0.0,0.0,0.0,0.0,0.0,0.0,0.0,0.0,0.0,0.0,0.0,0.0,0.0,0.0,0.3106,0.3578,0.4245,0.3401,0.3224,0.3888,0.3555,0.3217,0.3,0.3016,0.2589,0.1617,0.1617,0.1617,0.1617,0.1617,0.1617,0.1617,0.1617,0.1414,0.106,-0.0302,-0.1813,-0.3224,-0.3525,-0.413,-0.4784,-0.4784,-0.4784,-0.4834,0.0,0.0,0.0,0.0,0.0,0.0,0.0,0.0,0.0,0.0,0.0,0.0,0.0,0.0,-0.0315,-0.0199,-0.0159,-0.04,-0.0888,-0.0364,-0.0445,-0.1412,-0.1372,-0.1502,0.0,0.0,0.0,0.0,0.0,0.0,0.0,0.0,0.0,0.0,0.0,0.0,0.0,0.0,0.0,0.0,-0.0449,0.0,0.0,-0.0628,-0.0623,0.0,0.0,0.0,-0.0518,-0.0385,-0.0548,0.0,0.0,0.0,0.0,0.0,0.0,0.0,0.0,0.0,0.0,0.0,0.0,0.0,-0.1296,-0.1296,0.0,0.0,0.0,0.0,0.0,0.0,0.0,0.0,0.0,0.0,0.0,0.0,0.0,0.0,0.0,0.0,0.0,0.0,0.0,0.2909,0.3333,0.376,0.423,0.4493,0.4556,0.4289,0.4598,0.4171,0.2963,0.3413,0.3191,0.2243,0.2243,0.2253,0.227,0.227,0.2019,0.1617,0.1617,0.1617,0.1566,0.0908,-0.0353,-0.1964,-0.287,-0.3575,-0.418,-0.4634,-0.4784,-0.4784,0.0,0.0,0.0,0.0,0.0,0.0,0.0,0.0,0.0,0.0,0.0,0.0,0.0,0.0,0.0,0.0,0.0,0.0,0.0,0.0,0.0,0.0,-0.0757,-0.1136,-0.1139,0.0,0.0,0.0,0.0,0.0,0.0,0.0,0.0,0.0,0.0,0.0,0.0,0.0,0.0,-0.0314,-0.009,-0.0269,0.0,0.0,-0.0448,0.0,-0.0404,-0.0359,-0.0313,-0.0132,-0.0297,0.0,0.0,0.0,0.0,0.0,-0.1257,0.0,0.0,0.0,0.0,0.0,0.0,0.0,-0.1296,-0.1296,-0.1139,0.0,0.0,0.0,0.0,0.0,0.0,0.0,0.0,0.0,0.0,0.0,0.0,0.0,0.0,0.0,0.0,0.2758,0.318,0.2969,0.3851,0.4393,0.4392,0.5964,0.6122,0.4539,0.6253,0.5917,0.3141,0.418,0.421,0.3173,0.3276,0.3309,0.3214,0.3221,0.2672,0.1768,0.1667,0.1617,0.1617,0.1617,0.0959,-0.0202,-0.2115,-0.2972,-0.3324,-0.428,-0.4684,-0.4784,0.0,0.0,0.0,0.0,0.0,0.0,0.0,0.0,0.0,0.0,0.0,0.0,0.0,0.0,0.0,0.0,0.0,0.0,0.0,0.0,0.0,0.0,-0.0168,-0.0255,-0.0259,-0.0389,0.0,0.0,0.0,0.0,0.0,0.0,0.0,0.0,0.0,0.0,0.0,0.0,0.0,-0.009,0.0,0.0,-0.0135,-0.009,-0.009,-0.0135,-0.009,-0.009,-0.009,0.0,-0.0351,-0.0386,0.0,0.0,0.0,0.0,0.0,0.0,0.0,0.0,0.0,0.0,0.0,0.0,-0.1296,-0.1296,-0.1257,0.0,0.0,0.0,0.0,0.0,0.0,0.0,0.0,0.0,0.0,0.0,0.0,0.0,0.0,0.0,0.0,0.2104,0.2167,0.2126,0.3033,0.4243,0.565,0.5331,0.5299,0.5826,0.6031,0.5526,0.438,0.5138,0.4735,0.3065,0.3936,0.3924,0.3202,0.3202,0.3073,0.2822,0.1969,0.1617,0.1617,0.1617,0.0959,-0.005,-0.0453,-0.1662,-0.3224,-0.3425,-0.4079,-0.4784,0.0,0.0,0.0,0.0,0.0,0.0,0.0,0.0,0.0,0.0,0.0,0.0,0.0,0.0,0.0,0.0,0.0,0.0,0.0,0.0,0.0,0.0,0.0,0.0,0.0,0.0,0.0,0.0,0.0,0.0,0.0,0.0,0.0,0.0,0.0,0.0,0.0,0.0,0.0,0.0,0.0,0.0,0.0,0.0,0.0,0.0,0.0,0.0,0.0,-0.0135,-0.0266,0.0,0.0,-0.0544,-0.0609,0.0,-0.0674,-0.0746,0.0,0.0,0.0,-0.1061,0.0,0.0,0.0,-0.1296,-0.1296,0.0,0.0,0.0,0.0,0.0,0.0,0.0,0.0,0.0,0.0,0.0,0.0,0.0,0.0,0.0,0.0,0.2181,0.2156,0.2075,0.2894,0.3798,0.4702,0.5123,0.5346,0.5402,0.6129,0.5966,0.4732,0.5583,0.5581,0.482,0.5338,0.5418,0.5083,0.4544,0.404,0.3524,0.2471,0.2019,0.2019,0.2019,0.1665,0.1109,0.0302,-0.0655,-0.1713,-0.282,-0.3525,-0.4079,0.0,0.0,0.0,0.0,0.0,0.0,0.0,0.0,0.0,0.0,0.0,0.0,0.0,0.0,0.0,0.0,0.0,0.0,0.0,0.0,0.0,0.0,0.0,0.0,0.0,0.0,0.0,0.0,0.0,0.0,0.0,0.0,0.0,0.0,0.0,0.0,0.0,0.0,0.0,0.0,0.0,0.0,0.0,0.0,0.0,0.0,0.0,0.0,0.0,0.0,0.0,-0.0263,-0.0261,-0.0339,0.0,0.0,0.0,0.0,0.0,0.0,0.0,0.0,0.0,-0.0904,0.0,0.0,0.0,0.0,0.0,0.0,0.0,0.0,0.0,0.0,0.0,0.0,0.0,0.0,0.0,0.0,0.0,0.0,0.0,0.2503,0.2431,0.2275,0.2873,0.3306,0.3465,0.4997,0.5512,0.4743,0.6401,0.6552,0.5019,0.5925,0.6437,0.6545,0.6753,0.6867,0.6946,0.6098,0.5185,0.4225,0.3173,0.2572,0.2422,0.2422,0.2422,0.2269,0.0958,0.0353,-0.005,-0.1813,-0.2568,-0.292,0.2268,0.2229,0.0,0.0,0.0,0.0,0.0,0.0,0.0,0.0,0.0,0.0,0.0,0.0,0.0,0.0,0.0,0.0,0.13,0.0,0.0,0.0045,0.0,0.0,0.0,0.0,0.0,0.0,0.0,0.0,0.0,0.0,0.0,0.0,0.0,0.0,0.0,0.0,0.0,0.0,0.0,0.0,0.0,0.0,0.0,0.0,0.0,0.0,0.0,0.0,0.0,-0.0045,0.0,-0.0043,-0.0084,0.0,0.0,0.0,0.0,0.0,0.0,0.0,-0.0628,0.0,0.0,0.0,0.0,0.0,0.0,0.0,0.0,0.0,0.0,0.0,0.0,0.0,0.0,0.0,0.0,0.0,0.0,0.0,0.0,0.0,0.251,0.247,0.2556,0.295,0.373,0.4643,0.5094,0.5038,0.6579,0.6938,0.6043,0.6802,0.6846,0.627,0.719,0.741,0.69,0.6831,0.6314,0.5372,0.4273,0.3274,0.2422,0.2422,0.2422,0.2371,0.2219,0.1563,0.0655,0.0453,-0.0403,-0.1459,0.3086,0.2852,0.0,0.0,0.0,0.0,0.0,0.0,0.0,0.0,0.0,0.0,0.0,0.0,0.0,0.0,0.0,0.1838,0.0,0.0,0.0,0.0,0.0,0.0,0.0,0.0,0.0,0.0,0.0,0.0,0.0,0.0,0.0,0.0,0.0,0.0,0.0,0.0,0.0,0.0,0.0,0.0,0.0,0.0225,0.0,0.0,0.0,0.0,0.0,0.0,0.0,0.0,0.0,0.0,0.0,0.0,0.0,0.0,0.0,0.0,0.0,0.0,0.0,0.0,-0.0589,0.0,-0.0741,0.0,0.0,0.0,0.0,0.0,0.0,0.0,0.0,0.0,0.0,0.0,0.0,0.0,0.0,0.0,0.0,0.0,0.0,0.0,0.2511,0.2666,0.3017,0.3832,0.4516,0.5038,0.6103,0.6849,0.713,0.7421,0.7464,0.7244,0.7697,0.791,0.788,0.7336,0.7051,0.6773,0.5155,0.4203,0.3668,0.3075,0.2811,0.2783,0.2783,0.2358,0.1587,0.0992,0.0345,-0.0244,0.4217,0.0,0.0,0.0,0.0,0.0,0.0,0.0,0.0,0.0,0.0,0.0,0.2345,0.2271,0.0,0.0,0.2552,0.2591,0.0,0.0,0.1578,0.0,0.0,0.0,0.0,0.0,0.0125,0.0203,0.0,0.0,0.0,0.0,0.0,0.0,0.0,0.0202,0.0505,0.0,0.0,0.1031,0.1747,0.1971,0.1792,0.1077,0.0808,0.0808,0.0808,0.0808,0.0808,0.0808,0.0808,0.0,0.0808,0.0,0.0,0.0,0.0,0.0,0.0434,0.0,0.0,0.0,0.0,0.0,0.0,0.0,0.0,0.0,0.0,0.0,0.0,0.0,0.0,0.0,0.0,0.0,0.0,0.0,0.0,0.0,0.0,0.0,0.0,0.0,0.0,0.2481,0.2485,0.2493,0.251,0.3326,0.4066,0.4652,0.5467,0.6334,0.7363,0.7363,0.7569,0.7943,0.7943,0.8134,0.8495,0.7856,0.7622,0.7549,0.5892,0.5112,0.4949,0.3888,0.3472,0.3475,0.3475,0.3064,0.2414,0.165,0.1252,0.1047,0.6222,0.5831,0.0,0.0,0.0,0.0,0.0,0.0,0.0,0.0,0.0,0.0,0.0,0.0,0.0,0.0,0.0,0.56,0.4752,0.0,0.3103,0.0,0.0,0.0653,0.0,0.0,0.0,0.0,0.0,0.0,0.0,0.0,0.0,0.0,0.0,0.0644,0.1761,0.1761,0.2406,0.3481,0.3525,0.3395,0.313,0.0,0.2823,0.2823,0.2823,0.0,0.0,0.2823,0.2823,0.0,0.0,0.0,0.0,0.0,0.0,0.0,0.0,0.0,0.0,0.0196,0.0,0.0,0.0,0.0,-0.031,0.0,0.0,0.0,0.0,0.0,0.0,0.0,0.0,0.0,0.0,0.0,0.0,0.0,0.0,0.0,0.0,0.0,0.0,0.2381,0.2385,0.2448,0.2507,0.3326,0.383,0.383,0.4613,0.5431,0.6247,0.6251,0.6759,0.7808,0.7808,0.7996,0.8304,0.8491,0.8083,0.7187,0.6403,0.5986,0.5792,0.4847,0.4468,0.4466,0.4466,0.3856,0.2971,0.303,0.2811,0.2523,0.0,0.0,0.0,0.0,0.0,0.0,0.0,0.5657,0.0,0.0,0.0,0.0,0.0,0.0,0.5032,0.0,0.0,0.5588,0.527,0.4891,0.0,0.0,0.0,0.2691,0.0,0.0,0.0,0.0,0.0,0.0,0.0,0.0,0.0,0.0,0.0,0.1006,0.0,0.0,0.0,0.0,0.0,0.4374,0.4067,0.0,0.0,0.2911,0.2911,0.2911,0.0,0.2911,0.2911,0.2911,0.2911,0.2897,0.2861,0.2758,0.2712,0.0,0.0,0.0,0.1879,0.1058,0.0,0.0,0.0,0.0,0.0,0.0,0.0,0.0,0.0,0.0,0.0,0.0,0.0,0.0,0.0,0.0,0.0,0.0,0.0,0.0,0.0,0.0,0.0,0.2323,0.236,0.2428,0.2448,0.2758,0.321,0.3791,0.4066,0.4844,0.6202,0.6202,0.6655,0.7616,0.7616,0.7743,0.7988,0.8247,0.8305,0.8035,0.6682,0.64,0.678,0.5118,0.4758,0.5249,0.4615,0.4142,0.3812,0.3244,0.2918,0.2796,0.7142,0.0,0.0,0.0,0.0,0.0,0.0,0.0,0.0,0.0,0.6376,0.0,0.6093,0.0,0.5911,0.0,0.6107,0.6139,0.6191,0.5754,0.0,0.5115,0.4235,0.0,0.0,0.0,0.0,0.0,0.0,0.2635,0.0,0.0,0.0,0.0,0.0,0.0,0.3181,0.0,0.382,0.0,0.0,0.5581,0.0,0.0,0.4069,0.358,0.0,0.416,0.416,0.416,0.4115,0.4028,0.4028,0.3983,0.3864,0.3698,0.3648,0.3571,0.3091,0.2971,0.0,0.1918,0.1722,0.0,0.0667,0.0,0.0,0.0,0.0,0.0,0.0,0.0,0.0,0.0,0.0,0.0,0.0,-0.0607,0.0,0.0,0.0,0.0,0.0,0.0,0.1993,0.2263,0.23,0.2338,0.0,0.0,0.2719,0.3326,0.3326,0.3988,0.5348,0.5619,0.6202,0.7053,0.7365,0.7584,0.771,0.8008,0.8199,0.8299,0.6966,0.6953,0.7687,0.6054,0.5695,0.6118,0.5144,0.461,0.4172,0.3276,0.2951,0.292,0.0,0.0,0.0,0.0,0.6652,0.0,0.0,0.0,0.6606,0.0,0.6792,0.7091,0.7143,0.7208,0.7238,0.7238,0.7238,0.0,0.7398,0.6357,0.0,0.0,0.5211,0.4567,0.5774,0.0,0.0,0.0,0.0,0.0,0.0,0.0,0.0,0.0,0.3124,0.0,0.51,0.51,0.5877,0.7095,0.7095,0.6966,0.6748,0.6795,0.5944,0.4872,0.5985,0.6384,0.6384,0.6384,0.6254,0.6127,0.6127,0.5952,0.5684,0.5484,0.5413,0.519,0.4159,0.3871,0.3675,0.2776,0.0,0.0,0.0,0.0,0.1362,0.0,0.0,0.0,0.0,0.0,0.0,0.0,0.0,0.0,0.0,0.0,0.0,0.0,0.0,0.0,0.0,0.1344,0.1597,0.2166,0.2208,0.2257,0.0,0.0,0.2446,0.2504,0.251,0.2899,0.3791,0.4574,0.5351,0.6202,0.7053,0.7446,0.7488,0.7714,0.7894,0.7942,0.7228,0.7566,0.852,0.7496,0.7139,0.7095,0.6118,0.5188,0.4166,0.323,0.292,0.292,0.9312,0.9445,0.9386,0.0,0.8107,0.7522,0.0,0.0,0.0,0.0,0.718,0.7335,0.7733,0.7621,0.7593,0.7789,0.7789,0.0,0.0,0.0,0.0,0.7706,0.7023,0.6722,0.695,0.6522,0.0,0.619,0.0,0.0,0.4778,0.0,0.0,0.0,0.0,0.0,0.5396,0.5396,0.605,0.7095,0.7095,0.6561,0.0,0.0,0.6251,0.5314,0.6118,0.6384,0.6384,0.6384,0.6387,0.6343,0.6343,0.6254,0.616,0.59,0.5826,0.5726,0.5072,0.4929,0.4691,0.3713,0.348,0.3244,0.0,0.0,0.0,0.0,0.0,0.0,0.0,0.0,0.0,0.0,0.0,0.0,0.0,0.0,0.0,0.0,0.0,0.0,0.185,0.2183,0.2392,0.2546,0.2356,0.2222,0.0,0.0,0.0,0.2443,0.2486,0.2899,0.3791,0.3986,0.4802,0.6202,0.6437,0.6861,0.7488,0.7714,0.7894,0.7942,0.7228,0.7566,0.852,0.7496,0.754,0.812,0.7139,0.5719,0.4166,0.323,0.292,0.292,1.0536,0.0,0.0,1.1166,0.0,0.0,0.834,0.0,0.0,0.7469,0.7553,0.0,0.7988,0.7842,0.7842,0.7988,0.7988,0.0,0.7988,0.0,0.0,0.7818,0.7675,0.7529,0.7419,0.7221,0.0,0.6977,0.0,0.0,0.5834,0.0,0.0,0.0,0.0,0.5266,0.0,0.6065,0.6497,0.7095,0.7095,0.0,0.0,0.6874,0.6694,0.6204,0.6561,0.6697,0.6697,0.6697,0.6653,0.6567,0.6567,0.6439,0.6263,0.6053,0.595,0.5859,0.5532,0.544,0.5282,0.4732,0.4577,0.4341,0.3402,0.3207,0.3168,0.0,0.0,0.0,0.0,0.0,0.0,0.0,0.0,0.0,0.0,0.0,0.0,0.0,0.1309,0.0,0.2586,0.2584,0.2653,0.2889,0.2729,0.2664,0.0,0.0,0.0,0.2907,0.2798,0.3063,0.3795,0.399,0.4727,0.6083,0.6437,0.698,0.7646,0.7827,0.802,0.8148,0.783,0.8142,0.8872,0.816,0.8204,0.8608,0.754,0.5941,0.4255,0.3721,0.323,0.292,0.0,0.0,0.0,0.0,0.0,0.0,0.0,0.8389,0.0,0.7793,0.0,0.7988,0.7988,0.7988,0.7988,0.7988,0.0,0.7988,0.7988,0.7988,0.7931,0.7845,0.7702,0.7556,0.745,0.7251,0.0,0.0,0.0,0.0,0.0,0.0,0.0,0.0,0.0,0.0,0.0,0.6807,0.6967,0.0,0.7095,0.7095,0.7095,0.7095,0.7095,0.7095,0.7095,0.7095,0.7095,0.7095,0.6966,0.684,0.684,0.6608,0.6257,0.6116,0.5977,0.5839,0.5671,0.5637,0.5637,0.5598,0.5598,0.5362,0.4499,0.4304,0.4263,0.4066,0.3441,0.33,0.0,0.0,0.0,0.0,0.0,0.0,0.0,0.0,0.0,0.0,0.0,0.0,0.3215,0.2817,0.2787,0.3259,0.3228,0.0,0.0,0.0,0.0,0.3566,0.3321,0.3404,0.3802,0.0,0.4999,0.5925,0.6749,0.7415,0.7838,0.803,0.8238,0.844,0.8645,0.8943,0.9301,0.9043,0.8955,0.8823,0.7669,0.6207,0.4741,0.461,0.4032,0.3275,0.0,0.0,0.0,0.0,0.0,1.2066,1.1693,1.0195,0.9147,0.92,0.8513,0.7988,0.7988,0.7988,0.7988,0.7988,0.7988,0.0,0.0,0.0,0.0,0.7951,0.7855,0.7706,0.7563,0.7411,0.7268,0.0,0.0,0.0,0.0,0.0,0.0,0.0,0.0,0.0,0.6671,0.6854,0.0,0.7095,0.7095,0.7095,0.7095,0.7095,0.7095,0.7095,0.7095,0.7095,0.7095,0.7095,0.7098,0.7054,0.7054,0.6913,0.677,0.6617,0.6467,0.6318,0.5941,0.5864,0.5825,0.5637,0.5598,0.5559,0.5362,0.5323,0.5323,0.5285,0.5165,0.4933,0.4548,0.0,0.0,0.0,0.0,0.0,0.0,0.0,0.0,0.0,0.0,0.0,0.0,0.0,0.0,0.0,0.0,0.0,0.0,0.0,0.0,0.0,0.3989,0.0,0.0,0.0,0.5571,0.5925,0.6626,0.733,0.8068,0.8068,0.8317,0.8641,0.8682,0.8943,0.9305,0.9262,0.9218,0.9126,0.8101,0.7482,0.7082,0.6113,0.5672,0.5272,0.0,0.0,0.0,0.0,0.0,0.0,0.0,1.2172,0.0,1.0476,0.9509,0.8825,0.8825,0.8333,0.7988,0.7988,0.7988,0.7988,0.7988,0.7988,0.8237,0.8825,0.8181,0.0,0.9126,0.7993,0.7521,0.7841,0.0,0.0,0.0,0.0,0.0,0.0,0.0,0.7521,0.0,0.0,0.0,0.7885,0.836,0.8273,0.7885,0.836,0.8532,0.8532,0.8532,0.8532,0.84,0.7445,0.7404,0.7782,0.7657,0.756,0.748,0.7275,0.6835,0.6346,0.6158,0.6099,0.6103,0.5986,0.5951,0.5909,0.5789,0.575,0.5712,0.5637,0.5598,0.5363,0.4548,0.4096,0.0,0.0,0.0,0.0,0.0,0.0,0.0,0.0,0.0,0.0,0.0,0.0,0.0,0.0,0.0,0.0,0.0,0.0,0.0,0.0,0.0,0.0,0.0,0.0,0.0,0.6888,0.7203,0.7672,0.8255,0.8478,0.8687,0.8846,0.9077,0.9376,0.965,0.9519,0.9388,0.9262,0.8767,0.8277,0.7746,0.717,0.6684,0.6065,0.0,1.5099,0.0,0.0,1.4415,0.0,1.4657,1.3806,1.2732,1.1658,1.0587,0.9948,0.9948,0.9167,0.8676,0.8676,0.8676,0.8676,0.8676,0.8676,0.9069,0.9899,0.9036,0.9196,1.0648,0.9025,0.8399,0.0,0.0,0.0,0.0,0.0,0.0,0.0,0.0,0.0,0.0,0.0,0.9224,0.8918,0.973,0.9618,0.9017,0.9749,1.0009,0.9966,0.9966,0.9894,0.9597,0.8087,0.8091,0.8675,0.8449,0.833,0.8239,0.8011,0.7422,0.6795,0.6795,0.6795,0.6795,0.6795,0.6795,0.6756,0.6556,0.6475,0.644,0.6289,0.6138,0.5793,0.5106,0.5191,0.0,0.0,0.0,0.0,0.0,0.0,0.0,0.0,0.0,0.0,0.0,0.0,0.0,0.0,0.0,0.0,0.0,0.0,0.0,0.0,0.0,0.5742,0.6656,0.0,0.7088,0.7821,0.7936,0.8169,0.8484,0.8847,0.9018,0.9096,0.9429,0.9762,0.9994,0.9777,0.9607,0.9432,0.9432,0.8986,0.8273,0.8185,0.7698,0.7034,0.0,0.0,0.0,0.0,0.0,0.0,0.0,1.4592,1.4052,1.2727,1.1658,1.1023,1.1023,1.0974,1.0877,1.0877,1.0877,1.0877,1.0877,1.0877,1.0925,1.1023,1.0956,1.0857,1.0879,1.0665,1.05,0.0,0.0,0.0,0.0,0.0,0.0,0.0,0.0,0.0,0.0,0.9817,0.9921,1.008,1.0401,1.0481,1.0394,1.0481,1.0443,1.0269,1.0269,0.9933,0.9517,0.9348,0.9353,0.939,0.9372,0.9137,0.8823,0.8804,0.8622,0.8475,0.8475,0.8475,0.8475,0.8475,0.8475,0.8475,0.8432,0.8432,0.8432,0.8432,0.7825,0.7242,0.6988,0.6688,0.6362,0.0,0.0,0.0,0.0,0.0,0.0,0.0,0.0,0.0,0.0,0.4858,0.0,0.0,0.0,0.0,0.0,0.0,0.0,0.4587,0.0,0.6208,0.5891,0.7618,0.8241,0.7821,0.8356,0.8627,0.867,0.8887,0.9094,0.9296,0.9507,0.9762,0.9994,0.9951,0.9951,0.9951,0.9951,0.9864,0.9772,0.9515,0.9384,0.9248,0.0,0.0,0.0,0.0,0.0,0.0,0.0,1.5029,1.4742,1.4196,1.2926,1.2096,1.2096,1.156,1.1219,1.1219,1.1219,1.1268,1.1414,1.1414,1.1755,1.2538,1.195,1.2024,1.2848,1.1742,1.1246,0.0,0.0,0.0,0.0,0.0,0.0,0.0,0.0,1.0852,1.075,1.109,1.105,1.0838,1.1672,1.1691,1.1259,1.1823,1.1996,1.1889,1.1692,1.1489,1.1281,1.1281,1.0786,1.0065,0.9893,0.9811,0.9727,0.955,0.911,0.8703,0.8703,0.8703,0.8703,0.8703,0.8703,0.8703,0.8703,0.8703,0.8703,0.8703,0.8432,0.8203,0.8127,0.7819,0.7523,0.0,0.0,0.0,0.0,0.0,0.0,0.0,0.0,0.0,0.0,0.0,0.0,0.0,0.0,0.0,0.0,0.0,0.0,0.55,0.0,0.7105,0.736,0.8256,0.8589,0.8356,0.8589,0.8703,0.8713,0.9048,0.9384,0.9705,0.979,0.9919,0.9994,0.9994,0.9994,0.9994,0.9994,0.9994,0.9994,0.9864,0.982,0.982,1.9773,0.0,1.8358,0.0,1.6904,1.615,1.5961,1.573,1.5499,1.5131,1.41,1.3414,1.3414,1.278,1.2344,1.2344,1.2344,1.2441,1.2635,1.2635,1.3028,1.395,1.3149,0.0,1.4276,1.2858,1.2298,1.2619,1.2406,0.0,0.0,0.0,0.0,0.0,1.2187,1.2142,1.189,1.2176,1.2047,1.1674,1.2656,1.2641,1.2133,1.281,1.3027,1.296,1.2715,1.2508,1.2359,1.2359,1.1694,1.0813,1.064,1.0606,1.0549,1.0343,0.9836,0.9415,0.9415,0.9415,0.9415,0.9415,0.9415,0.9415,0.9415,0.9415,0.9344,0.9122,0.9046,0.9046,0.9046,0.878,0.8524,0.8392,0.0,0.0,0.0,0.0,0.0,0.0,0.6756,0.6728,0.7022,0.0,0.0,0.0,0.0,0.0,0.0,0.0,0.0,0.0,0.0,0.0,0.0,0.8524,0.8703,0.8703,0.8703,0.8703,0.8718,0.9133,0.9554,0.9994,0.9994,0.9994,0.9994,0.9994,1.0164,1.0381,1.0081,1.0168,1.0337,1.0081,0.9994,0.9994,1.9877,1.9992,1.9977,1.8972,1.8788,1.8326,1.707,1.6889,1.6473,1.5267,1.5083,1.5083,1.5083,1.5083,1.5035,1.5035,1.5035,1.5035,1.5083,1.5083,1.5083,0.0,0.0,1.4576,1.4597,1.4267,1.4067,1.4088,0.0,0.0,1.3272,0.0,1.2838,1.324,1.2739,1.2764,1.3154,1.2918,1.2784,1.2817,1.3093,1.3174,1.3174,1.3174,1.3055,1.2896,1.2889,1.255,1.2113,1.2113,1.1923,1.1695,1.175,1.1607,1.1341,1.1149,1.1074,1.1074,1.1074,1.1074,1.1074,1.1074,1.1074,1.1074,1.1074,1.1074,1.085,1.0067,0.9879,0.9879,0.9879,0.9675,0.9356,0.9052,0.0,0.0,0.0,0.0,0.0,0.0,0.6104,0.6301,0.7288,0.0,0.0,0.0,0.0,0.0,0.0,0.0,0.0,0.6192,0.6921,0.0,0.7606,0.8331,0.8703,0.8703,0.8703,0.8703,0.8718,0.9133,0.9554,0.9994,0.9994,0.9994,0.9994,0.9994,1.0511,1.1198,1.0337,1.0511,1.1198,1.0337,0.9994,0.9994,2.1077,2.0631,2.0204,1.9886,1.9247,1.865,1.828,1.8187,1.8048,1.7684,1.7044,1.6581,1.6581,1.5689,1.5083,0.0,1.5083,1.5172,0.0,1.5356,1.5452,1.5547,1.5318,1.5074,1.4874,1.4531,1.4289,1.4088,0.0,0.0,0.0,1.3425,1.3515,1.3838,1.3247,1.308,1.318,1.2659,1.2445,1.2509,1.2811,1.2931,1.2931,1.2931,1.2893,1.2789,1.2583,1.2381,1.2227,1.2227,1.2526,1.2893,1.2776,1.2216,1.1595,1.1521,1.1409,1.1298,1.1298,1.1186,1.1111,1.1111,1.1111,1.1111,1.1111,1.1111,1.1037,1.0775,1.07,1.07,1.07,1.0668,1.0491,1.0199,1.016,0.0,0.0,0.0,0.0,0.0,0.8431,0.8495,0.0,0.8004,0.0,0.0,0.0,0.0,0.0,0.0,0.0,0.0,0.7962,0.0,0.8139,0.8524,0.8703,0.8703,0.8703,0.885,0.9133,0.9376,0.9691,0.9994,0.9994,1.0337,1.0895,1.0895,1.1445,1.2211,1.1955,1.1997,1.2126,1.1235,1.1273,1.174,2.2041,2.1401,2.0808,2.0808,2.0311,1.9758,1.943,1.9338,1.9247,1.8834,1.8241,1.7878,1.7878,1.7037,0.0,1.541,1.5363,1.5404,1.5588,1.5588,1.5636,1.5671,1.5391,1.5097,1.4803,0.0,0.0,1.4088,1.4237,1.4356,1.4356,1.4685,1.4734,1.4594,1.4257,1.3942,1.3579,1.3294,1.3164,1.3185,1.3386,1.3465,1.3465,1.3465,1.3465,1.3436,1.3236,1.3164,1.3164,1.3164,1.3491,1.389,1.3774,1.3302,1.2755,1.2609,1.2278,1.1953,1.1953,1.1663,1.1335,1.1335,1.126,1.1223,1.1223,1.1409,1.1521,1.1372,1.1335,1.1298,1.1223,1.1223,1.1101,1.0761,1.0551,1.0316,0.9955,0.0,0.0,0.0,0.0,0.0,0.0,0.8624,0.8468,0.0,0.0,0.0,0.0,0.0,0.0,0.8269,0.8898,0.0,0.8961,0.8944,0.8932,0.8937,0.9196,0.9654,1.0298,1.0533,1.0763,1.1015,1.1015,1.1316,1.1832,1.1832,1.2382,1.319,1.2845,1.2936,1.3105,1.2174,1.2211,1.2632,2.2925,2.2353,0.0,0.0,2.183,0.0,2.0619,2.0439,2.0076,1.9109,1.8926,1.888,1.888,1.8834,1.8056,1.615,0.0,0.0,0.0,1.5994,1.5866,1.5589,1.5316,1.5018,1.4696,1.4399,1.4292,1.4292,1.511,1.5477,1.5519,1.6329,1.6239,1.546,1.5622,1.5188,1.4372,1.4522,1.4601,1.4601,1.4601,1.4601,1.4601,1.4601,1.4601,1.4601,1.4601,1.4601,1.4601,1.4601,1.4637,1.4673,1.4673,1.4708,1.4673,1.4191,1.3542,1.3011,1.3011,1.2432,1.1848,1.1848,1.17,1.1589,1.1589,1.1996,1.2298,1.1922,1.1818,1.1744,1.1558,1.1521,1.1359,1.093,1.0875,1.0721,1.0196,0.0,0.0,0.0,0.0,0.0,0.0,0.8701,0.9061,0.0,0.0,0.0,0.0,0.0,0.8776,0.9612,0.9645,0.9722,0.9879,0.9582,0.944,0.9499,1.0208,1.1072,1.2006,1.232,1.2577,1.276,1.276,1.276,1.2802,1.2802,1.3366,1.4097,1.3233,1.3408,1.4097,1.3148,1.2845,1.2887,0.0,0.0,2.328,2.328,2.2862,2.2441,2.2255,2.1722,2.1275,2.1042,2.0393,1.9931,1.9931,1.9247,1.8603,1.8141,1.8095,1.8095,1.8095,1.7819,1.7599,1.7522,1.6944,1.6579,1.6495,1.6217,1.6083,1.6083,1.6288,1.637,1.6412,1.6617,1.6434,1.5933,1.5787,1.5401,1.4884,1.4683,1.4601,1.4601,1.4601,1.4601,1.4601,1.4601,1.4601,1.4601,1.4601,1.4601,1.4601,1.4601,1.5002,1.5507,1.5507,1.5903,1.6114,1.4816,1.4235,1.3983,1.3983,1.3723,1.3469,1.3469,1.3433,1.3397,1.3397,1.3506,1.3578,1.3469,1.3004,1.2609,1.2535,1.2535,1.2515,1.241,1.2692,1.2767,1.2401,1.2181,0.0,0.0,1.1263,1.1263,1.1263,1.0839,1.0837,0.0,0.0,0.0,0.0,1.1655,1.1006,0.9991,1.0177,1.0157,0.9922,1.0255,1.0793,1.1516,1.185,1.2273,1.2757,1.2958,1.3128,1.3142,1.3142,1.3487,1.4006,1.4006,1.444,1.5082,1.4866,1.4915,1.4999,1.4097,1.4181,1.4657,2.5263,2.4819,2.4339,2.4145,2.381,2.3517,2.3299,2.2652,2.2185,2.2185,2.1454,2.0952,2.0952,2.0283,1.9858,1.9858,1.9048,1.8512,1.8512,1.8142,1.7873,1.7707,1.7293,1.7051,1.6935,1.6794,1.6778,1.697,1.7351,1.7565,1.7565,1.7976,1.7649,1.6688,1.6758,1.6342,1.5589,1.5623,1.564,1.564,1.564,1.564,1.564,1.564,1.564,1.564,1.564,1.564,1.564,1.564,1.5939,1.6298,1.6298,1.6586,1.6726,1.5903,1.5321,1.5002,1.5002,1.4629,1.4235,1.4155,1.4343,1.4494,1.4191,1.4343,1.4494,1.4307,1.3947,1.3658,1.3549,1.3549,1.3513,1.3404,1.3609,1.3691,1.3379,1.3206,0.0,1.2646,1.259,1.253,1.2403,1.2071,1.1991,1.2261,1.1964,0.0,1.2634,1.2691,1.2288,1.1411,1.152,1.1484,1.126,1.1565,1.2068,1.2757,1.3186,1.3675,1.4217,1.4448,1.4594,1.4594,1.4594,1.481,1.52,1.52,1.5374,1.5714,1.5714,1.5631,1.5499,1.5026,1.5075,1.534,2.6445,2.5913,2.5305,2.4956,2.4829,2.4616,2.4221,2.3594,2.3135,2.3135,2.2551,2.2108,2.2108,2.1689,2.1394,2.1394,1.9765,1.8668,1.8556,1.8164,1.7825,1.7518,1.7453,1.7325,1.7107,1.7155,1.7334,1.7669,1.8506,1.8882,1.8915,1.9561,1.9061,1.7627,1.7929,1.7423,1.6389,1.6791,1.6968,1.6978,1.6978,1.6978,1.6943,1.6978,1.6943,1.6908,1.6943,1.6943,1.6908,1.6908,1.6908,1.6908,1.6908,1.6908,1.6908,1.6908,1.6473,1.5974,1.5974,1.5471,1.4922,1.4736,1.5081,1.5338,1.4816,1.5073,1.5374,1.5002,1.4859,1.4744,1.4557,1.4522,1.4486,1.4299,1.4371,1.434,1.4057,0.0,1.3907,1.3616,1.3577,1.3484,1.3195,1.3101,1.3008,1.2988,1.2904,1.2956,1.3244,1.3258,1.3222,1.3149,1.3003,1.2958,1.311,1.3051,1.33,1.3818,1.4403,1.5061,1.5788,1.608,1.6211,1.6211,1.6211,1.617,1.617,1.6286,1.6335,1.6286,1.6286,1.6154,1.5933,1.5816,1.5665,1.5514,2.7638,2.7226,2.6835,2.6805,2.631,2.5893,2.5852,2.5231,2.4755,2.4755,2.4242,2.3919,2.3919,2.3196,2.2706,2.2706,2.1795,2.093,2.0195,1.977,1.9528,1.9465,1.9133,1.8949,1.8895,1.9237,1.9443,1.9506,1.9964,2.021,2.0201,1.9813,1.9243,1.8486,1.8055,1.7554,1.7042,1.7125,1.7245,1.7401,1.7401,1.7323,1.7166,1.7323,1.7185,1.6908,1.7107,1.7038,1.6908,1.6908,1.6908,1.6908,1.6908,1.6908,1.6908,1.6908,1.6839,1.6726,1.6726,1.6656,1.6542,1.6508,1.6586,1.6621,1.6508,1.6586,1.6621,1.6551,1.6044,1.5613,1.5578,1.5578,1.5542,1.5542,1.6035,1.6306,1.5931,0.0,1.5765,1.5452,1.5408,1.5373,1.5303,1.4847,1.4757,1.5238,1.4814,1.4633,1.484,1.484,1.4697,1.4346,1.3404,1.3277,1.4067,1.4074,1.4645,1.5764,1.5873,1.6116,1.6528,1.6591,1.6615,1.6615,1.6615,1.6525,1.6394,1.7172,1.7326,1.7107,1.7107,1.7107,1.6976,1.6278,1.6004,1.6004,2.8243,2.8059,2.7846,2.7615,2.733,2.7033,2.6775,2.589,2.525,2.525,2.4472,2.3849,2.3849,2.3318,2.2966,2.2966,2.2403,2.1878,2.1491,2.059,1.9906,1.9595,1.9402,1.9491,1.9842,2.0249,2.0606,2.0913,2.1639,2.1558,2.088,2.1527,2.0877,1.9263,1.9399,1.9088,1.8455,1.8455,1.8489,1.8566,1.8566,1.8523,1.8455,1.8533,1.8465,1.8321,1.8422,1.8388,1.8287,1.8287,1.8287,1.8287,1.8287,1.8287,1.8287,1.8287,1.7628,1.6908,1.6908,1.6908,1.6908,1.6908,1.6908,1.6908,1.6908,1.6908,1.6908,1.6908,1.6621,1.6403,1.6403,1.6403,1.6403,1.6403,1.6691,0.0,0.0,1.6621,1.6551,1.6403,1.6403,1.6298,1.6088,1.5833,1.5692,1.5798,1.5542,1.5444,1.5515,1.5515,1.5545,1.5574,1.4626,1.4425,1.5048,1.5242,1.5607,1.6206,1.6397,1.6531,1.6689,1.6689,1.6689,1.6738,1.7204,1.7359,1.7318,1.8198,1.851,1.8381,1.8381,1.8301,1.8035,1.7064,1.6597,1.6445,2.851,2.851,2.8391,2.8082,2.7947,2.7733,2.7377,2.6434,2.5746,2.5746,2.4785,2.4113,2.4113,2.365,2.333,2.333,2.2956,2.2675,2.2526,2.1517,2.0693,2.0203,2.0299,2.0628,2.1136,2.1552,2.1971,2.2438,2.3104,2.2924,2.1921,2.2955,2.231,2.0333,2.0681,2.0428,1.9756,1.9606,1.9596,1.9639,1.9639,1.9607,1.9563,1.9607,1.9574,1.9508,1.9563,1.953,1.9498,1.9498,1.9498,1.9498,1.9498,1.9498,1.9498,1.9498,1.8546,1.7501,1.7501,1.7432,1.7373,1.7373,1.7339,1.727,1.727,1.727,1.727,1.727,1.727,1.727,1.727,1.727,1.727,1.727,0.0,0.0,0.0,1.727,1.727,1.727,1.727,1.7097,1.6682,1.6612,1.6508,1.6254,1.6254,1.6325,1.6483,1.6483,1.6679,1.7065,1.6257,1.5979,1.6248,1.6682,1.6903,1.6906,1.7195,1.7286,1.7286,1.7286,1.7286,1.7326,1.7997,1.8318,1.835,1.9225,1.958,1.958,1.958,1.9407,1.9003,1.7935,1.7342,1.7012,2.851,2.851,2.8471,2.8471,2.8023,2.7699,2.766,2.7179,2.6794,2.6794,2.6268,2.5922,2.5922,2.5155,2.4656,2.4656,2.4284,2.3838,2.3254,2.3143,2.2993,2.284,2.3303,2.3586,2.3629,2.4034,2.4247,2.432,2.4259,2.4166,2.4062,2.3118,2.2462,2.2057,2.107,2.0582,2.0485,1.9975,1.9879,2.0063,2.0063,1.9944,1.9803,1.9987,1.9814,1.953,1.9694,1.9661,1.9498,1.9498,1.9498,1.9498,1.9498,1.9498,1.9498,1.9498,1.9399,1.9311,1.9311,1.909,1.8844,1.8844,1.861,1.8365,1.8365,1.8365,1.8365,1.8365,1.8365,1.8365,1.8365,1.8365,1.8365,1.8365,0.0,0.0,1.8365,1.8365,1.8365,1.8365,1.8365,1.8172,1.7638,1.7604,1.7604,1.7569,1.7569,1.7845,1.844,1.8504,1.8694,1.9156,1.8229,1.7769,1.7932,1.8545,1.8939,1.9061,1.9088,1.9097,1.9097,1.9097,1.9097,1.9097,1.9186,1.9216,1.9265,2.006,2.0421,2.0421,2.0421,2.0178,1.9725,1.8811,1.8221,1.7821,2.9079,2.847,2.7978,2.7978,2.7546,2.7198,2.7198,2.6729,2.6418,2.6418,2.5949,2.5612,2.5612,2.5302,2.5111,2.5111,2.4969,2.4778,2.4576,2.454,2.4118,2.3152,2.3862,2.4349,2.4503,2.4915,2.5011,2.4802,2.5341,2.5003,2.3899,2.448,2.4137,2.2972,2.2697,2.2412,2.2043,2.1502,2.1336,2.14,2.14,2.1368,2.1293,2.1368,2.1305,2.1187,2.1262,2.125,2.1155,2.1155,2.1155,2.1155,2.1155,2.1155,2.1155,2.1155,2.1155,2.1155,2.1155,2.0268,1.9311,1.9311,1.9056,1.88,1.88,1.8643,1.8509,1.8509,1.8509,1.8509,1.8509,1.8509,1.8509,1.8509,0.0,1.8509,1.8509,1.8509,1.8509,1.8509,1.8509,1.8408,1.8206,1.8206,1.8325,1.8592,1.8612,1.8879,1.9479,1.9759,1.9976,2.0155,2.0377,2.0079,1.9231,1.9473,1.9626,1.9659,1.9659,1.9659,1.9659,1.955,1.9471,1.9511,1.9864,2.0021,2.0099,2.0972,2.129,2.126,2.0987,2.0774,2.0488,1.9161,1.8562,1.8354,2.9428,2.8787,2.8288,2.8288,2.7841,2.7445,2.7348,2.6722,2.6295,2.6379,2.5918,2.5664,2.5826,2.5826,2.5756,2.5594,2.5594,2.5488,2.5312,2.5468,2.5189,2.4325,2.5232,2.5835,2.6042,2.614,2.6061,2.5846,2.6173,2.5666,2.4401,2.5404,2.5207,2.3991,2.3859,2.3601,2.3216,2.2486,2.2197,2.2197,2.2197,2.2197,2.2197,2.2197,2.2197,2.2197,2.2197,2.2197,2.2197,2.2197,2.2197,2.2197,2.2197,2.2197,2.2197,2.2197,2.2197,2.2197,2.2197,2.1293,2.0322,2.0225,1.9944,1.9704,1.9704,1.9507,1.9299,1.9199,1.9166,1.9144,1.9011,1.8988,1.8988,1.8988,1.8988,1.8988,1.8988,1.8988,1.8988,1.8988,1.8988,1.8944,1.8767,1.8866,1.9114,1.943,1.9629,1.9985,2.0674,2.112,2.1358,2.1358,2.2008,2.189,2.0865,2.0798,2.076,2.0682,2.0682,2.0682,2.0682,2.0537,2.0498,2.0489,2.0924,2.1049,2.1049,2.1645,2.1762,2.1559,2.1238,2.0938,2.0581,1.945,1.8954,1.8794,2.9503,2.9503,2.9503,2.9503,2.9122,2.8682,2.8368,2.7349,2.6718,2.696,2.653,2.6427,2.6939,2.7007,2.6803,2.6267,2.6198,2.5943,2.5347,2.5805,2.6346,2.6861,2.7933,2.8498,2.8498,2.7993,2.7678,2.7678,2.6635,2.6093,2.6081,2.5552,2.5312,2.5264,2.4263,2.3806,2.3734,2.2674,2.2197,2.2197,2.2197,2.2197,2.2197,2.2197,2.2197,2.2197,2.2197,2.2197,2.2228,2.2228,2.2228,2.2228,2.2228,2.2228,2.2228,2.2228,2.2228,2.2228,2.2228,2.2228,2.2135,2.1788,2.1443,2.119,2.119,2.119,2.1094,2.07,2.0603,2.0518,2.0172,2.0107,2.0107,2.0118,2.0118,2.0118,2.0118,2.0118,2.0118,2.0118,2.0118,1.9911,1.9342,1.9729,2.0012,2.0012,2.0499,2.1232,2.2266,2.2761,2.3001,2.3001,2.3001,2.3001,2.3001,2.2815,2.259,2.2402,2.2402,2.2402,2.2402,2.2402,2.2402,2.2402,2.2402,2.2289,2.2101,2.2101,2.1716,2.1114,2.1104,2.0591,1.9827,1.9827,1.9502,1.9098,3.0214,2.9569,2.9002,2.9002,2.8592,2.8206,2.812,2.7795,2.7611,2.7703,2.7571,2.7524,2.767,2.7703,2.7537,2.7149,2.7116,2.696,2.6517,2.6999,2.7354,2.753,2.7432,2.7534,2.7906,2.7402,2.7138,2.7138,2.6454,2.5913,2.554,2.5384,2.5312,2.5264,2.4263,2.3806,2.3734,2.2674,2.2197,2.2197,2.2197,2.2197,2.2197,2.2197,2.2197,2.2247,2.2586,2.2696,2.2726,2.3065,2.3173,2.3173,2.3173,2.3173,2.3173,2.3173,2.3173,2.3261,2.3707,2.3808,2.3535,2.2363,2.18,2.1557,2.1557,2.138,2.1158,2.1063,2.1031,2.0999,2.0903,2.0871,2.0775,2.0485,2.0453,2.0367,2.014,2.0118,2.0118,2.0118,2.0445,2.0609,2.043,2.0829,2.1261,2.1596,2.2049,2.2457,2.2794,2.2925,2.3001,2.3001,2.3001,2.325,2.3768,2.3202,2.2889,2.2815,2.2815,2.2815,2.2815,2.2665,2.2628,2.2628,2.2995,2.2857,2.2344,2.2509,2.2462,2.2157,2.1505,2.1284,2.1241,2.0457,2.0314,2.0452,3.0541,2.9993,2.9504,2.9504,2.9233,2.8985,2.8839,2.8648,2.8551,2.8629,2.8454,2.839,2.8597,2.8629,2.8468,2.8032,2.7802,2.7604,2.7417,2.7709,2.7871,2.7871,2.7535,2.7553,2.7988,2.7261,2.7042,2.7262,2.6731,2.6286,2.5965,2.5965,2.5965,2.5916,2.4888,2.4373,2.4299,2.3232,2.2744,2.2744,2.2744,2.2744,2.2744,2.2744,2.2744,2.2793,2.3065,2.3185,2.3215,2.3488,2.3607,2.3607,2.3607,2.3607,2.3658,2.3889,2.3953,2.4081,2.469,2.4857,2.4643,2.3692,2.3311,2.3173,2.3173,2.2827,2.245,2.2312,2.2114,2.192,2.1765,2.1765,2.1659,2.1439,2.1408,2.125,2.086,2.0796,2.0799,2.0806,2.1228,2.162,2.1823,2.2423,2.2993,2.3434,2.3741,2.39,2.39,2.39,2.39,2.39,2.39,2.4107,2.4564,2.4143,2.39,2.39,2.39,2.39,2.39,2.379,2.3717,2.3754,2.4059,2.3902,2.343,2.3367,2.3142,2.2776,2.2001,2.1753,2.176,2.1076,2.1017,2.1219,3.0657,3.0642,3.0598,3.0598,3.0598,3.0492,3.0203,2.973,2.9467,2.9665,2.9261,2.9166,2.9634,2.9696,2.9463,2.8962,2.8454,2.8149,2.8149,2.8149,2.8149,2.8149,2.8097,2.8258,2.8576,2.7536,2.7274,2.7875,2.7344,2.7095,2.7095,2.7095,2.7095,2.7043,2.5891,2.5389,2.5312,2.4154,2.3695,2.3695,2.3695,2.3695,2.3695,2.3695,2.3666,2.3636,2.3725,2.3725,2.3666,2.3725,2.3725,2.3725,2.3725,2.3763,2.3905,2.4447,2.464,2.4839,2.5438,2.5625,2.5606,2.5676,2.5702,2.5632,2.5447,2.4959,2.4482,2.4178,2.3682,2.3208,2.2892,2.2831,2.2818,2.2739,2.2726,2.2586,2.2104,2.2042,2.2076,2.211,2.2488,2.2909,2.3416,2.4232,2.4874,2.5299,2.5335,2.5335,2.5335,2.5335,2.53,2.5312,2.5312,2.5335,2.5418,2.5418,2.5382,2.5312,2.5312,2.5312,2.5312,2.5312,2.5312,2.5312,2.5382,2.5216,2.492,2.4373,2.377,2.3103,2.2583,2.2143,2.1803,2.1741,2.1741,2.1741,3.1161,3.0836,3.0598,3.0598,3.0598,3.0582,3.0492,3.0387,3.0312,3.0387,3.0296,3.0251,3.0357,3.0387,3.0249,2.9851,2.9463,2.9261,2.9261,2.9261,2.9261,2.9261,2.8867,2.8848,2.9348,2.8318,2.8031,2.8594,2.8047,2.7769,2.7769,2.7769,2.7769,2.7749,2.654,2.5999,2.5933,2.4786,2.4297,2.4297,2.4297,2.4297,2.4297,2.4297,2.4137,2.4005,2.4639,2.4553,2.4192,2.4565,2.4708,2.4708,2.4708,2.5016,2.5418,2.5553,2.5928,2.6438,2.7028,2.7189,2.7296,2.7784,2.7905,2.7472,2.5773,2.5299,2.5165,2.5102,2.4999,2.4878,2.4816,2.4784,2.4538,2.3822,2.3697,2.3573,2.3187,2.3156,2.3333,2.3794,2.4267,2.4572,2.4695,2.5196,2.5563,2.5685,2.5685,2.5615,2.5463,2.5475,2.5417,2.5312,2.5312,2.5581,2.6139,2.6139,2.5861,2.5312,2.5312,2.5312,2.5312,2.5312,2.5312,2.5335,2.5896,2.5534,2.4534,2.4628,2.4248,2.3621,2.3127,2.3122,2.3318,2.2743,2.2816,2.3095,3.1581,3.1408,3.1234,3.1234,3.1234,3.1146,3.0955,3.0925,3.0836,3.0642,3.0777,3.0925,3.0925,3.1117,3.1058,3.0687,3.0507,3.0326,3.0097,3.0097,3.0097,3.0097,2.9822,2.9792,3.0052,2.9515,2.9214,2.9171,2.8908,2.8757,2.8757,2.8757,2.8757,2.8716,2.7804,2.7198,2.687,2.5954,2.5435,2.5175,2.5175,2.5175,2.5175,2.5175,2.5063,2.4951,2.5384,2.5439,2.5425,2.585,2.5986,2.6069,2.6394,2.6539,2.6735,2.7394,2.7785,2.8176,2.8792,2.9085,2.9247,2.9383,2.9293,2.8779,2.7267,2.6699,2.6501,2.6501,2.6276,2.606,2.606,2.606,2.5924,2.5411,2.5581,2.5639,2.5249,2.5186,2.5294,2.5658,2.58,2.6026,2.6473,2.6734,2.6913,2.6913,2.6913,2.6833,2.6765,2.6731,2.6697,2.662,2.662,2.6837,2.7222,2.7209,2.7149,2.7051,2.6561,2.6346,2.6346,2.6346,2.6346,2.638,2.6769,2.6371,2.5502,2.5339,2.4904,2.4323,2.3791,2.3927,2.439,2.3989,2.3959,2.406,3.202,3.1964,3.1908,3.1908,3.1908,3.1794,3.1452,3.1394,3.1278,3.0866,3.1161,3.1394,3.1394,3.1695,3.1781,3.1423,3.1394,3.1248,3.0866,3.0836,3.0836,3.0836,3.0836,3.0836,3.0836,3.0836,3.0477,2.9758,2.9758,2.9758,2.9758,2.9758,2.9758,2.973,2.9124,2.8545,2.7993,2.7371,2.6848,2.6368,2.6336,2.6307,2.6307,2.626,2.619,2.6177,2.6231,2.6431,2.6721,2.7133,2.7266,2.7395,2.8071,2.8084,2.8061,2.9175,2.958,2.9769,3.026,3.0645,3.0808,3.0495,3.0208,2.9825,2.9153,2.8415,2.7854,2.7854,2.7474,2.7104,2.7104,2.7104,2.7104,2.7104,2.7542,2.7755,2.7466,2.7448,2.7498,2.7631,2.7473,2.76,2.8274,2.8444,2.8509,2.8509,2.8509,2.8509,2.8476,2.8476,2.8444,2.8425,2.8411,2.8411,2.8411,2.8411,2.8675,2.916,2.8338,2.7941,2.7927,2.7776,2.7723,2.7723,2.7556,2.7144,2.6523,2.6115,2.5573,2.4945,2.4546,2.4692,2.5146,2.5146,2.5034,2.4908,3.252,3.2173,3.1908,3.1908,3.1908,3.1879,3.1823,3.1823,3.1794,3.1737,3.1794,3.1823,3.1823,3.1879,3.1879,3.1823,3.1823,3.1794,3.1737,3.1709,3.1709,3.1709,3.1709,3.1709,3.1709,3.1709,3.1306,3.0447,3.0447,3.0447,3.0447,3.0447,3.0447,3.0418,2.9782,2.942,2.9305,2.8698,2.838,2.8306,2.8079,2.7977,2.7956,2.7724,2.7475,2.7312,2.755,2.7515,2.7427,2.7832,2.7956,2.8101,2.8833,2.9343,2.9675,2.9866,3.0279,3.072,3.0793,3.0867,3.0896,3.0837,3.0778,3.0719,3.0601,2.9493,2.8478,2.8478,2.841,2.8356,2.8356,2.8356,2.8356,2.8356,2.8424,2.8655,2.9091,2.9172,2.9369,2.9875,2.9943,2.9738,2.9341,2.9842,3.0192,3.0192,3.0192,3.0103,2.9922,2.9922,2.986,2.9749,2.9735,2.9735,2.9735,2.9735,2.9766,2.9858,2.9735,2.9673,2.9642,2.8935,2.861,2.8578,2.7842,2.6889,2.596,2.6396,2.5953,2.5028,2.5425,2.5632,2.5687,2.5687,2.5673,2.5646,3.3245,3.3033,3.2846,3.2699,3.2672,3.259,3.2312,3.2284,3.2216,3.1936,3.2132,3.2284,3.2284,3.252,3.259,3.2312,3.2284,3.2173,3.1908,3.1908,3.1908,3.1908,3.1908,3.1908,3.1908,3.1908,3.1709,3.135,3.135,3.135,3.135,3.135,3.135,3.1291,3.1008,3.071,3.038,3.0097,2.9782,2.9421,2.9309,2.9241,2.9237,2.9117,2.8996,2.8944,2.9291,2.9342,2.9287,2.9705,2.9823,2.9945,3.0689,3.0918,3.098,3.1329,3.1647,3.1847,3.1847,3.2043,3.217,3.1931,3.1719,3.1504,3.1232,3.0817,3.0378,2.9976,2.9875,2.9988,3.0296,3.0321,3.0449,3.074,3.1061,3.1387,3.1655,3.1698,3.1636,3.158,3.1226,3.0917,3.063,3.0545,3.0494,3.0494,3.0494,3.045,3.0375,3.0375,3.0345,3.0269,3.0269,3.0269,3.0269,3.0269,3.048,3.0837,3.0837,3.0525,2.9981,2.9611,2.947,2.9439,2.9048,2.8153,2.6982,2.725,2.6603,2.5481,2.5715,2.6014,2.6336,2.668,2.6575,2.6283]}]]